Time,TemperatureF,DewpointF,PressureIn,WindDirection,WindDirectionDegrees,WindSpeedMPH,WindSpeedGustMPH,Humidity,HourlyPrecipIn,Conditions,Clouds,dailyrainin,SoftwareType,DateUTC
2013-05-08 00:00:00,54.7,53.6,29.96,WNW,285,0.0,0.0,96,0.00,,---,0.01,VWS V14.01,2013-05-08 04:00:00,
2013-05-08 00:01:00,54.7,53.6,29.96,WNW,285,0.0,0.0,96,0.00,,---,0.00,VWS V14.01,2013-05-08 04:01:00,
2013-05-08 00:02:00,54.7,53.6,29.96,WNW,285,0.0,0.0,96,0.00,,---,0.00,VWS V14.01,2013-05-08 04:02:00,
2013-05-08 00:03:00,54.7,53.6,29.96,WNW,285,0.0,0.0,96,0.00,,---,0.00,VWS V14.01,2013-05-08 04:03:00,
2013-05-08 00:04:00,54.8,53.7,29.96,WNW,285,0.0,0.0,96,0.00,,---,0.00,VWS V14.01,2013-05-08 04:04:00,
2013-05-08 00:05:00,54.8,53.7,29.96,WNW,285,0.0,2.0,96,0.00,,---,0.00,VWS V14.01,2013-05-08 04:05:00,
2013-05-08 00:06:00,54.8,53.7,29.96,WNW,285,0.0,2.0,96,0.00,,---,0.00,VWS V14.01,2013-05-08 04:06:00,
2013-05-08 00:07:00,54.8,53.7,29.96,WNW,285,0.0,2.0,96,0.00,,---,0.00,VWS V14.01,2013-05-08 04:07:00,
2013-05-08 00:08:00,54.8,53.7,29.96,WNW,285,0.0,2.0,96,0.00,,---,0.00,VWS V14.01,2013-05-08 04:08:00,
2013-05-08 00:09:00,54.8,53.7,29.96,WNW,285,0.0,2.0,96,0.00,,---,0.00,VWS V14.01,2013-05-08 04:09:00,
2013-05-08 00:10:00,54.8,53.7,29.96,WNW,285,0.0,2.0,96,0.00,,---,0.00,VWS V14.01,2013-05-08 04:10:00,
2013-05-08 00:11:00,54.8,53.7,29.96,WNW,285,0.0,1.0,96,0.00,,---,0.00,VWS V14.01,2013-05-08 04:11:00,
2013-05-08 00:12:00,54.8,53.7,29.96,WNW,285,0.0,1.0,96,0.00,,---,0.00,VWS V14.01,2013-05-08 04:12:00,
2013-05-08 00:13:00,54.8,53.7,29.96,WNW,285,1.0,1.0,96,0.00,,---,0.00,VWS V14.01,2013-05-08 04:13:00,
2013-05-08 00:14:00,54.8,53.7,29.96,WNW,285,0.0,1.0,96,0.00,,---,0.00,VWS V14.01,2013-05-08 04:14:00,
2013-05-08 00:15:00,54.8,53.7,29.96,WNW,285,0.0,1.0,96,0.00,,---,0.00,VWS V14.01,2013-05-08 04:15:00,
2013-05-08 00:16:00,54.8,53.7,29.96,WNW,285,0.0,1.0,96,0.00,,---,0.00,VWS V14.01,2013-05-08 04:16:00,
2013-05-08 00:17:00,54.8,53.7,29.96,WNW,285,0.0,1.0,96,0.00,,---,0.00,VWS V14.01,2013-05-08 04:17:00,
2013-05-08 00:18:00,54.8,53.7,29.96,WNW,285,0.0,1.0,96,0.00,,---,0.00,VWS V14.01,2013-05-08 04:18:00,
2013-05-08 00:19:00,55.0,53.9,29.96,WNW,285,0.0,1.0,96,0.00,,---,0.00,VWS V14.01,2013-05-08 04:19:00,
2013-05-08 00:20:00,55.0,53.9,29.96,WNW,285,0.0,1.0,96,0.00,,---,0.00,VWS V14.01,2013-05-08 04:20:00,
2013-05-08 00:21:00,55.0,53.9,29.96,WNW,285,0.0,0.0,96,0.00,,---,0.00,VWS V14.01,2013-05-08 04:21:00,
2013-05-08 00:22:00,55.1,54.0,29.96,WNW,285,0.0,0.0,96,0.00,,---,0.00,VWS V14.01,2013-05-08 04:22:00,
2013-05-08 00:23:00,55.1,54.0,29.96,WNW,285,0.0,0.0,96,0.00,,---,0.00,VWS V14.01,2013-05-08 04:23:00,
2013-05-08 00:24:00,55.1,54.0,29.96,WNW,285,3.0,3.0,96,0.00,,---,0.00,VWS V14.01,2013-05-08 04:24:00,
2013-05-08 00:25:00,55.1,53.7,29.96,WNW,285,0.0,3.0,95,0.00,,---,0.00,VWS V14.01,2013-05-08 04:25:00,
2013-05-08 00:26:00,55.1,54.0,29.96,WNW,285,0.0,3.0,96,0.00,,---,0.00,VWS V14.01,2013-05-08 04:26:00,
2013-05-08 00:27:00,55.3,53.9,29.96,WNW,285,0.0,3.0,95,0.00,,---,0.00,VWS V14.01,2013-05-08 04:27:00,
2013-05-08 00:28:00,55.3,53.9,29.96,WNW,285,0.0,3.0,95,0.00,,---,0.00,VWS V14.01,2013-05-08 04:28:00,
2013-05-08 00:29:00,55.3,53.9,29.96,WNW,285,0.0,3.0,95,0.00,,---,0.00,VWS V14.01,2013-05-08 04:29:00,
2013-05-08 00:30:00,55.3,53.9,29.95,WNW,285,0.0,3.0,95,0.00,,---,0.00,VWS V14.01,2013-05-08 04:30:00,
2013-05-08 00:31:00,55.4,54.0,29.95,WNW,285,0.0,0.0,95,0.00,,---,0.00,VWS V14.01,2013-05-08 04:31:00,
2013-05-08 00:32:00,55.4,54.0,29.95,WNW,285,0.0,0.0,95,0.00,,---,0.00,VWS V14.01,2013-05-08 04:32:00,
2013-05-08 00:33:00,55.4,54.0,29.95,WNW,285,1.0,1.0,95,0.00,,---,0.00,VWS V14.01,2013-05-08 04:33:00,
2013-05-08 00:34:00,55.4,54.0,29.95,WNW,285,0.0,1.0,95,0.00,,---,0.00,VWS V14.01,2013-05-08 04:34:00,
2013-05-08 00:35:00,55.4,54.0,29.95,WNW,285,0.0,1.0,95,0.00,,---,0.00,VWS V14.01,2013-05-08 04:35:00,
2013-05-08 00:36:00,55.4,54.0,29.95,WNW,285,0.0,1.0,95,0.00,,---,0.00,VWS V14.01,2013-05-08 04:36:00,
2013-05-08 00:37:00,55.6,54.2,29.95,WNW,285,0.0,1.0,95,0.00,,---,0.00,VWS V14.01,2013-05-08 04:37:00,
2013-05-08 00:38:00,55.6,54.2,29.95,WNW,285,3.0,3.0,95,0.00,,---,0.00,VWS V14.01,2013-05-08 04:38:00,
2013-05-08 00:39:00,55.6,54.2,29.95,WNW,285,0.0,3.0,95,0.00,,---,0.00,VWS V14.01,2013-05-08 04:39:00,
2013-05-08 00:40:00,55.6,54.2,29.95,WNW,285,2.0,3.0,95,0.00,,---,0.00,VWS V14.01,2013-05-08 04:40:00,
2013-05-08 00:41:00,55.6,54.2,29.95,WNW,285,0.0,2.0,95,0.00,,---,0.00,VWS V14.01,2013-05-08 04:41:00,
2013-05-08 00:42:00,55.7,54.3,29.95,West,264,2.0,4.0,95,0.00,,---,0.00,VWS V14.01,2013-05-08 04:42:00,
2013-05-08 00:43:00,55.7,54.3,29.95,West,265,3.0,5.0,95,0.00,,---,0.00,VWS V14.01,2013-05-08 04:43:00,
2013-05-08 00:44:00,55.7,54.3,29.95,West,265,0.0,5.0,95,0.00,,---,0.00,VWS V14.01,2013-05-08 04:44:00,
2013-05-08 00:45:00,55.9,54.5,29.94,West,265,0.0,5.0,95,0.00,,---,0.00,VWS V14.01,2013-05-08 04:45:00,
2013-05-08 00:46:00,56.0,54.6,29.94,West,265,3.0,5.0,95,0.00,,---,0.00,VWS V14.01,2013-05-08 04:46:00,
2013-05-08 00:47:00,56.2,54.8,29.94,West,272,0.0,5.0,95,0.00,,---,0.00,VWS V14.01,2013-05-08 04:47:00,
2013-05-08 00:48:00,56.2,54.8,29.94,West,272,2.0,5.0,95,0.00,,---,0.00,VWS V14.01,2013-05-08 04:48:00,
2013-05-08 00:49:00,56.3,54.6,29.94,West,272,2.0,5.0,94,0.00,,---,0.00,VWS V14.01,2013-05-08 04:49:00,
2013-05-08 00:50:00,56.5,54.8,29.94,West,272,3.0,5.0,94,0.00,,---,0.00,VWS V14.01,2013-05-08 04:50:00,
2013-05-08 00:51:00,56.6,54.9,29.94,West,275,7.0,7.0,94,0.00,,---,0.00,VWS V14.01,2013-05-08 04:51:00,
2013-05-08 00:52:00,56.6,54.9,29.94,West,275,7.0,7.0,94,0.00,,---,0.00,VWS V14.01,2013-05-08 04:52:00,
2013-05-08 00:53:00,56.9,55.2,29.94,West,266,0.0,7.0,94,0.00,,---,0.00,VWS V14.01,2013-05-08 04:53:00,
2013-05-08 00:54:00,57.0,55.0,29.94,West,266,0.0,7.0,93,0.00,,---,0.00,VWS V14.01,2013-05-08 04:54:00,
2013-05-08 00:55:00,57.0,55.0,29.94,West,274,1.0,7.0,93,0.00,,---,0.00,VWS V14.01,2013-05-08 04:55:00,
2013-05-08 00:56:00,57.0,55.0,29.94,West,274,0.0,7.0,93,0.00,,---,0.00,VWS V14.01,2013-05-08 04:56:00,
2013-05-08 00:57:00,57.2,55.2,29.94,West,275,1.0,7.0,93,0.00,,---,0.00,VWS V14.01,2013-05-08 04:57:00,
2013-05-08 00:58:00,57.2,55.2,29.94,West,275,0.0,7.0,93,0.00,,---,0.00,VWS V14.01,2013-05-08 04:58:00,
2013-05-08 00:59:00,57.3,55.0,29.94,West,275,0.0,7.0,92,0.00,,---,0.00,VWS V14.01,2013-05-08 04:59:00,
2013-05-08 01:00:00,57.3,55.0,29.94,West,275,0.0,7.0,92,0.00,,---,0.00,VWS V14.01,2013-05-08 05:00:00,
2013-05-08 01:01:00,57.3,54.7,29.94,West,275,0.0,0.0,91,0.00,,---,0.00,VWS V14.01,2013-05-08 05:01:00,
2013-05-08 01:02:00,57.3,54.7,29.94,West,275,0.0,5.0,91,0.00,,---,0.00,VWS V14.01,2013-05-08 05:02:00,
2013-05-08 01:03:00,57.3,54.4,29.94,West,275,0.0,5.0,90,0.00,,---,0.00,VWS V14.01,2013-05-08 05:03:00,
2013-05-08 01:04:00,57.3,54.4,29.94,West,275,0.0,5.0,90,0.00,,---,0.00,VWS V14.01,2013-05-08 05:04:00,
2013-05-08 01:05:00,57.3,54.4,29.94,West,275,0.0,5.0,90,0.00,,---,0.00,VWS V14.01,2013-05-08 05:05:00,
2013-05-08 01:06:00,57.5,54.6,29.94,West,275,0.0,5.0,90,0.00,,---,0.00,VWS V14.01,2013-05-08 05:06:00,
2013-05-08 01:07:00,57.5,54.6,29.94,West,275,0.0,5.0,90,0.00,,---,0.00,VWS V14.01,2013-05-08 05:07:00,
2013-05-08 01:08:00,57.5,54.6,29.94,West,275,0.0,5.0,90,0.00,,---,0.00,VWS V14.01,2013-05-08 05:08:00,
2013-05-08 01:09:00,57.5,54.6,29.94,West,275,0.0,5.0,90,0.00,,---,0.00,VWS V14.01,2013-05-08 05:09:00,
2013-05-08 01:10:00,57.5,54.6,29.94,West,275,0.0,5.0,90,0.00,,---,0.00,VWS V14.01,2013-05-08 05:10:00,
2013-05-08 01:11:00,57.5,54.0,29.94,West,275,0.0,0.0,88,0.00,,---,0.00,VWS V14.01,2013-05-08 05:11:00,
2013-05-08 01:12:00,57.5,54.0,29.94,West,275,0.0,1.0,88,0.00,,---,0.00,VWS V14.01,2013-05-08 05:12:00,
2013-05-08 01:13:00,57.5,53.7,29.94,West,275,2.0,2.0,87,0.00,,---,0.00,VWS V14.01,2013-05-08 05:13:00,
2013-05-08 01:14:00,57.5,53.7,29.94,West,274,0.0,4.0,87,0.00,,---,0.00,VWS V14.01,2013-05-08 05:14:00,
2013-05-08 01:15:00,57.6,53.8,29.94,West,274,0.0,4.0,87,0.00,,---,0.00,VWS V14.01,2013-05-08 05:15:00,
2013-05-08 01:16:00,57.6,53.8,29.94,West,274,0.0,4.0,87,0.00,,---,0.00,VWS V14.01,2013-05-08 05:16:00,
2013-05-08 01:17:00,58.0,54.2,29.94,West,274,0.0,4.0,87,0.00,,---,0.00,VWS V14.01,2013-05-08 05:17:00,
2013-05-08 01:18:00,58.0,54.2,29.94,West,274,0.0,4.0,87,0.00,,---,0.00,VWS V14.01,2013-05-08 05:18:00,
2013-05-08 01:19:00,58.1,53.9,29.94,West,275,0.0,4.0,86,0.00,,---,0.00,VWS V14.01,2013-05-08 05:19:00,
2013-05-08 01:20:00,58.1,53.9,29.94,West,275,1.0,4.0,86,0.00,,---,0.00,VWS V14.01,2013-05-08 05:20:00,
2013-05-08 01:21:00,58.3,54.1,29.94,West,275,0.0,1.0,86,0.00,,---,0.00,VWS V14.01,2013-05-08 05:21:00,
2013-05-08 01:22:00,58.4,53.9,29.94,West,275,0.0,1.0,85,0.00,,---,0.00,VWS V14.01,2013-05-08 05:22:00,
2013-05-08 01:23:00,58.6,54.1,29.94,West,264,0.0,2.0,85,0.00,,---,0.00,VWS V14.01,2013-05-08 05:23:00,
2013-05-08 01:24:00,58.7,54.2,29.94,West,276,2.0,2.0,85,0.00,,---,0.00,VWS V14.01,2013-05-08 05:24:00,
2013-05-08 01:25:00,58.7,53.9,29.94,West,274,0.0,3.0,84,0.00,,---,0.00,VWS V14.01,2013-05-08 05:25:00,
2013-05-08 01:26:00,58.9,54.1,29.94,West,274,0.0,3.0,84,0.00,,---,0.00,VWS V14.01,2013-05-08 05:26:00,
2013-05-08 01:27:00,58.9,54.1,29.94,West,274,0.0,3.0,84,0.00,,---,0.00,VWS V14.01,2013-05-08 05:27:00,
2013-05-08 01:28:00,58.9,54.1,29.94,West,274,0.0,3.0,84,0.00,,---,0.00,VWS V14.01,2013-05-08 05:28:00,
2013-05-08 01:29:00,58.9,53.4,29.94,West,274,0.0,3.0,82,0.00,,---,0.00,VWS V14.01,2013-05-08 05:29:00,
2013-05-08 01:30:00,58.9,53.4,29.93,WNW,288,0.0,3.0,82,0.00,,---,0.00,VWS V14.01,2013-05-08 05:30:00,
2013-05-08 01:31:00,58.9,53.1,29.93,WNW,288,1.0,3.0,81,0.00,,---,0.00,VWS V14.01,2013-05-08 05:31:00,
2013-05-08 01:32:00,58.9,52.8,29.93,WNW,288,0.0,3.0,80,0.00,,---,0.00,VWS V14.01,2013-05-08 05:32:00,
2013-05-08 01:33:00,58.9,52.8,29.93,WNW,288,0.0,3.0,80,0.00,,---,0.00,VWS V14.01,2013-05-08 05:33:00,
2013-05-08 01:34:00,59.0,53.2,29.93,WNW,288,0.0,3.0,81,0.00,,---,0.00,VWS V14.01,2013-05-08 05:34:00,
2013-05-08 01:35:00,59.2,53.4,29.93,WNW,288,0.0,3.0,81,0.00,,---,0.00,VWS V14.01,2013-05-08 05:35:00,
2013-05-08 01:36:00,59.3,53.5,29.93,WNW,288,0.0,3.0,81,0.00,,---,0.00,VWS V14.01,2013-05-08 05:36:00,
2013-05-08 01:37:00,59.5,53.7,29.93,WNW,288,0.0,3.0,81,0.00,,---,0.00,VWS V14.01,2013-05-08 05:37:00,
2013-05-08 01:38:00,59.6,53.8,29.93,WNW,288,0.0,3.0,81,0.00,,---,0.00,VWS V14.01,2013-05-08 05:38:00,
2013-05-08 01:39:00,59.6,53.8,29.93,WNW,288,0.0,3.0,81,0.00,,---,0.00,VWS V14.01,2013-05-08 05:39:00,
2013-05-08 01:40:00,59.6,53.4,29.93,WNW,288,0.0,3.0,80,0.00,,---,0.00,VWS V14.01,2013-05-08 05:40:00,
2013-05-08 01:41:00,59.8,53.3,29.93,WNW,288,0.0,0.0,79,0.00,,---,0.00,VWS V14.01,2013-05-08 05:41:00,
2013-05-08 01:42:00,59.8,53.3,29.93,WNW,288,0.0,0.0,79,0.00,,---,0.00,VWS V14.01,2013-05-08 05:42:00,
2013-05-08 01:43:00,59.8,53.3,29.93,WNW,288,0.0,0.0,79,0.00,,---,0.00,VWS V14.01,2013-05-08 05:43:00,
2013-05-08 01:44:00,59.9,53.4,29.93,WNW,288,0.0,0.0,79,0.00,,---,0.00,VWS V14.01,2013-05-08 05:44:00,
2013-05-08 01:45:00,59.9,53.0,29.93,WNW,285,0.0,0.0,78,0.00,,---,0.00,VWS V14.01,2013-05-08 05:45:00,
2013-05-08 01:46:00,59.9,53.0,29.93,West,262,2.0,3.0,78,0.00,,---,0.00,VWS V14.01,2013-05-08 05:46:00,
2013-05-08 01:47:00,60.1,53.2,29.93,WNW,303,0.0,5.0,78,0.00,,---,0.00,VWS V14.01,2013-05-08 05:47:00,
2013-05-08 01:48:00,60.1,53.2,29.93,WNW,303,0.0,5.0,78,0.00,,---,0.00,VWS V14.01,2013-05-08 05:48:00,
2013-05-08 01:49:00,60.2,53.0,29.93,WNW,303,0.0,5.0,77,0.00,,---,0.00,VWS V14.01,2013-05-08 05:49:00,
2013-05-08 01:50:00,60.4,53.2,29.93,WNW,303,2.0,5.0,77,0.00,,---,0.00,VWS V14.01,2013-05-08 05:50:00,
2013-05-08 01:51:00,60.5,53.3,29.93,WNW,303,3.0,3.0,77,0.00,,---,0.00,VWS V14.01,2013-05-08 05:51:00,
2013-05-08 01:52:00,60.5,53.3,29.93,WNW,303,0.0,3.0,77,0.00,,---,0.00,VWS V14.01,2013-05-08 05:52:00,
2013-05-08 01:53:00,60.7,53.5,29.93,WNW,303,0.0,3.0,77,0.00,,---,0.00,VWS V14.01,2013-05-08 05:53:00,
2013-05-08 01:54:00,60.7,53.1,29.93,WNW,296,4.0,4.0,76,0.00,,---,0.00,VWS V14.01,2013-05-08 05:54:00,
2013-05-08 01:55:00,60.9,52.9,29.93,WNW,292,4.0,7.0,75,0.00,,---,0.00,VWS V14.01,2013-05-08 05:55:00,
2013-05-08 01:56:00,60.9,52.9,29.93,West,268,1.0,7.0,75,0.00,,---,0.00,VWS V14.01,2013-05-08 05:56:00,
2013-05-08 01:57:00,61.0,53.0,29.93,West,268,3.0,7.0,75,0.00,,---,0.00,VWS V14.01,2013-05-08 05:57:00,
2013-05-08 01:58:00,61.0,52.7,29.93,West,268,2.0,7.0,74,0.00,,---,0.00,VWS V14.01,2013-05-08 05:58:00,
2013-05-08 01:59:00,61.2,53.2,29.93,WNW,288,6.0,7.0,75,0.00,,---,0.00,VWS V14.01,2013-05-08 05:59:00,
2013-05-08 02:00:00,61.2,53.2,29.93,WNW,288,0.0,7.0,75,0.00,,---,0.00,VWS V14.01,2013-05-08 06:00:00,
2013-05-08 02:01:00,61.3,52.6,29.93,WNW,288,0.0,0.0,73,0.00,,---,0.00,VWS V14.01,2013-05-08 06:01:00,
2013-05-08 02:02:00,61.3,52.6,29.93,WNW,288,0.0,0.0,73,0.00,,---,0.00,VWS V14.01,2013-05-08 06:02:00,
2013-05-08 02:03:00,61.3,52.6,29.93,WNW,288,0.0,0.0,73,0.00,,---,0.00,VWS V14.01,2013-05-08 06:03:00,
2013-05-08 02:04:00,61.3,52.6,29.93,WNW,288,0.0,0.0,73,0.00,,---,0.00,VWS V14.01,2013-05-08 06:04:00,
2013-05-08 02:05:00,61.3,52.6,29.93,WNW,288,0.0,0.0,73,0.00,,---,0.00,VWS V14.01,2013-05-08 06:05:00,
2013-05-08 02:06:00,61.3,52.6,29.93,WNW,288,0.0,0.0,73,0.00,,---,0.00,VWS V14.01,2013-05-08 06:06:00,
2013-05-08 02:07:00,61.3,52.6,29.93,WNW,288,2.0,2.0,73,0.00,,---,0.00,VWS V14.01,2013-05-08 06:07:00,
2013-05-08 02:08:00,61.3,52.2,29.93,WNW,288,3.0,3.0,72,0.00,,---,0.00,VWS V14.01,2013-05-08 06:08:00,
2013-05-08 02:09:00,61.3,52.2,29.93,WNW,288,0.0,3.0,72,0.00,,---,0.00,VWS V14.01,2013-05-08 06:09:00,
2013-05-08 02:10:00,61.3,52.2,29.93,WNW,288,3.0,3.0,72,0.00,,---,0.00,VWS V14.01,2013-05-08 06:10:00,
2013-05-08 02:11:00,61.3,52.2,29.93,NW,309,0.0,5.0,72,0.00,,---,0.00,VWS V14.01,2013-05-08 06:11:00,
2013-05-08 02:12:00,61.3,52.2,29.93,NW,309,0.0,5.0,72,0.00,,---,0.00,VWS V14.01,2013-05-08 06:12:00,
2013-05-08 02:13:00,61.3,52.2,29.93,NW,309,0.0,5.0,72,0.00,,---,0.00,VWS V14.01,2013-05-08 06:13:00,
2013-05-08 02:14:00,61.2,52.1,29.93,NW,309,0.0,5.0,72,0.00,,---,0.00,VWS V14.01,2013-05-08 06:14:00,
2013-05-08 02:15:00,61.2,52.1,29.93,NW,309,0.0,5.0,72,0.00,,---,0.00,VWS V14.01,2013-05-08 06:15:00,
2013-05-08 02:16:00,61.2,52.1,29.93,NW,309,0.0,5.0,72,0.00,,---,0.00,VWS V14.01,2013-05-08 06:16:00,
2013-05-08 02:17:00,61.2,52.1,29.93,NW,309,0.0,5.0,72,0.00,,---,0.00,VWS V14.01,2013-05-08 06:17:00,
2013-05-08 02:18:00,61.2,52.1,29.93,NW,309,0.0,5.0,72,0.00,,---,0.00,VWS V14.01,2013-05-08 06:18:00,
2013-05-08 02:19:00,61.2,52.1,29.93,NW,309,0.0,5.0,72,0.00,,---,0.00,VWS V14.01,2013-05-08 06:19:00,
2013-05-08 02:20:00,61.0,52.3,29.93,NW,309,0.0,5.0,73,0.00,,---,0.00,VWS V14.01,2013-05-08 06:20:00,
2013-05-08 02:21:00,61.0,52.3,29.93,NW,309,0.0,0.0,73,0.00,,---,0.00,VWS V14.01,2013-05-08 06:21:00,
2013-05-08 02:22:00,61.0,52.3,29.93,NW,309,0.0,0.0,73,0.00,,---,0.00,VWS V14.01,2013-05-08 06:22:00,
2013-05-08 02:23:00,61.0,52.3,29.93,WNW,299,0.0,0.0,73,0.00,,---,0.00,VWS V14.01,2013-05-08 06:23:00,
2013-05-08 02:24:00,61.0,52.3,29.93,WNW,299,0.0,0.0,73,0.00,,---,0.00,VWS V14.01,2013-05-08 06:24:00,
2013-05-08 02:25:00,61.0,52.3,29.93,WNW,299,0.0,0.0,73,0.00,,---,0.00,VWS V14.01,2013-05-08 06:25:00,
2013-05-08 02:26:00,61.0,52.3,29.93,WNW,299,0.0,0.0,73,0.00,,---,0.00,VWS V14.01,2013-05-08 06:26:00,
2013-05-08 02:27:00,61.0,52.3,29.93,WNW,299,0.0,0.0,73,0.00,,---,0.00,VWS V14.01,2013-05-08 06:27:00,
2013-05-08 02:28:00,60.9,52.2,29.93,WNW,299,0.0,0.0,73,0.00,,---,0.00,VWS V14.01,2013-05-08 06:28:00,
2013-05-08 02:29:00,60.9,52.2,29.93,WNW,299,0.0,0.0,73,0.00,,---,0.00,VWS V14.01,2013-05-08 06:29:00,
2013-05-08 02:30:00,61.0,52.3,29.93,WNW,299,0.0,0.0,73,0.00,,---,0.00,VWS V14.01,2013-05-08 06:30:00,
2013-05-08 02:31:00,61.0,52.3,29.93,WSW,258,1.0,1.0,73,0.00,,---,0.00,VWS V14.01,2013-05-08 06:31:00,
2013-05-08 02:32:00,61.0,52.3,29.93,WSW,258,3.0,3.0,73,0.00,,---,0.00,VWS V14.01,2013-05-08 06:32:00,
2013-05-08 02:33:00,61.0,52.3,29.93,WSW,258,0.0,3.0,73,0.00,,---,0.00,VWS V14.01,2013-05-08 06:33:00,
2013-05-08 02:34:00,61.0,51.9,29.93,WSW,258,0.0,3.0,72,0.00,,---,0.00,VWS V14.01,2013-05-08 06:34:00,
2013-05-08 02:35:00,61.0,52.3,29.93,WSW,258,0.0,3.0,73,0.00,,---,0.00,VWS V14.01,2013-05-08 06:35:00,
2013-05-08 02:36:00,61.0,52.3,29.93,WSW,258,0.0,3.0,73,0.00,,---,0.00,VWS V14.01,2013-05-08 06:36:00,
2013-05-08 02:37:00,61.2,52.9,29.93,WSW,258,0.0,3.0,74,0.00,,---,0.00,VWS V14.01,2013-05-08 06:37:00,
2013-05-08 02:38:00,61.2,52.9,29.93,WSW,258,0.0,3.0,74,0.00,,---,0.00,VWS V14.01,2013-05-08 06:38:00,
2013-05-08 02:39:00,61.2,52.5,29.93,West,279,3.0,3.0,73,0.00,,---,0.00,VWS V14.01,2013-05-08 06:39:00,
2013-05-08 02:40:00,61.2,52.9,29.93,WSW,251,6.0,6.0,74,0.00,,---,0.00,VWS V14.01,2013-05-08 06:40:00,
2013-05-08 02:41:00,61.2,52.9,29.93,SW,234,3.0,6.0,74,0.00,,---,0.00,VWS V14.01,2013-05-08 06:41:00,
2013-05-08 02:42:00,61.2,52.1,29.93,SW,233,1.0,6.0,72,0.00,,---,0.00,VWS V14.01,2013-05-08 06:42:00,
2013-05-08 02:43:00,61.2,52.5,29.93,SW,233,0.0,6.0,73,0.00,,---,0.00,VWS V14.01,2013-05-08 06:43:00,
2013-05-08 02:44:00,61.3,52.6,29.93,SW,234,0.0,6.0,73,0.00,,---,0.00,VWS V14.01,2013-05-08 06:44:00,
2013-05-08 02:45:00,61.3,53.0,29.93,SW,233,0.0,6.0,74,0.00,,---,0.00,VWS V14.01,2013-05-08 06:45:00,
2013-05-08 02:46:00,61.3,52.6,29.93,SW,233,0.0,6.0,73,0.00,,---,0.00,VWS V14.01,2013-05-08 06:46:00,
2013-05-08 02:47:00,61.3,52.6,29.93,WSW,254,4.0,6.0,73,0.00,,---,0.00,VWS V14.01,2013-05-08 06:47:00,
2013-05-08 02:48:00,61.3,52.6,29.93,WSW,254,0.0,6.0,73,0.00,,---,0.00,VWS V14.01,2013-05-08 06:48:00,
2013-05-08 02:49:00,61.3,52.6,29.93,WSW,254,0.0,6.0,73,0.00,,---,0.00,VWS V14.01,2013-05-08 06:49:00,
2013-05-08 02:50:00,61.3,52.6,29.93,WSW,254,0.0,6.0,73,0.00,,---,0.00,VWS V14.01,2013-05-08 06:50:00,
2013-05-08 02:51:00,61.3,52.6,29.93,WSW,254,0.0,0.0,73,0.00,,---,0.00,VWS V14.01,2013-05-08 06:51:00,
2013-05-08 02:52:00,61.3,52.2,29.93,WSW,254,3.0,5.0,72,0.00,,---,0.00,VWS V14.01,2013-05-08 06:52:00,
2013-05-08 02:53:00,61.3,52.2,29.93,WSW,254,2.0,5.0,72,0.00,,---,0.00,VWS V14.01,2013-05-08 06:53:00,
2013-05-08 02:54:00,61.3,52.2,29.93,WSW,254,0.0,5.0,72,0.00,,---,0.00,VWS V14.01,2013-05-08 06:54:00,
2013-05-08 02:55:00,61.3,52.2,29.93,WSW,254,0.0,5.0,72,0.00,,---,0.00,VWS V14.01,2013-05-08 06:55:00,
2013-05-08 02:56:00,61.3,52.2,29.93,West,266,2.0,7.0,72,0.00,,---,0.00,VWS V14.01,2013-05-08 06:56:00,
2013-05-08 02:57:00,61.3,52.2,29.93,West,266,1.0,7.0,72,0.00,,---,0.00,VWS V14.01,2013-05-08 06:57:00,
2013-05-08 02:58:00,61.5,52.4,29.93,West,266,2.0,7.0,72,0.00,,---,0.00,VWS V14.01,2013-05-08 06:58:00,
2013-05-08 02:59:00,61.5,52.4,29.93,West,266,4.0,7.0,72,0.00,,---,0.00,VWS V14.01,2013-05-08 06:59:00,
2013-05-08 03:00:00,61.5,52.4,29.92,West,266,2.0,7.0,72,0.00,,---,0.00,VWS V14.01,2013-05-08 07:00:00,
2013-05-08 03:01:00,61.5,52.4,29.92,West,266,0.0,5.0,72,0.00,,---,0.00,VWS V14.01,2013-05-08 07:01:00,
2013-05-08 03:02:00,61.5,52.4,29.92,West,266,0.0,5.0,72,0.00,,---,0.00,VWS V14.01,2013-05-08 07:02:00,
2013-05-08 03:03:00,61.5,52.4,29.92,West,271,4.0,6.0,72,0.00,,---,0.00,VWS V14.01,2013-05-08 07:03:00,
2013-05-08 03:04:00,61.5,52.4,29.92,West,271,0.0,6.0,72,0.00,,---,0.00,VWS V14.01,2013-05-08 07:04:00,
2013-05-08 03:05:00,61.5,52.0,29.92,West,271,0.0,6.0,71,0.00,,---,0.00,VWS V14.01,2013-05-08 07:05:00,
2013-05-08 03:06:00,61.5,52.0,29.92,West,271,4.0,6.0,71,0.00,,---,0.00,VWS V14.01,2013-05-08 07:06:00,
2013-05-08 03:07:00,61.5,52.0,29.92,WSW,258,3.0,6.0,71,0.00,,---,0.00,VWS V14.01,2013-05-08 07:07:00,
2013-05-08 03:08:00,61.5,52.0,29.92,West,262,3.0,6.0,71,0.00,,---,0.00,VWS V14.01,2013-05-08 07:08:00,
2013-05-08 03:09:00,61.5,51.6,29.92,West,262,2.0,6.0,70,0.00,,---,0.00,VWS V14.01,2013-05-08 07:09:00,
2013-05-08 03:10:00,61.6,52.1,29.92,West,261,2.0,6.0,71,0.00,,---,0.00,VWS V14.01,2013-05-08 07:10:00,
2013-05-08 03:11:00,61.6,52.1,29.92,West,261,4.0,4.0,71,0.00,,---,0.00,VWS V14.01,2013-05-08 07:11:00,
2013-05-08 03:12:00,61.6,51.7,29.92,WSW,248,3.0,5.0,70,0.00,,---,0.00,VWS V14.01,2013-05-08 07:12:00,
2013-05-08 03:13:00,61.6,51.7,29.92,WSW,248,3.0,5.0,70,0.00,,---,0.00,VWS V14.01,2013-05-08 07:13:00,
2013-05-08 03:14:00,61.8,51.9,29.92,West,272,5.0,5.0,70,0.00,,---,0.00,VWS V14.01,2013-05-08 07:14:00,
2013-05-08 03:15:00,61.8,52.3,29.92,West,272,0.0,5.0,71,0.00,,---,0.00,VWS V14.01,2013-05-08 07:15:00,
2013-05-08 03:16:00,62.0,52.5,29.92,West,272,3.0,5.0,71,0.00,,---,0.00,VWS V14.01,2013-05-08 07:16:00,
2013-05-08 03:17:00,62.1,53.0,29.92,West,272,0.0,5.0,72,0.00,,---,0.00,VWS V14.01,2013-05-08 07:17:00,
2013-05-08 03:18:00,62.1,52.6,29.92,WSW,245,0.0,5.0,71,0.00,,---,0.00,VWS V14.01,2013-05-08 07:18:00,
2013-05-08 03:19:00,62.3,52.8,29.92,WNW,283,2.0,6.0,71,0.00,,---,0.00,VWS V14.01,2013-05-08 07:19:00,
2013-05-08 03:20:00,62.3,52.8,29.92,WNW,283,2.0,6.0,71,0.00,,---,0.00,VWS V14.01,2013-05-08 07:20:00,
2013-05-08 03:21:00,62.6,52.7,29.92,West,268,3.0,6.0,70,0.00,,---,0.00,VWS V14.01,2013-05-08 07:21:00,
2013-05-08 03:22:00,62.6,52.3,29.92,West,281,6.0,7.0,69,0.00,,---,0.00,VWS V14.01,2013-05-08 07:22:00,
2013-05-08 03:23:00,62.7,52.0,29.92,WNW,282,3.0,7.0,68,0.00,,---,0.00,VWS V14.01,2013-05-08 07:23:00,
2013-05-08 03:24:00,62.9,52.2,29.92,WNW,282,0.0,7.0,68,0.00,,---,0.00,VWS V14.01,2013-05-08 07:24:00,
2013-05-08 03:25:00,63.2,53.3,29.92,WNW,282,0.0,7.0,70,0.00,,---,0.00,VWS V14.01,2013-05-08 07:25:00,
2013-05-08 03:26:00,63.4,53.5,29.92,WNW,282,0.0,7.0,70,0.00,,---,0.00,VWS V14.01,2013-05-08 07:26:00,
2013-05-08 03:27:00,63.5,53.5,29.92,WNW,282,0.0,7.0,70,0.00,,---,0.00,VWS V14.01,2013-05-08 07:27:00,
2013-05-08 03:28:00,63.7,53.7,29.92,West,278,0.0,7.0,70,0.00,,---,0.00,VWS V14.01,2013-05-08 07:28:00,
2013-05-08 03:29:00,63.9,53.5,29.92,WSW,254,3.0,7.0,69,0.00,,---,0.00,VWS V14.01,2013-05-08 07:29:00,
2013-05-08 03:30:00,63.9,53.1,29.91,WSW,252,0.0,7.0,68,0.00,,---,0.00,VWS V14.01,2013-05-08 07:30:00,
2013-05-08 03:31:00,64.0,52.4,29.91,WSW,252,0.0,4.0,66,0.00,,---,0.00,VWS V14.01,2013-05-08 07:31:00,
2013-05-08 03:32:00,64.0,52.4,29.91,WSW,254,3.0,6.0,66,0.00,,---,0.00,VWS V14.01,2013-05-08 07:32:00,
2013-05-08 03:33:00,64.2,52.6,29.91,West,261,0.0,6.0,66,0.00,,---,0.00,VWS V14.01,2013-05-08 07:33:00,
2013-05-08 03:34:00,64.2,52.2,29.91,West,262,0.0,6.0,65,0.00,,---,0.00,VWS V14.01,2013-05-08 07:34:00,
2013-05-08 03:35:00,64.0,52.0,29.91,West,272,5.0,6.0,65,0.00,,---,0.00,VWS V14.01,2013-05-08 07:35:00,
2013-05-08 03:36:00,64.0,52.0,29.91,West,274,4.0,6.0,65,0.00,,---,0.00,VWS V14.01,2013-05-08 07:36:00,
2013-05-08 03:37:00,64.0,52.0,29.91,West,278,3.0,7.0,65,0.00,,---,0.00,VWS V14.01,2013-05-08 07:37:00,
2013-05-08 03:38:00,64.0,52.0,29.91,West,278,2.0,7.0,65,0.00,,---,0.00,VWS V14.01,2013-05-08 07:38:00,
2013-05-08 03:39:00,64.0,52.0,29.91,West,278,2.0,7.0,65,0.00,,---,0.00,VWS V14.01,2013-05-08 07:39:00,
2013-05-08 03:40:00,63.9,51.9,29.91,West,278,0.0,7.0,65,0.00,,---,0.00,VWS V14.01,2013-05-08 07:40:00,
2013-05-08 03:41:00,63.9,52.3,29.91,West,278,0.0,0.0,66,0.00,,---,0.00,VWS V14.01,2013-05-08 07:41:00,
2013-05-08 03:42:00,63.9,52.3,29.91,West,278,0.0,0.0,66,0.00,,---,0.00,VWS V14.01,2013-05-08 07:42:00,
2013-05-08 03:43:00,63.9,52.3,29.91,West,278,0.0,0.0,66,0.00,,---,0.00,VWS V14.01,2013-05-08 07:43:00,
2013-05-08 03:44:00,63.7,52.1,29.91,West,278,0.0,0.0,66,0.00,,---,0.00,VWS V14.01,2013-05-08 07:44:00,
2013-05-08 03:45:00,63.7,52.5,29.92,West,278,0.0,0.0,67,0.00,,---,0.00,VWS V14.01,2013-05-08 07:45:00,
2013-05-08 03:46:00,63.7,52.5,29.92,West,278,0.0,1.0,67,0.00,,---,0.00,VWS V14.01,2013-05-08 07:46:00,
2013-05-08 03:47:00,63.7,53.0,29.92,West,278,0.0,1.0,68,0.00,,---,0.00,VWS V14.01,2013-05-08 07:47:00,
2013-05-08 03:48:00,63.7,53.0,29.92,West,275,0.0,1.0,68,0.00,,---,0.00,VWS V14.01,2013-05-08 07:48:00,
2013-05-08 03:49:00,63.5,52.8,29.92,West,275,0.0,1.0,68,0.00,,---,0.00,VWS V14.01,2013-05-08 07:49:00,
2013-05-08 03:50:00,63.5,52.4,29.92,West,276,0.0,1.0,67,0.00,,---,0.00,VWS V14.01,2013-05-08 07:50:00,
2013-05-08 03:51:00,63.5,52.4,29.92,West,276,0.0,1.0,67,0.00,,---,0.00,VWS V14.01,2013-05-08 07:51:00,
2013-05-08 03:52:00,63.4,52.3,29.92,West,276,1.0,1.0,67,0.00,,---,0.00,VWS V14.01,2013-05-08 07:52:00,
2013-05-08 03:53:00,63.4,52.3,29.92,West,275,0.0,1.0,67,0.00,,---,0.00,VWS V14.01,2013-05-08 07:53:00,
2013-05-08 03:54:00,63.4,52.3,29.92,West,276,0.0,1.0,67,0.00,,---,0.00,VWS V14.01,2013-05-08 07:54:00,
2013-05-08 03:55:00,63.2,52.1,29.92,West,278,4.0,4.0,67,0.00,,---,0.00,VWS V14.01,2013-05-08 07:55:00,
2013-05-08 03:56:00,63.2,52.1,29.92,West,278,0.0,4.0,67,0.00,,---,0.00,VWS V14.01,2013-05-08 07:56:00,
2013-05-08 03:57:00,63.2,51.7,29.92,West,276,0.0,6.0,66,0.00,,---,0.00,VWS V14.01,2013-05-08 07:57:00,
2013-05-08 03:58:00,63.1,51.6,29.92,West,276,6.0,6.0,66,0.00,,---,0.00,VWS V14.01,2013-05-08 07:58:00,
2013-05-08 03:59:00,63.1,51.6,29.92,West,272,4.0,7.0,66,0.00,,---,0.00,VWS V14.01,2013-05-08 07:59:00,
2013-05-08 04:00:00,63.1,51.2,29.92,WNW,303,0.0,7.0,65,0.00,,---,0.00,VWS V14.01,2013-05-08 08:00:00,
2013-05-08 04:01:00,62.9,51.4,29.92,WNW,303,0.0,2.0,66,0.00,,---,0.00,VWS V14.01,2013-05-08 08:01:00,
2013-05-08 04:02:00,62.9,51.4,29.92,WNW,303,0.0,2.0,66,0.00,,---,0.00,VWS V14.01,2013-05-08 08:02:00,
2013-05-08 04:03:00,62.9,51.8,29.92,WNW,303,0.0,2.0,67,0.00,,---,0.00,VWS V14.01,2013-05-08 08:03:00,
2013-05-08 04:04:00,62.9,51.8,29.92,WNW,303,0.0,2.0,67,0.00,,---,0.00,VWS V14.01,2013-05-08 08:04:00,
2013-05-08 04:05:00,62.9,51.8,29.92,WNW,303,0.0,2.0,67,0.00,,---,0.00,VWS V14.01,2013-05-08 08:05:00,
2013-05-08 04:06:00,62.7,51.6,29.92,WNW,285,3.0,5.0,67,0.00,,---,0.00,VWS V14.01,2013-05-08 08:06:00,
2013-05-08 04:07:00,62.7,51.6,29.92,WNW,285,0.0,5.0,67,0.00,,---,0.00,VWS V14.01,2013-05-08 08:07:00,
2013-05-08 04:08:00,62.7,52.0,29.92,WNW,285,0.0,5.0,68,0.00,,---,0.00,VWS V14.01,2013-05-08 08:08:00,
2013-05-08 04:09:00,62.7,52.0,29.92,WNW,285,0.0,5.0,68,0.00,,---,0.00,VWS V14.01,2013-05-08 08:09:00,
2013-05-08 04:10:00,62.9,52.2,29.92,WNW,285,0.0,5.0,68,0.00,,---,0.00,VWS V14.01,2013-05-08 08:10:00,
2013-05-08 04:11:00,62.9,52.6,29.92,WNW,285,0.0,0.0,69,0.00,,---,0.00,VWS V14.01,2013-05-08 08:11:00,
2013-05-08 04:12:00,62.9,52.6,29.92,WNW,285,0.0,0.0,69,0.00,,---,0.00,VWS V14.01,2013-05-08 08:12:00,
2013-05-08 04:13:00,62.9,52.6,29.92,West,278,3.0,6.0,69,0.00,,---,0.00,VWS V14.01,2013-05-08 08:13:00,
2013-05-08 04:14:00,62.9,52.6,29.92,West,278,5.0,6.0,69,0.00,,---,0.00,VWS V14.01,2013-05-08 08:14:00,
2013-05-08 04:15:00,62.9,52.6,29.91,West,279,4.0,6.0,69,0.00,,---,0.00,VWS V14.01,2013-05-08 08:15:00,
2013-05-08 04:16:00,62.9,52.2,29.91,West,279,1.0,6.0,68,0.00,,---,0.00,VWS V14.01,2013-05-08 08:16:00,
2013-05-08 04:17:00,63.1,52.4,29.91,West,278,4.0,6.0,68,0.00,,---,0.00,VWS V14.01,2013-05-08 08:17:00,
2013-05-08 04:18:00,63.1,52.0,29.91,West,278,2.0,6.0,67,0.00,,---,0.00,VWS V14.01,2013-05-08 08:18:00,
2013-05-08 04:19:00,63.1,52.0,29.91,West,278,1.0,6.0,67,0.00,,---,0.00,VWS V14.01,2013-05-08 08:19:00,
2013-05-08 04:20:00,63.2,52.5,29.91,West,278,1.0,6.0,68,0.00,,---,0.00,VWS V14.01,2013-05-08 08:20:00,
2013-05-08 04:21:00,63.2,52.1,29.91,West,278,4.0,5.0,67,0.00,,---,0.00,VWS V14.01,2013-05-08 08:21:00,
2013-05-08 04:22:00,63.2,51.7,29.91,West,278,0.0,5.0,66,0.00,,---,0.00,VWS V14.01,2013-05-08 08:22:00,
2013-05-08 04:23:00,63.2,51.7,29.91,West,279,0.0,5.0,66,0.00,,---,0.00,VWS V14.01,2013-05-08 08:23:00,
2013-05-08 04:24:00,63.2,51.7,29.91,WNW,290,5.0,7.0,66,0.00,,---,0.00,VWS V14.01,2013-05-08 08:24:00,
2013-05-08 04:25:00,63.2,51.7,29.91,West,268,3.0,7.0,66,0.00,,---,0.00,VWS V14.01,2013-05-08 08:25:00,
2013-05-08 04:26:00,63.4,51.9,29.91,West,259,0.0,7.0,66,0.00,,---,0.00,VWS V14.01,2013-05-08 08:26:00,
2013-05-08 04:27:00,63.4,51.9,29.91,West,259,3.0,7.0,66,0.00,,---,0.00,VWS V14.01,2013-05-08 08:27:00,
2013-05-08 04:28:00,63.4,51.4,29.91,West,259,0.0,7.0,65,0.00,,---,0.00,VWS V14.01,2013-05-08 08:28:00,
2013-05-08 04:29:00,63.4,51.4,29.91,West,259,0.0,7.0,65,0.00,,---,0.00,VWS V14.01,2013-05-08 08:29:00,
2013-05-08 04:30:00,63.5,52.4,29.91,West,261,1.0,7.0,67,0.00,,---,0.00,VWS V14.01,2013-05-08 08:30:00,
2013-05-08 04:31:00,63.5,52.4,29.91,West,261,0.0,2.0,67,0.00,,---,0.00,VWS V14.01,2013-05-08 08:31:00,
2013-05-08 04:32:00,63.7,52.5,29.91,West,261,0.0,2.0,67,0.00,,---,0.00,VWS V14.01,2013-05-08 08:32:00,
2013-05-08 04:33:00,63.7,52.5,29.91,West,261,0.0,2.0,67,0.00,,---,0.00,VWS V14.01,2013-05-08 08:33:00,
2013-05-08 04:34:00,63.9,52.7,29.91,West,265,6.0,6.0,67,0.00,,---,0.00,VWS V14.01,2013-05-08 08:34:00,
2013-05-08 04:35:00,63.9,51.9,29.91,West,266,0.0,6.0,65,0.00,,---,0.00,VWS V14.01,2013-05-08 08:35:00,
2013-05-08 04:36:00,63.9,51.9,29.91,West,266,0.0,6.0,65,0.00,,---,0.00,VWS V14.01,2013-05-08 08:36:00,
2013-05-08 04:37:00,63.9,51.9,29.91,West,266,0.0,6.0,65,0.00,,---,0.00,VWS V14.01,2013-05-08 08:37:00,
2013-05-08 04:38:00,63.9,51.9,29.91,WSW,251,5.0,6.0,65,0.00,,---,0.00,VWS V14.01,2013-05-08 08:38:00,
2013-05-08 04:39:00,63.9,51.9,29.91,WSW,251,5.0,6.0,65,0.00,,---,0.00,VWS V14.01,2013-05-08 08:39:00,
2013-05-08 04:40:00,63.9,51.9,29.91,WNW,290,5.0,8.0,65,0.00,,---,0.00,VWS V14.01,2013-05-08 08:40:00,
2013-05-08 04:41:00,63.9,51.9,29.91,WNW,282,7.0,7.0,65,0.00,,---,0.00,VWS V14.01,2013-05-08 08:41:00,
2013-05-08 04:42:00,63.9,51.9,29.91,West,275,1.0,7.0,65,0.00,,---,0.00,VWS V14.01,2013-05-08 08:42:00,
2013-05-08 04:43:00,63.9,51.5,29.91,West,275,4.0,7.0,64,0.00,,---,0.00,VWS V14.01,2013-05-08 08:43:00,
2013-05-08 04:44:00,63.9,51.5,29.91,WSW,254,2.0,7.0,64,0.00,,---,0.00,VWS V14.01,2013-05-08 08:44:00,
2013-05-08 04:45:00,64.0,51.6,29.91,WSW,252,1.0,7.0,64,0.00,,---,0.00,VWS V14.01,2013-05-08 08:45:00,
2013-05-08 04:46:00,64.0,51.6,29.91,WSW,252,0.0,7.0,64,0.00,,---,0.00,VWS V14.01,2013-05-08 08:46:00,
2013-05-08 04:47:00,64.0,52.4,29.91,WSW,254,0.0,7.0,66,0.00,,---,0.00,VWS V14.01,2013-05-08 08:47:00,
2013-05-08 04:48:00,64.2,52.6,29.91,WSW,254,0.0,7.0,66,0.00,,---,0.00,VWS V14.01,2013-05-08 08:48:00,
2013-05-08 04:49:00,64.2,53.0,29.91,WSW,255,0.0,7.0,67,0.00,,---,0.00,VWS V14.01,2013-05-08 08:49:00,
2013-05-08 04:50:00,64.2,52.2,29.91,WNW,300,0.0,7.0,65,0.00,,---,0.00,VWS V14.01,2013-05-08 08:50:00,
2013-05-08 04:51:00,64.3,52.3,29.91,WNW,300,0.0,0.0,65,0.00,,---,0.00,VWS V14.01,2013-05-08 08:51:00,
2013-05-08 04:52:00,64.5,52.5,29.91,WNW,298,0.0,6.0,65,0.00,,---,0.00,VWS V14.01,2013-05-08 08:52:00,
2013-05-08 04:53:00,64.5,52.1,29.91,WNW,302,4.0,6.0,64,0.00,,---,0.00,VWS V14.01,2013-05-08 08:53:00,
2013-05-08 04:54:00,64.7,52.3,29.91,WNW,302,4.0,6.0,64,0.00,,---,0.00,VWS V14.01,2013-05-08 08:54:00,
2013-05-08 04:55:00,64.7,51.8,29.91,WNW,303,3.0,6.0,63,0.00,,---,0.00,VWS V14.01,2013-05-08 08:55:00,
2013-05-08 04:56:00,64.8,51.9,29.91,West,271,4.0,6.0,63,0.00,,---,0.00,VWS V14.01,2013-05-08 08:56:00,
2013-05-08 04:57:00,64.8,51.9,29.91,West,271,4.0,6.0,63,0.00,,---,0.00,VWS V14.01,2013-05-08 08:57:00,
2013-05-08 04:58:00,64.8,51.9,29.91,West,271,4.0,6.0,63,0.00,,---,0.00,VWS V14.01,2013-05-08 08:58:00,
2013-05-08 04:59:00,65.0,52.1,29.91,WNW,285,0.0,6.0,63,0.00,,---,0.00,VWS V14.01,2013-05-08 08:59:00,
2013-05-08 05:00:00,65.0,52.1,29.90,West,265,0.0,6.0,63,0.00,,---,0.00,VWS V14.01,2013-05-08 09:00:00,
2013-05-08 05:01:00,65.2,52.7,29.90,West,265,0.0,1.0,64,0.00,,---,0.00,VWS V14.01,2013-05-08 09:01:00,
2013-05-08 05:02:00,65.2,52.3,29.90,West,271,1.0,1.0,63,0.00,,---,0.00,VWS V14.01,2013-05-08 09:02:00,
2013-05-08 05:03:00,65.3,52.4,29.90,West,271,3.0,3.0,63,0.00,,---,0.00,VWS V14.01,2013-05-08 09:03:00,
2013-05-08 05:04:00,65.3,52.4,29.90,SW,231,3.0,8.0,63,0.00,,---,0.00,VWS V14.01,2013-05-08 09:04:00,
2013-05-08 05:05:00,65.3,52.4,29.90,SW,235,3.0,8.0,63,0.00,,---,0.00,VWS V14.01,2013-05-08 09:05:00,
2013-05-08 05:06:00,65.5,53.0,29.90,SW,235,0.0,8.0,64,0.00,,---,0.00,VWS V14.01,2013-05-08 09:06:00,
2013-05-08 05:07:00,65.5,52.6,29.90,West,268,6.0,8.0,63,0.00,,---,0.00,VWS V14.01,2013-05-08 09:07:00,
2013-05-08 05:08:00,65.6,52.7,29.90,West,281,3.0,8.0,63,0.00,,---,0.00,VWS V14.01,2013-05-08 09:08:00,
2013-05-08 05:09:00,65.6,52.2,29.90,West,281,0.0,8.0,62,0.00,,---,0.00,VWS V14.01,2013-05-08 09:09:00,
2013-05-08 05:10:00,65.6,52.2,29.90,West,281,0.0,8.0,62,0.00,,---,0.00,VWS V14.01,2013-05-08 09:10:00,
2013-05-08 05:11:00,65.8,52.4,29.90,West,281,0.0,0.0,62,0.00,,---,0.00,VWS V14.01,2013-05-08 09:11:00,
2013-05-08 05:12:00,65.8,52.4,29.90,West,281,0.0,1.0,62,0.00,,---,0.00,VWS V14.01,2013-05-08 09:12:00,
2013-05-08 05:13:00,65.8,52.4,29.90,West,281,0.0,1.0,62,0.00,,---,0.00,VWS V14.01,2013-05-08 09:13:00,
2013-05-08 05:14:00,66.0,52.6,29.90,West,281,0.0,2.0,62,0.00,,---,0.00,VWS V14.01,2013-05-08 09:14:00,
2013-05-08 05:15:00,66.0,52.6,29.91,NW,310,7.0,7.0,62,0.00,,---,0.00,VWS V14.01,2013-05-08 09:15:00,
2013-05-08 05:16:00,66.0,52.2,29.91,NW,310,2.0,7.0,61,0.00,,---,0.00,VWS V14.01,2013-05-08 09:16:00,
2013-05-08 05:17:00,66.0,51.3,29.91,NW,310,0.0,7.0,59,0.00,,---,0.00,VWS V14.01,2013-05-08 09:17:00,
2013-05-08 05:18:00,66.0,51.3,29.91,NW,310,0.0,7.0,59,0.00,,---,0.00,VWS V14.01,2013-05-08 09:18:00,
2013-05-08 05:19:00,66.0,51.7,29.91,NW,310,0.0,7.0,60,0.00,,---,0.00,VWS V14.01,2013-05-08 09:19:00,
2013-05-08 05:20:00,66.1,52.3,29.91,NW,305,6.0,7.0,61,0.00,,---,0.00,VWS V14.01,2013-05-08 09:20:00,
2013-05-08 05:21:00,66.1,51.8,29.91,WNW,282,1.0,6.0,60,0.00,,---,0.00,VWS V14.01,2013-05-08 09:21:00,
2013-05-08 05:22:00,66.1,51.4,29.91,WNW,299,3.0,6.0,59,0.00,,---,0.00,VWS V14.01,2013-05-08 09:22:00,
2013-05-08 05:23:00,66.1,51.4,29.91,WNW,299,0.0,6.0,59,0.00,,---,0.00,VWS V14.01,2013-05-08 09:23:00,
2013-05-08 05:24:00,66.1,51.4,29.91,WNW,299,0.0,6.0,59,0.00,,---,0.00,VWS V14.01,2013-05-08 09:24:00,
2013-05-08 05:25:00,66.1,52.7,29.91,WNW,283,0.0,6.0,62,0.00,,---,0.00,VWS V14.01,2013-05-08 09:25:00,
2013-05-08 05:26:00,66.1,52.3,29.91,West,274,2.0,6.0,61,0.00,,---,0.00,VWS V14.01,2013-05-08 09:26:00,
2013-05-08 05:27:00,66.1,51.8,29.91,West,274,0.0,6.0,60,0.00,,---,0.00,VWS V14.01,2013-05-08 09:27:00,
2013-05-08 05:28:00,66.0,51.7,29.91,West,276,0.0,6.0,60,0.00,,---,0.00,VWS V14.01,2013-05-08 09:28:00,
2013-05-08 05:29:00,66.0,51.7,29.91,WNW,300,0.0,6.0,60,0.00,,---,0.00,VWS V14.01,2013-05-08 09:29:00,
2013-05-08 05:30:00,66.0,51.7,29.91,NW,312,0.0,6.0,60,0.00,,---,0.00,VWS V14.01,2013-05-08 09:30:00,
2013-05-08 05:31:00,66.0,51.7,29.91,NW,312,0.0,0.0,60,0.00,,---,0.00,VWS V14.01,2013-05-08 09:31:00,
2013-05-08 05:32:00,66.0,51.7,29.91,NW,312,0.0,0.0,60,0.00,,---,0.00,VWS V14.01,2013-05-08 09:32:00,
2013-05-08 05:33:00,66.0,51.7,29.91,NW,312,0.0,0.0,60,0.00,,---,0.00,VWS V14.01,2013-05-08 09:33:00,
2013-05-08 05:34:00,65.8,51.5,29.91,NW,312,0.0,0.0,60,0.00,,---,0.00,VWS V14.01,2013-05-08 09:34:00,
2013-05-08 05:35:00,65.8,51.5,29.91,West,266,5.0,6.0,60,0.00,,---,0.00,VWS V14.01,2013-05-08 09:35:00,
2013-05-08 05:36:00,65.8,51.5,29.91,West,268,3.0,6.0,60,0.00,,---,0.00,VWS V14.01,2013-05-08 09:36:00,
2013-05-08 05:37:00,65.6,50.9,29.91,West,268,0.0,6.0,59,0.00,,---,0.00,VWS V14.01,2013-05-08 09:37:00,
2013-05-08 05:38:00,65.6,50.9,29.91,West,268,0.0,6.0,59,0.00,,---,0.00,VWS V14.01,2013-05-08 09:38:00,
2013-05-08 05:39:00,65.6,51.4,29.91,West,268,0.0,6.0,60,0.00,,---,0.00,VWS V14.01,2013-05-08 09:39:00,
2013-05-08 05:40:00,65.5,51.3,29.91,West,268,0.0,6.0,60,0.00,,---,0.00,VWS V14.01,2013-05-08 09:40:00,
2013-05-08 05:41:00,65.5,51.7,29.91,West,268,0.0,0.0,61,0.00,,---,0.00,VWS V14.01,2013-05-08 09:41:00,
2013-05-08 05:42:00,65.5,51.7,29.91,West,268,0.0,0.0,61,0.00,,---,0.00,VWS V14.01,2013-05-08 09:42:00,
2013-05-08 05:43:00,65.5,52.2,29.91,West,268,0.0,0.0,62,0.00,,---,0.00,VWS V14.01,2013-05-08 09:43:00,
2013-05-08 05:44:00,65.3,52.0,29.91,West,268,0.0,0.0,62,0.00,,---,0.00,VWS V14.01,2013-05-08 09:44:00,
2013-05-08 05:45:00,65.3,52.0,29.91,West,268,3.0,3.0,62,0.00,,---,0.00,VWS V14.01,2013-05-08 09:45:00,
2013-05-08 05:46:00,65.3,51.5,29.91,West,268,3.0,3.0,61,0.00,,---,0.00,VWS V14.01,2013-05-08 09:46:00,
2013-05-08 05:47:00,65.3,51.5,29.91,West,269,1.0,4.0,61,0.00,,---,0.00,VWS V14.01,2013-05-08 09:47:00,
2013-05-08 05:48:00,65.3,51.5,29.91,West,266,3.0,4.0,61,0.00,,---,0.00,VWS V14.01,2013-05-08 09:48:00,
2013-05-08 05:49:00,65.2,51.4,29.91,West,266,0.0,4.0,61,0.00,,---,0.00,VWS V14.01,2013-05-08 09:49:00,
2013-05-08 05:50:00,65.2,51.9,29.91,West,266,0.0,4.0,62,0.00,,---,0.00,VWS V14.01,2013-05-08 09:50:00,
2013-05-08 05:51:00,65.2,51.9,29.91,West,266,0.0,0.0,62,0.00,,---,0.00,VWS V14.01,2013-05-08 09:51:00,
2013-05-08 05:52:00,65.2,51.9,29.91,West,279,3.0,6.0,62,0.00,,---,0.00,VWS V14.01,2013-05-08 09:52:00,
2013-05-08 05:53:00,65.2,51.4,29.91,West,279,0.0,6.0,61,0.00,,---,0.00,VWS V14.01,2013-05-08 09:53:00,
2013-05-08 05:54:00,65.2,51.4,29.91,West,279,0.0,6.0,61,0.00,,---,0.00,VWS V14.01,2013-05-08 09:54:00,
2013-05-08 05:55:00,65.0,51.7,29.91,WNW,282,5.0,6.0,62,0.00,,---,0.00,VWS V14.01,2013-05-08 09:55:00,
2013-05-08 05:56:00,65.0,51.2,29.91,WNW,293,4.0,6.0,61,0.00,,---,0.00,VWS V14.01,2013-05-08 09:56:00,
2013-05-08 05:57:00,64.8,51.0,29.91,WNW,282,2.0,6.0,61,0.00,,---,0.00,VWS V14.01,2013-05-08 09:57:00,
2013-05-08 05:58:00,64.7,51.0,29.91,WNW,282,0.0,6.0,61,0.00,,---,0.00,VWS V14.01,2013-05-08 09:58:00,
2013-05-08 05:59:00,64.7,51.4,29.91,WNW,286,0.0,6.0,62,0.00,,---,0.00,VWS V14.01,2013-05-08 09:59:00,
2013-05-08 06:00:00,64.5,51.2,29.92,West,281,0.0,6.0,62,0.00,,---,0.00,VWS V14.01,2013-05-08 10:00:00,
2013-05-08 06:01:00,64.5,51.2,29.92,West,275,1.0,3.0,62,0.00,,---,0.00,VWS V14.01,2013-05-08 10:01:00,
2013-05-08 06:02:00,64.3,51.0,29.92,West,271,0.0,3.0,62,0.00,,---,0.00,VWS V14.01,2013-05-08 10:02:00,
2013-05-08 06:03:00,64.3,51.0,29.92,NW,319,2.0,5.0,62,0.00,,---,0.00,VWS V14.01,2013-05-08 10:03:00,
2013-05-08 06:04:00,64.2,51.4,29.92,NW,305,0.0,5.0,63,0.00,,---,0.00,VWS V14.01,2013-05-08 10:04:00,
2013-05-08 06:05:00,64.0,51.2,29.92,NW,305,0.0,5.0,63,0.00,,---,0.00,VWS V14.01,2013-05-08 10:05:00,
2013-05-08 06:06:00,64.0,51.6,29.92,NW,305,0.0,5.0,64,0.00,,---,0.00,VWS V14.01,2013-05-08 10:06:00,
2013-05-08 06:07:00,63.9,51.5,29.92,NW,319,0.0,5.0,64,0.00,,---,0.00,VWS V14.01,2013-05-08 10:07:00,
2013-05-08 06:08:00,63.7,51.7,29.92,NW,306,0.0,5.0,65,0.00,,---,0.00,VWS V14.01,2013-05-08 10:08:00,
2013-05-08 06:09:00,63.7,51.7,29.92,NW,306,0.0,5.0,65,0.00,,---,0.00,VWS V14.01,2013-05-08 10:09:00,
2013-05-08 06:10:00,63.5,51.5,29.92,WNW,303,2.0,5.0,65,0.00,,---,0.00,VWS V14.01,2013-05-08 10:10:00,
2013-05-08 06:11:00,63.5,52.0,29.92,West,274,3.0,3.0,66,0.00,,---,0.00,VWS V14.01,2013-05-08 10:11:00,
2013-05-08 06:12:00,63.4,51.9,29.92,WNW,286,0.0,3.0,66,0.00,,---,0.00,VWS V14.01,2013-05-08 10:12:00,
2013-05-08 06:13:00,63.4,52.3,29.92,WNW,286,0.0,3.0,67,0.00,,---,0.00,VWS V14.01,2013-05-08 10:13:00,
2013-05-08 06:14:00,63.2,52.5,29.92,WNW,286,0.0,3.0,68,0.00,,---,0.00,VWS V14.01,2013-05-08 10:14:00,
2013-05-08 06:15:00,63.2,52.9,29.92,WNW,286,0.0,3.0,69,0.00,,---,0.00,VWS V14.01,2013-05-08 10:15:00,
2013-05-08 06:16:00,63.2,52.9,29.92,WNW,286,0.0,3.0,69,0.00,,---,0.00,VWS V14.01,2013-05-08 10:16:00,
2013-05-08 06:17:00,63.2,52.9,29.92,WNW,286,0.0,3.0,69,0.00,,---,0.00,VWS V14.01,2013-05-08 10:17:00,
2013-05-08 06:18:00,63.1,52.8,29.92,WNW,286,0.0,3.0,69,0.00,,---,0.00,VWS V14.01,2013-05-08 10:18:00,
2013-05-08 06:19:00,63.1,53.2,29.92,WNW,286,0.0,3.0,70,0.00,,---,0.00,VWS V14.01,2013-05-08 10:19:00,
2013-05-08 06:20:00,63.1,53.2,29.92,WNW,286,0.0,3.0,70,0.00,,---,0.00,VWS V14.01,2013-05-08 10:20:00,
2013-05-08 06:21:00,62.9,53.0,29.92,WNW,286,0.0,0.0,70,0.00,,---,0.00,VWS V14.01,2013-05-08 10:21:00,
2013-05-08 06:22:00,62.9,53.0,29.92,WNW,286,0.0,0.0,70,0.00,,---,0.00,VWS V14.01,2013-05-08 10:22:00,
2013-05-08 06:23:00,62.9,53.0,29.92,WNW,286,0.0,0.0,70,0.00,,---,0.00,VWS V14.01,2013-05-08 10:23:00,
2013-05-08 06:24:00,62.9,53.0,29.92,WNW,286,0.0,0.0,70,0.00,,---,0.00,VWS V14.01,2013-05-08 10:24:00,
2013-05-08 06:25:00,62.7,53.5,29.92,WNW,286,0.0,0.0,72,0.00,,---,0.00,VWS V14.01,2013-05-08 10:25:00,
2013-05-08 06:26:00,62.7,53.5,29.92,WNW,286,0.0,0.0,72,0.00,,---,0.00,VWS V14.01,2013-05-08 10:26:00,
2013-05-08 06:27:00,62.7,53.5,29.92,WNW,285,3.0,3.0,72,0.00,,---,0.00,VWS V14.01,2013-05-08 10:27:00,
2013-05-08 06:28:00,62.6,53.5,29.92,West,269,2.0,5.0,72,0.00,,---,0.00,VWS V14.01,2013-05-08 10:28:00,
2013-05-08 06:29:00,62.6,53.5,29.92,West,269,0.0,5.0,72,0.00,,---,0.00,VWS V14.01,2013-05-08 10:29:00,
2013-05-08 06:30:00,62.6,53.5,29.92,West,264,0.0,5.0,72,0.00,,---,0.00,VWS V14.01,2013-05-08 10:30:00,
2013-05-08 06:31:00,62.4,53.3,29.92,WSW,254,0.0,0.0,72,0.00,,---,0.00,VWS V14.01,2013-05-08 10:31:00,
2013-05-08 06:32:00,62.4,53.3,29.92,WSW,257,2.0,2.0,72,0.00,,---,0.00,VWS V14.01,2013-05-08 10:32:00,
2013-05-08 06:33:00,62.4,53.3,29.92,WSW,257,2.0,3.0,72,0.00,,---,0.00,VWS V14.01,2013-05-08 10:33:00,
2013-05-08 06:34:00,62.3,53.2,29.92,WSW,257,0.0,3.0,72,0.00,,---,0.00,VWS V14.01,2013-05-08 10:34:00,
2013-05-08 06:35:00,62.3,53.2,29.92,WSW,257,0.0,3.0,72,0.00,,---,0.00,VWS V14.01,2013-05-08 10:35:00,
2013-05-08 06:36:00,62.3,53.2,29.92,WSW,257,0.0,3.0,72,0.00,,---,0.00,VWS V14.01,2013-05-08 10:36:00,
2013-05-08 06:37:00,62.1,53.0,29.92,WSW,257,0.0,3.0,72,0.00,,---,0.00,VWS V14.01,2013-05-08 10:37:00,
2013-05-08 06:38:00,62.1,53.0,29.92,WSW,257,1.0,3.0,72,0.00,,---,0.00,VWS V14.01,2013-05-08 10:38:00,
2013-05-08 06:39:00,62.1,53.0,29.92,WSW,257,0.0,3.0,72,0.00,,---,0.00,VWS V14.01,2013-05-08 10:39:00,
2013-05-08 06:40:00,62.0,52.9,29.92,WSW,257,0.0,3.0,72,0.00,,---,0.00,VWS V14.01,2013-05-08 10:40:00,
2013-05-08 06:41:00,62.0,52.9,29.92,WSW,257,0.0,0.0,72,0.00,,---,0.00,VWS V14.01,2013-05-08 10:41:00,
2013-05-08 06:42:00,62.0,52.9,29.92,WSW,257,0.0,0.0,72,0.00,,---,0.00,VWS V14.01,2013-05-08 10:42:00,
2013-05-08 06:43:00,61.8,52.7,29.92,WSW,257,0.0,0.0,72,0.00,,---,0.00,VWS V14.01,2013-05-08 10:43:00,
2013-05-08 06:44:00,61.8,52.7,29.92,WSW,257,0.0,0.0,72,0.00,,---,0.00,VWS V14.01,2013-05-08 10:44:00,
2013-05-08 06:45:00,61.8,52.7,29.93,WSW,257,0.0,0.0,72,0.00,,---,0.00,VWS V14.01,2013-05-08 10:45:00,
2013-05-08 06:46:00,61.6,52.9,29.93,WSW,257,0.0,0.0,73,0.00,,---,0.00,VWS V14.01,2013-05-08 10:46:00,
2013-05-08 06:47:00,61.6,52.9,29.93,WSW,257,0.0,0.0,73,0.00,,---,0.00,VWS V14.01,2013-05-08 10:47:00,
2013-05-08 06:48:00,61.6,52.9,29.93,WSW,257,0.0,0.0,73,0.00,,---,0.00,VWS V14.01,2013-05-08 10:48:00,
2013-05-08 06:49:00,61.6,52.9,29.93,WSW,257,0.0,1.0,73,0.00,,---,0.00,VWS V14.01,2013-05-08 10:49:00,
2013-05-08 06:50:00,61.5,52.8,29.93,WSW,257,0.0,1.0,73,0.00,,---,0.00,VWS V14.01,2013-05-08 10:50:00,
2013-05-08 06:51:00,61.5,52.8,29.93,WSW,257,0.0,0.0,73,0.00,,---,0.00,VWS V14.01,2013-05-08 10:51:00,
2013-05-08 06:52:00,61.3,52.6,29.93,WSW,257,0.0,0.0,73,0.00,,---,0.00,VWS V14.01,2013-05-08 10:52:00,
2013-05-08 06:53:00,61.3,53.0,29.93,WSW,257,1.0,3.0,74,0.00,,---,0.00,VWS V14.01,2013-05-08 10:53:00,
2013-05-08 06:54:00,61.3,53.0,29.93,WSW,257,0.0,3.0,74,0.00,,---,0.00,VWS V14.01,2013-05-08 10:54:00,
2013-05-08 06:55:00,61.2,52.5,29.93,WSW,257,0.0,3.0,73,0.00,,---,0.00,VWS V14.01,2013-05-08 10:55:00,
2013-05-08 06:56:00,61.2,52.5,29.93,WSW,257,0.0,3.0,73,0.00,,---,0.00,VWS V14.01,2013-05-08 10:56:00,
2013-05-08 06:57:00,61.2,52.9,29.93,WSW,257,0.0,3.0,74,0.00,,---,0.00,VWS V14.01,2013-05-08 10:57:00,
2013-05-08 06:58:00,61.2,52.9,29.93,WSW,257,0.0,3.0,74,0.00,,---,0.00,VWS V14.01,2013-05-08 10:58:00,
2013-05-08 06:59:00,61.2,52.9,29.93,WSW,257,0.0,3.0,74,0.00,,---,0.00,VWS V14.01,2013-05-08 10:59:00,
2013-05-08 07:00:00,61.2,52.9,29.93,WSW,255,2.0,3.0,74,0.00,,---,0.00,VWS V14.01,2013-05-08 11:00:00,
2013-05-08 07:01:00,61.0,52.7,29.93,WSW,255,0.0,4.0,74,0.00,,---,0.00,VWS V14.01,2013-05-08 11:01:00,
2013-05-08 07:02:00,61.0,52.7,29.93,WSW,255,0.0,4.0,74,0.00,,---,0.00,VWS V14.01,2013-05-08 11:02:00,
2013-05-08 07:03:00,61.0,52.7,29.93,WSW,255,0.0,4.0,74,0.00,,---,0.00,VWS V14.01,2013-05-08 11:03:00,
2013-05-08 07:04:00,61.0,53.0,29.93,WSW,255,0.0,4.0,75,0.00,,---,0.00,VWS V14.01,2013-05-08 11:04:00,
2013-05-08 07:05:00,61.0,53.0,29.93,WSW,255,0.0,4.0,75,0.00,,---,0.00,VWS V14.01,2013-05-08 11:05:00,
2013-05-08 07:06:00,61.0,53.0,29.93,NW,320,3.0,4.0,75,0.00,,---,0.00,VWS V14.01,2013-05-08 11:06:00,
2013-05-08 07:07:00,60.9,52.9,29.93,NW,320,0.0,4.0,75,0.00,,---,0.00,VWS V14.01,2013-05-08 11:07:00,
2013-05-08 07:08:00,60.9,52.9,29.93,NW,320,0.0,4.0,75,0.00,,---,0.00,VWS V14.01,2013-05-08 11:08:00,
2013-05-08 07:09:00,60.9,52.9,29.93,NW,320,0.0,4.0,75,0.00,,---,0.00,VWS V14.01,2013-05-08 11:09:00,
2013-05-08 07:10:00,60.9,53.3,29.93,NW,320,0.0,4.0,76,0.00,,---,0.00,VWS V14.01,2013-05-08 11:10:00,
2013-05-08 07:11:00,60.9,53.3,29.93,NW,320,0.0,0.0,76,0.00,,---,0.00,VWS V14.01,2013-05-08 11:11:00,
2013-05-08 07:12:00,60.9,53.3,29.93,NW,320,0.0,0.0,76,0.00,,---,0.00,VWS V14.01,2013-05-08 11:12:00,
2013-05-08 07:13:00,60.9,53.3,29.93,NW,320,0.0,0.0,76,0.00,,---,0.00,VWS V14.01,2013-05-08 11:13:00,
2013-05-08 07:14:00,60.9,53.3,29.93,NW,320,0.0,0.0,76,0.00,,---,0.00,VWS V14.01,2013-05-08 11:14:00,
2013-05-08 07:15:00,60.9,53.3,29.93,NW,320,0.0,0.0,76,0.00,,---,0.00,VWS V14.01,2013-05-08 11:15:00,
2013-05-08 07:16:00,60.7,53.1,29.93,WNW,300,0.0,0.0,76,0.00,,---,0.00,VWS V14.01,2013-05-08 11:16:00,
2013-05-08 07:17:00,60.7,52.7,29.93,WNW,300,0.0,0.0,75,0.00,,---,0.00,VWS V14.01,2013-05-08 11:17:00,
2013-05-08 07:18:00,60.7,52.7,29.93,WNW,300,0.0,0.0,75,0.00,,---,0.00,VWS V14.01,2013-05-08 11:18:00,
2013-05-08 07:19:00,60.7,52.7,29.93,WNW,300,0.0,0.0,75,0.00,,---,0.00,VWS V14.01,2013-05-08 11:19:00,
2013-05-08 07:20:00,60.7,52.7,29.93,WNW,300,0.0,0.0,75,0.00,,---,0.00,VWS V14.01,2013-05-08 11:20:00,
2013-05-08 07:21:00,60.7,52.7,29.93,WNW,300,0.0,0.0,75,0.00,,---,0.00,VWS V14.01,2013-05-08 11:21:00,
2013-05-08 07:22:00,60.7,52.7,29.93,WNW,300,0.0,0.0,75,0.00,,---,0.00,VWS V14.01,2013-05-08 11:22:00,
2013-05-08 07:23:00,60.7,52.7,29.93,WNW,300,0.0,0.0,75,0.00,,---,0.00,VWS V14.01,2013-05-08 11:23:00,
2013-05-08 07:24:00,60.7,52.7,29.93,WNW,296,0.0,3.0,75,0.00,,---,0.00,VWS V14.01,2013-05-08 11:24:00,
2013-05-08 07:25:00,60.7,52.7,29.93,WNW,298,0.0,3.0,75,0.00,,---,0.00,VWS V14.01,2013-05-08 11:25:00,
2013-05-08 07:26:00,60.5,52.5,29.93,WNW,300,0.0,3.0,75,0.00,,---,0.00,VWS V14.01,2013-05-08 11:26:00,
2013-05-08 07:27:00,60.5,52.5,29.93,WNW,300,0.0,3.0,75,0.00,,---,0.00,VWS V14.01,2013-05-08 11:27:00,
2013-05-08 07:28:00,60.5,52.5,29.93,WNW,300,0.0,3.0,75,0.00,,---,0.00,VWS V14.01,2013-05-08 11:28:00,
2013-05-08 07:29:00,60.5,52.5,29.93,WNW,300,0.0,3.0,75,0.00,,---,0.00,VWS V14.01,2013-05-08 11:29:00,
2013-05-08 07:30:00,60.5,52.5,29.94,WNW,300,0.0,3.0,75,0.00,,---,0.00,VWS V14.01,2013-05-08 11:30:00,
2013-05-08 07:31:00,60.5,52.5,29.94,WNW,300,0.0,0.0,75,0.00,,---,0.00,VWS V14.01,2013-05-08 11:31:00,
2013-05-08 07:32:00,60.5,52.5,29.94,WNW,300,0.0,0.0,75,0.00,,---,0.00,VWS V14.01,2013-05-08 11:32:00,
2013-05-08 07:33:00,60.5,52.5,29.94,WNW,300,2.0,2.0,75,0.00,,---,0.00,VWS V14.01,2013-05-08 11:33:00,
2013-05-08 07:34:00,60.4,52.5,29.94,WNW,300,0.0,2.0,75,0.00,,---,0.00,VWS V14.01,2013-05-08 11:34:00,
2013-05-08 07:35:00,60.4,52.5,29.94,WNW,300,0.0,2.0,75,0.00,,---,0.00,VWS V14.01,2013-05-08 11:35:00,
2013-05-08 07:36:00,60.4,52.5,29.94,WNW,300,0.0,2.0,75,0.00,,---,0.00,VWS V14.01,2013-05-08 11:36:00,
2013-05-08 07:37:00,60.4,52.5,29.94,WNW,300,0.0,2.0,75,0.00,,---,0.00,VWS V14.01,2013-05-08 11:37:00,
2013-05-08 07:38:00,60.4,52.5,29.94,WNW,300,0.0,2.0,75,0.00,,---,0.00,VWS V14.01,2013-05-08 11:38:00,
2013-05-08 07:39:00,60.4,52.5,29.94,WNW,300,0.0,2.0,75,0.00,,---,0.00,VWS V14.01,2013-05-08 11:39:00,
2013-05-08 07:40:00,60.4,52.5,29.94,WNW,300,0.0,2.0,75,0.00,,---,0.00,VWS V14.01,2013-05-08 11:40:00,
2013-05-08 07:41:00,60.2,52.3,29.94,NW,307,2.0,5.0,75,0.00,,---,0.00,VWS V14.01,2013-05-08 11:41:00,
2013-05-08 07:42:00,60.2,52.3,29.94,NW,307,0.0,5.0,75,0.00,,---,0.00,VWS V14.01,2013-05-08 11:42:00,
2013-05-08 07:43:00,60.2,52.3,29.94,NW,307,0.0,5.0,75,0.00,,---,0.00,VWS V14.01,2013-05-08 11:43:00,
2013-05-08 07:44:00,60.2,52.3,29.94,NW,307,0.0,5.0,75,0.00,,---,0.00,VWS V14.01,2013-05-08 11:44:00,
2013-05-08 07:45:00,60.1,52.2,29.95,NW,307,0.0,5.0,75,0.00,,---,0.00,VWS V14.01,2013-05-08 11:45:00,
2013-05-08 07:46:00,60.1,52.2,29.95,NW,307,0.0,5.0,75,0.00,,---,0.00,VWS V14.01,2013-05-08 11:46:00,
2013-05-08 07:47:00,60.1,52.2,29.95,WSW,252,0.0,5.0,75,0.00,,---,0.00,VWS V14.01,2013-05-08 11:47:00,
2013-05-08 07:48:00,60.1,52.2,29.95,WSW,258,2.0,5.0,75,0.00,,---,0.00,VWS V14.01,2013-05-08 11:48:00,
2013-05-08 07:49:00,60.1,52.5,29.95,WSW,258,0.0,5.0,76,0.00,,---,0.00,VWS V14.01,2013-05-08 11:49:00,
2013-05-08 07:50:00,60.1,52.5,29.95,West,259,2.0,5.0,76,0.00,,---,0.00,VWS V14.01,2013-05-08 11:50:00,
2013-05-08 07:51:00,59.9,52.3,29.95,West,259,0.0,2.0,76,0.00,,---,0.00,VWS V14.01,2013-05-08 11:51:00,
2013-05-08 07:52:00,59.9,52.3,29.95,West,259,0.0,2.0,76,0.00,,---,0.00,VWS V14.01,2013-05-08 11:52:00,
2013-05-08 07:53:00,59.9,52.3,29.95,West,259,0.0,2.0,76,0.00,,---,0.00,VWS V14.01,2013-05-08 11:53:00,
2013-05-08 07:54:00,59.9,52.3,29.95,West,259,0.0,2.0,76,0.00,,---,0.00,VWS V14.01,2013-05-08 11:54:00,
2013-05-08 07:55:00,59.9,52.7,29.95,West,259,0.0,2.0,77,0.00,,---,0.00,VWS V14.01,2013-05-08 11:55:00,
2013-05-08 07:56:00,59.9,52.7,29.95,West,259,0.0,2.0,77,0.00,,---,0.00,VWS V14.01,2013-05-08 11:56:00,
2013-05-08 07:57:00,59.8,52.6,29.95,West,259,0.0,2.0,77,0.00,,---,0.00,VWS V14.01,2013-05-08 11:57:00,
2013-05-08 07:58:00,59.8,52.6,29.95,West,259,0.0,2.0,77,0.00,,---,0.00,VWS V14.01,2013-05-08 11:58:00,
2013-05-08 07:59:00,59.8,52.9,29.95,West,259,0.0,2.0,78,0.00,,---,0.00,VWS V14.01,2013-05-08 11:59:00,
2013-05-08 08:00:00,59.8,52.9,29.95,West,259,0.0,2.0,78,0.00,,---,0.00,VWS V14.01,2013-05-08 12:00:00,
2013-05-08 08:01:00,59.6,52.7,29.95,West,259,2.0,2.0,78,0.00,,---,0.00,VWS V14.01,2013-05-08 12:01:00,
2013-05-08 08:02:00,59.6,52.7,29.95,West,259,0.0,2.0,78,0.00,,---,0.00,VWS V14.01,2013-05-08 12:02:00,
2013-05-08 08:03:00,59.6,52.7,29.95,West,259,0.0,2.0,78,0.00,,---,0.00,VWS V14.01,2013-05-08 12:03:00,
2013-05-08 08:04:00,59.5,52.6,29.95,West,259,0.0,2.0,78,0.00,,---,0.00,VWS V14.01,2013-05-08 12:04:00,
2013-05-08 08:05:00,59.5,52.6,29.95,West,259,0.0,2.0,78,0.00,,---,0.00,VWS V14.01,2013-05-08 12:05:00,
2013-05-08 08:06:00,59.3,52.5,29.95,WSW,244,0.0,3.0,78,0.00,,---,0.00,VWS V14.01,2013-05-08 12:06:00,
2013-05-08 08:07:00,59.3,52.5,29.95,WSW,258,2.0,3.0,78,0.00,,---,0.00,VWS V14.01,2013-05-08 12:07:00,
2013-05-08 08:08:00,59.2,52.3,29.95,WSW,258,0.0,3.0,78,0.00,,---,0.00,VWS V14.01,2013-05-08 12:08:00,
2013-05-08 08:09:00,59.2,52.3,29.95,WSW,258,0.0,3.0,78,0.00,,---,0.00,VWS V14.01,2013-05-08 12:09:00,
2013-05-08 08:10:00,59.2,52.3,29.95,WSW,258,0.0,3.0,78,0.00,,---,0.00,VWS V14.01,2013-05-08 12:10:00,
2013-05-08 08:11:00,59.0,52.2,29.95,WSW,258,0.0,0.0,78,0.00,,---,0.00,VWS V14.01,2013-05-08 12:11:00,
2013-05-08 08:12:00,59.0,52.2,29.95,WSW,258,0.0,0.0,78,0.00,,---,0.00,VWS V14.01,2013-05-08 12:12:00,
2013-05-08 08:13:00,58.9,52.1,29.95,West,272,0.0,5.0,78,0.00,,---,0.00,VWS V14.01,2013-05-08 12:13:00,
2013-05-08 08:14:00,58.9,52.1,29.95,West,272,0.0,5.0,78,0.00,,---,0.00,VWS V14.01,2013-05-08 12:14:00,
2013-05-08 08:15:00,58.9,52.1,29.96,West,269,0.0,5.0,78,0.00,,---,0.00,VWS V14.01,2013-05-08 12:15:00,
2013-05-08 08:16:00,58.9,52.1,29.96,West,269,0.0,5.0,78,0.00,,---,0.00,VWS V14.01,2013-05-08 12:16:00,
2013-05-08 08:17:00,58.7,51.9,29.96,West,269,0.0,5.0,78,0.00,,---,0.00,VWS V14.01,2013-05-08 12:17:00,
2013-05-08 08:18:00,58.7,51.9,29.96,West,271,0.0,5.0,78,0.00,,---,0.00,VWS V14.01,2013-05-08 12:18:00,
2013-05-08 08:19:00,58.7,52.2,29.96,WNW,298,0.0,5.0,79,0.00,,---,0.00,VWS V14.01,2013-05-08 12:19:00,
2013-05-08 08:20:00,58.6,52.1,29.96,WNW,298,0.0,5.0,79,0.00,,---,0.00,VWS V14.01,2013-05-08 12:20:00,
2013-05-08 08:21:00,58.6,52.1,29.96,WNW,298,0.0,0.0,79,0.00,,---,0.00,VWS V14.01,2013-05-08 12:21:00,
2013-05-08 08:22:00,58.6,52.1,29.96,WNW,298,0.0,0.0,79,0.00,,---,0.00,VWS V14.01,2013-05-08 12:22:00,
2013-05-08 08:23:00,58.6,52.1,29.96,WNW,298,0.0,0.0,79,0.00,,---,0.00,VWS V14.01,2013-05-08 12:23:00,
2013-05-08 08:24:00,58.6,52.1,29.96,WNW,298,0.0,0.0,79,0.00,,---,0.00,VWS V14.01,2013-05-08 12:24:00,
2013-05-08 08:25:00,58.4,51.9,29.96,WNW,290,0.0,0.0,79,0.00,,---,0.00,VWS V14.01,2013-05-08 12:25:00,
2013-05-08 08:26:00,58.4,51.9,29.96,WNW,290,0.0,0.0,79,0.00,,---,0.00,VWS V14.01,2013-05-08 12:26:00,
2013-05-08 08:27:00,58.4,51.9,29.96,WNW,290,0.0,0.0,79,0.00,,---,0.00,VWS V14.01,2013-05-08 12:27:00,
2013-05-08 08:28:00,58.4,51.9,29.96,WNW,292,0.0,2.0,79,0.00,,---,0.00,VWS V14.01,2013-05-08 12:28:00,
2013-05-08 08:29:00,58.3,51.8,29.96,WNW,292,0.0,2.0,79,0.00,,---,0.00,VWS V14.01,2013-05-08 12:29:00,
2013-05-08 08:30:00,58.3,51.8,29.97,WNW,292,0.0,2.0,79,0.00,,---,0.00,VWS V14.01,2013-05-08 12:30:00,
2013-05-08 08:31:00,58.3,51.8,29.97,WNW,292,0.0,0.0,79,0.00,,---,0.00,VWS V14.01,2013-05-08 12:31:00,
2013-05-08 08:32:00,58.3,51.8,29.97,WNW,292,0.0,0.0,79,0.00,,---,0.00,VWS V14.01,2013-05-08 12:32:00,
2013-05-08 08:33:00,58.3,51.8,29.97,WNW,292,0.0,0.0,79,0.00,,---,0.00,VWS V14.01,2013-05-08 12:33:00,
2013-05-08 08:34:00,58.3,51.8,29.97,WNW,292,0.0,0.0,79,0.00,,---,0.00,VWS V14.01,2013-05-08 12:34:00,
2013-05-08 08:35:00,58.3,51.8,29.97,WNW,292,0.0,0.0,79,0.00,,---,0.00,VWS V14.01,2013-05-08 12:35:00,
2013-05-08 08:36:00,58.3,51.8,29.97,WNW,292,0.0,0.0,79,0.00,,---,0.00,VWS V14.01,2013-05-08 12:36:00,
2013-05-08 08:37:00,58.3,51.8,29.97,WNW,292,0.0,0.0,79,0.00,,---,0.00,VWS V14.01,2013-05-08 12:37:00,
2013-05-08 08:38:00,58.3,51.8,29.97,WNW,292,0.0,0.0,79,0.00,,---,0.00,VWS V14.01,2013-05-08 12:38:00,
2013-05-08 08:39:00,58.1,51.6,29.97,SSW,200,0.0,1.0,79,0.00,,---,0.00,VWS V14.01,2013-05-08 12:39:00,
2013-05-08 08:40:00,58.1,51.6,29.97,SSW,200,0.0,1.0,79,0.00,,---,0.00,VWS V14.01,2013-05-08 12:40:00,
2013-05-08 08:41:00,58.1,51.6,29.97,SSW,200,0.0,0.0,79,0.00,,---,0.00,VWS V14.01,2013-05-08 12:41:00,
2013-05-08 08:42:00,58.1,51.6,29.97,SSW,200,0.0,0.0,79,0.00,,---,0.00,VWS V14.01,2013-05-08 12:42:00,
2013-05-08 08:43:00,58.1,51.6,29.97,SSW,200,0.0,0.0,79,0.00,,---,0.00,VWS V14.01,2013-05-08 12:43:00,
2013-05-08 08:44:00,58.1,51.6,29.97,SW,228,1.0,1.0,79,0.00,,---,0.00,VWS V14.01,2013-05-08 12:44:00,
2013-05-08 08:45:00,58.1,51.6,29.98,West,269,0.0,2.0,79,0.00,,---,0.00,VWS V14.01,2013-05-08 12:45:00,
2013-05-08 08:46:00,58.1,51.6,29.98,West,269,0.0,2.0,79,0.00,,---,0.00,VWS V14.01,2013-05-08 12:46:00,
2013-05-08 08:47:00,58.1,51.6,29.98,West,269,0.0,2.0,79,0.00,,---,0.00,VWS V14.01,2013-05-08 12:47:00,
2013-05-08 08:48:00,58.0,51.5,29.98,West,269,3.0,3.0,79,0.00,,---,0.00,VWS V14.01,2013-05-08 12:48:00,
2013-05-08 08:49:00,58.0,51.5,29.98,West,272,0.0,4.0,79,0.00,,---,0.00,VWS V14.01,2013-05-08 12:49:00,
2013-05-08 08:50:00,58.0,51.5,29.98,West,272,0.0,4.0,79,0.00,,---,0.00,VWS V14.01,2013-05-08 12:50:00,
2013-05-08 08:51:00,58.0,51.5,29.98,West,272,0.0,0.0,79,0.00,,---,0.00,VWS V14.01,2013-05-08 12:51:00,
2013-05-08 08:52:00,58.0,51.5,29.98,West,262,0.0,2.0,79,0.00,,---,0.00,VWS V14.01,2013-05-08 12:52:00,
2013-05-08 08:53:00,58.0,51.5,29.98,West,262,0.0,2.0,79,0.00,,---,0.00,VWS V14.01,2013-05-08 12:53:00,
2013-05-08 08:54:00,58.0,51.5,29.98,West,264,0.0,2.0,79,0.00,,---,0.00,VWS V14.01,2013-05-08 12:54:00,
2013-05-08 08:55:00,58.0,51.9,29.98,West,264,0.0,2.0,80,0.00,,---,0.00,VWS V14.01,2013-05-08 12:55:00,
2013-05-08 08:56:00,58.0,51.9,29.98,West,264,0.0,2.0,80,0.00,,---,0.00,VWS V14.01,2013-05-08 12:56:00,
2013-05-08 08:57:00,58.0,51.9,29.98,West,264,0.0,2.0,80,0.00,,---,0.00,VWS V14.01,2013-05-08 12:57:00,
2013-05-08 08:58:00,58.0,51.9,29.98,West,264,0.0,2.0,80,0.00,,---,0.00,VWS V14.01,2013-05-08 12:58:00,
2013-05-08 08:59:00,58.0,51.9,29.98,West,269,0.0,6.0,80,0.00,,---,0.00,VWS V14.01,2013-05-08 12:59:00,
2013-05-08 09:00:00,58.0,51.9,29.98,West,269,0.0,6.0,80,0.00,,---,0.00,VWS V14.01,2013-05-08 13:00:00,
2013-05-08 09:01:00,58.0,51.9,29.98,West,269,0.0,0.0,80,0.00,,---,0.00,VWS V14.01,2013-05-08 13:01:00,
2013-05-08 09:02:00,58.0,51.9,29.98,NW,305,0.0,0.0,80,0.00,,---,0.00,VWS V14.01,2013-05-08 13:02:00,
2013-05-08 09:03:00,57.8,51.7,29.98,NW,305,0.0,0.0,80,0.00,,---,0.00,VWS V14.01,2013-05-08 13:03:00,
2013-05-08 09:04:00,57.8,51.7,29.98,NW,305,0.0,0.0,80,0.00,,---,0.00,VWS V14.01,2013-05-08 13:04:00,
2013-05-08 09:05:00,57.8,51.7,29.98,NW,305,0.0,0.0,80,0.00,,---,0.00,VWS V14.01,2013-05-08 13:05:00,
2013-05-08 09:06:00,57.8,51.7,29.98,NW,305,0.0,0.0,80,0.00,,---,0.00,VWS V14.01,2013-05-08 13:06:00,
2013-05-08 09:07:00,57.8,51.7,29.98,NW,305,0.0,0.0,80,0.00,,---,0.00,VWS V14.01,2013-05-08 13:07:00,
2013-05-08 09:08:00,57.8,51.7,29.98,NW,305,0.0,0.0,80,0.00,,---,0.00,VWS V14.01,2013-05-08 13:08:00,
2013-05-08 09:09:00,57.8,51.7,29.98,NW,305,0.0,0.0,80,0.00,,---,0.00,VWS V14.01,2013-05-08 13:09:00,
2013-05-08 09:10:00,57.8,51.7,29.98,NW,305,0.0,0.0,80,0.00,,---,0.00,VWS V14.01,2013-05-08 13:10:00,
2013-05-08 09:11:00,57.8,51.7,29.98,NW,305,0.0,0.0,80,0.00,,---,0.00,VWS V14.01,2013-05-08 13:11:00,
2013-05-08 09:12:00,57.8,52.0,29.98,West,272,0.0,2.0,81,0.00,,---,0.00,VWS V14.01,2013-05-08 13:12:00,
2013-05-08 09:13:00,57.8,52.0,29.98,West,272,0.0,2.0,81,0.00,,---,0.00,VWS V14.01,2013-05-08 13:13:00,
2013-05-08 09:14:00,57.6,51.8,29.98,NW,307,0.0,2.0,81,0.00,,---,0.00,VWS V14.01,2013-05-08 13:14:00,
2013-05-08 09:15:00,57.6,51.8,29.97,NW,307,0.0,2.0,81,0.00,,---,0.00,VWS V14.01,2013-05-08 13:15:00,
2013-05-08 09:16:00,57.6,51.8,29.97,WSW,244,0.0,2.0,81,0.00,,---,0.00,VWS V14.01,2013-05-08 13:16:00,
2013-05-08 09:17:00,57.6,51.8,29.97,WSW,244,0.0,2.0,81,0.00,,---,0.00,VWS V14.01,2013-05-08 13:17:00,
2013-05-08 09:18:00,57.6,51.8,29.97,WSW,244,0.0,2.0,81,0.00,,---,0.00,VWS V14.01,2013-05-08 13:18:00,
2013-05-08 09:19:00,57.6,51.8,29.97,WSW,244,0.0,2.0,81,0.00,,---,0.00,VWS V14.01,2013-05-08 13:19:00,
2013-05-08 09:20:00,57.6,51.8,29.97,WSW,244,0.0,2.0,81,0.00,,---,0.00,VWS V14.01,2013-05-08 13:20:00,
2013-05-08 09:21:00,57.6,51.8,29.97,WSW,244,0.0,0.0,81,0.00,,---,0.00,VWS V14.01,2013-05-08 13:21:00,
2013-05-08 09:22:00,57.5,51.7,29.97,WSW,244,0.0,0.0,81,0.00,,---,0.00,VWS V14.01,2013-05-08 13:22:00,
2013-05-08 09:23:00,57.5,51.7,29.97,WSW,244,0.0,0.0,81,0.00,,---,0.00,VWS V14.01,2013-05-08 13:23:00,
2013-05-08 09:24:00,57.5,51.7,29.97,WSW,244,0.0,0.0,81,0.00,,---,0.00,VWS V14.01,2013-05-08 13:24:00,
2013-05-08 09:25:00,57.5,51.7,29.97,WSW,244,0.0,0.0,81,0.00,,---,0.00,VWS V14.01,2013-05-08 13:25:00,
2013-05-08 09:26:00,57.5,51.7,29.97,WSW,244,0.0,0.0,81,0.00,,---,0.00,VWS V14.01,2013-05-08 13:26:00,
2013-05-08 09:27:00,57.5,51.7,29.97,WSW,244,0.0,0.0,81,0.00,,---,0.00,VWS V14.01,2013-05-08 13:27:00,
2013-05-08 09:28:00,57.5,52.1,29.97,WSW,244,0.0,0.0,82,0.00,,---,0.00,VWS V14.01,2013-05-08 13:28:00,
2013-05-08 09:29:00,57.3,51.9,29.97,WSW,244,0.0,0.0,82,0.00,,---,0.00,VWS V14.01,2013-05-08 13:29:00,
2013-05-08 09:30:00,57.3,51.9,29.98,WSW,244,0.0,0.0,82,0.00,,---,0.00,VWS V14.01,2013-05-08 13:30:00,
2013-05-08 09:31:00,57.3,51.9,29.98,WSW,244,0.0,0.0,82,0.00,,---,0.00,VWS V14.01,2013-05-08 13:31:00,
2013-05-08 09:32:00,57.2,51.8,29.98,WSW,244,0.0,0.0,82,0.00,,---,0.00,VWS V14.01,2013-05-08 13:32:00,
2013-05-08 09:33:00,57.2,51.8,29.98,WSW,244,0.0,0.0,82,0.00,,---,0.00,VWS V14.01,2013-05-08 13:33:00,
2013-05-08 09:34:00,57.2,51.8,29.98,WSW,244,0.0,0.0,82,0.00,,---,0.00,VWS V14.01,2013-05-08 13:34:00,
2013-05-08 09:35:00,57.2,51.8,29.98,WSW,244,0.0,0.0,82,0.00,,---,0.00,VWS V14.01,2013-05-08 13:35:00,
2013-05-08 09:36:00,57.2,51.8,29.98,WSW,244,0.0,0.0,82,0.00,,---,0.00,VWS V14.01,2013-05-08 13:36:00,
2013-05-08 09:37:00,57.0,51.6,29.98,WSW,244,0.0,0.0,82,0.00,,---,0.00,VWS V14.01,2013-05-08 13:37:00,
2013-05-08 09:38:00,57.0,51.6,29.98,WSW,244,0.0,0.0,82,0.00,,---,0.00,VWS V14.01,2013-05-08 13:38:00,
2013-05-08 09:39:00,57.0,51.6,29.98,WSW,244,0.0,0.0,82,0.00,,---,0.00,VWS V14.01,2013-05-08 13:39:00,
2013-05-08 09:40:00,57.0,51.6,29.98,WSW,244,0.0,0.0,82,0.00,,---,0.00,VWS V14.01,2013-05-08 13:40:00,
2013-05-08 09:41:00,57.0,51.6,29.98,WSW,244,0.0,0.0,82,0.00,,---,0.00,VWS V14.01,2013-05-08 13:41:00,
2013-05-08 09:42:00,56.9,51.5,29.98,WSW,244,0.0,0.0,82,0.00,,---,0.00,VWS V14.01,2013-05-08 13:42:00,
2013-05-08 09:43:00,56.9,51.5,29.98,WSW,244,0.0,0.0,82,0.00,,---,0.00,VWS V14.01,2013-05-08 13:43:00,
2013-05-08 09:44:00,56.9,51.8,29.98,WSW,244,0.0,0.0,83,0.00,,---,0.00,VWS V14.01,2013-05-08 13:44:00,
2013-05-08 09:45:00,56.9,51.8,29.99,WSW,244,0.0,0.0,83,0.00,,---,0.00,VWS V14.01,2013-05-08 13:45:00,
2013-05-08 09:46:00,56.9,51.8,29.99,WSW,244,0.0,0.0,83,0.00,,---,0.00,VWS V14.01,2013-05-08 13:46:00,
2013-05-08 09:47:00,56.9,51.8,29.99,WSW,244,0.0,0.0,83,0.00,,---,0.00,VWS V14.01,2013-05-08 13:47:00,
2013-05-08 09:48:00,56.9,51.8,29.99,WSW,244,0.0,0.0,83,0.00,,---,0.00,VWS V14.01,2013-05-08 13:48:00,
2013-05-08 09:49:00,56.7,51.6,29.99,WSW,244,0.0,0.0,83,0.00,,---,0.00,VWS V14.01,2013-05-08 13:49:00,
2013-05-08 09:50:00,56.7,51.9,29.99,WSW,244,0.0,0.0,84,0.00,,---,0.00,VWS V14.01,2013-05-08 13:50:00,
2013-05-08 09:51:00,56.7,51.9,29.99,WSW,244,0.0,0.0,84,0.00,,---,0.00,VWS V14.01,2013-05-08 13:51:00,
2013-05-08 09:52:00,56.7,51.9,29.99,WSW,244,0.0,0.0,84,0.00,,---,0.00,VWS V14.01,2013-05-08 13:52:00,
2013-05-08 09:53:00,56.7,51.9,29.99,WSW,244,0.0,0.0,84,0.00,,---,0.00,VWS V14.01,2013-05-08 13:53:00,
2013-05-08 09:54:00,56.7,51.9,29.99,WSW,244,0.0,0.0,84,0.00,,---,0.00,VWS V14.01,2013-05-08 13:54:00,
2013-05-08 09:55:00,56.7,51.9,29.99,WSW,244,0.0,0.0,84,0.00,,---,0.00,VWS V14.01,2013-05-08 13:55:00,
2013-05-08 09:56:00,56.7,51.9,29.99,WSW,244,0.0,0.0,84,0.00,,---,0.00,VWS V14.01,2013-05-08 13:56:00,
2013-05-08 09:57:00,56.7,51.9,29.99,WSW,244,0.0,0.0,84,0.00,,---,0.00,VWS V14.01,2013-05-08 13:57:00,
2013-05-08 09:58:00,56.7,51.9,29.99,WSW,244,0.0,0.0,84,0.00,,---,0.00,VWS V14.01,2013-05-08 13:58:00,
2013-05-08 09:59:00,56.7,52.2,29.99,WSW,244,0.0,0.0,85,0.00,,---,0.00,VWS V14.01,2013-05-08 13:59:00,
2013-05-08 10:00:00,56.7,52.2,29.99,WSW,244,0.0,0.0,85,0.00,,---,0.00,VWS V14.01,2013-05-08 14:00:00,
2013-05-08 10:01:00,56.7,52.2,29.99,WSW,244,0.0,2.0,85,0.00,,---,0.00,VWS V14.01,2013-05-08 14:01:00,
2013-05-08 10:02:00,56.9,52.4,29.99,WSW,244,0.0,2.0,85,0.00,,---,0.00,VWS V14.01,2013-05-08 14:02:00,
2013-05-08 10:03:00,56.9,52.4,29.99,WSW,244,0.0,2.0,85,0.00,,---,0.00,VWS V14.01,2013-05-08 14:03:00,
2013-05-08 10:04:00,56.9,52.4,29.99,WSW,244,2.0,2.0,85,0.00,,---,0.00,VWS V14.01,2013-05-08 14:04:00,
2013-05-08 10:05:00,56.9,52.4,29.99,WSW,244,0.0,2.0,85,0.00,,---,0.00,VWS V14.01,2013-05-08 14:05:00,
2013-05-08 10:06:00,56.9,52.4,29.99,WSW,244,0.0,2.0,85,0.00,,---,0.00,VWS V14.01,2013-05-08 14:06:00,
2013-05-08 10:07:00,56.9,52.4,29.99,West,259,0.0,2.0,85,0.00,,---,0.00,VWS V14.01,2013-05-08 14:07:00,
2013-05-08 10:08:00,56.9,52.4,29.99,West,259,0.0,2.0,85,0.00,,---,0.00,VWS V14.01,2013-05-08 14:08:00,
2013-05-08 10:09:00,56.9,52.4,29.99,West,259,0.0,2.0,85,0.00,,---,0.00,VWS V14.01,2013-05-08 14:09:00,
2013-05-08 10:10:00,56.9,52.4,29.99,West,259,0.0,2.0,85,0.00,,---,0.00,VWS V14.01,2013-05-08 14:10:00,
2013-05-08 10:11:00,56.9,52.4,29.99,West,259,0.0,0.0,85,0.00,,---,0.00,VWS V14.01,2013-05-08 14:11:00,
2013-05-08 10:12:00,56.9,52.4,29.99,West,259,0.0,0.0,85,0.00,,---,0.00,VWS V14.01,2013-05-08 14:12:00,
2013-05-08 10:13:00,56.9,52.4,29.99,West,259,0.0,0.0,85,0.00,,---,0.00,VWS V14.01,2013-05-08 14:13:00,
2013-05-08 10:14:00,56.9,52.4,29.99,West,259,0.0,0.0,85,0.00,,---,0.00,VWS V14.01,2013-05-08 14:14:00,
2013-05-08 10:15:00,56.9,52.4,29.98,West,259,0.0,0.0,85,0.00,,---,0.00,VWS V14.01,2013-05-08 14:15:00,
2013-05-08 10:16:00,56.9,52.4,29.98,West,259,0.0,0.0,85,0.00,,---,0.00,VWS V14.01,2013-05-08 14:16:00,
2013-05-08 10:17:00,56.9,52.4,29.98,West,259,0.0,0.0,85,0.00,,---,0.00,VWS V14.01,2013-05-08 14:17:00,
2013-05-08 10:18:00,56.9,52.4,29.98,West,259,0.0,0.0,85,0.00,,---,0.00,VWS V14.01,2013-05-08 14:18:00,
2013-05-08 10:19:00,56.9,52.4,29.98,West,259,0.0,0.0,85,0.00,,---,0.00,VWS V14.01,2013-05-08 14:19:00,
2013-05-08 10:20:00,56.9,52.4,29.98,West,259,0.0,0.0,85,0.00,,---,0.00,VWS V14.01,2013-05-08 14:20:00,
2013-05-08 10:21:00,56.9,52.4,29.98,West,259,0.0,0.0,85,0.00,,---,0.00,VWS V14.01,2013-05-08 14:21:00,
2013-05-08 10:22:00,56.9,52.4,29.98,West,259,0.0,0.0,85,0.00,,---,0.00,VWS V14.01,2013-05-08 14:22:00,
2013-05-08 10:23:00,56.9,52.4,29.98,West,259,0.0,0.0,85,0.00,,---,0.00,VWS V14.01,2013-05-08 14:23:00,
2013-05-08 10:24:00,56.9,52.4,29.98,West,259,0.0,0.0,85,0.00,,---,0.00,VWS V14.01,2013-05-08 14:24:00,
2013-05-08 10:25:00,56.9,52.4,29.98,West,259,0.0,0.0,85,0.00,,---,0.00,VWS V14.01,2013-05-08 14:25:00,
2013-05-08 10:26:00,56.9,52.4,29.98,West,259,0.0,0.0,85,0.00,,---,0.00,VWS V14.01,2013-05-08 14:26:00,
2013-05-08 10:27:00,56.9,52.4,29.98,West,259,0.0,0.0,85,0.00,,---,0.00,VWS V14.01,2013-05-08 14:27:00,
2013-05-08 10:28:00,56.9,52.4,29.98,West,259,0.0,0.0,85,0.00,,---,0.00,VWS V14.01,2013-05-08 14:28:00,
2013-05-08 10:29:00,56.9,52.4,29.98,West,259,0.0,0.0,85,0.00,,---,0.00,VWS V14.01,2013-05-08 14:29:00,
2013-05-08 10:30:00,56.7,52.2,29.98,West,259,0.0,0.0,85,0.00,,---,0.00,VWS V14.01,2013-05-08 14:30:00,
2013-05-08 10:31:00,56.7,52.2,29.98,West,259,0.0,0.0,85,0.00,,---,0.00,VWS V14.01,2013-05-08 14:31:00,
2013-05-08 10:32:00,56.7,52.2,29.98,West,259,0.0,0.0,85,0.00,,---,0.00,VWS V14.01,2013-05-08 14:32:00,
2013-05-08 10:33:00,56.7,52.2,29.98,West,259,0.0,0.0,85,0.00,,---,0.00,VWS V14.01,2013-05-08 14:33:00,
2013-05-08 10:34:00,56.7,52.2,29.98,West,259,0.0,0.0,85,0.00,,---,0.00,VWS V14.01,2013-05-08 14:34:00,
2013-05-08 10:35:00,56.7,52.2,29.98,West,259,0.0,0.0,85,0.00,,---,0.00,VWS V14.01,2013-05-08 14:35:00,
2013-05-08 10:36:00,56.7,52.2,29.98,West,259,0.0,0.0,85,0.00,,---,0.00,VWS V14.01,2013-05-08 14:36:00,
2013-05-08 10:37:00,56.7,52.2,29.98,West,259,0.0,0.0,85,0.00,,---,0.00,VWS V14.01,2013-05-08 14:37:00,
2013-05-08 10:38:00,56.7,52.2,29.98,West,259,0.0,0.0,85,0.00,,---,0.00,VWS V14.01,2013-05-08 14:38:00,
2013-05-08 10:39:00,56.6,52.2,29.98,West,259,0.0,0.0,85,0.00,,---,0.00,VWS V14.01,2013-05-08 14:39:00,
2013-05-08 10:40:00,56.6,52.2,29.98,West,259,0.0,0.0,85,0.00,,---,0.00,VWS V14.01,2013-05-08 14:40:00,
2013-05-08 10:41:00,56.6,52.2,29.98,West,259,0.0,0.0,85,0.00,,---,0.00,VWS V14.01,2013-05-08 14:41:00,
2013-05-08 10:42:00,56.6,52.2,29.98,West,259,0.0,0.0,85,0.00,,---,0.00,VWS V14.01,2013-05-08 14:42:00,
2013-05-08 10:43:00,56.6,52.2,29.98,West,259,0.0,0.0,85,0.00,,---,0.00,VWS V14.01,2013-05-08 14:43:00,
2013-05-08 10:44:00,56.5,52.0,29.98,West,259,0.0,0.0,85,0.00,,---,0.00,VWS V14.01,2013-05-08 14:44:00,
2013-05-08 10:45:00,56.5,52.0,29.99,West,259,0.0,0.0,85,0.00,,---,0.00,VWS V14.01,2013-05-08 14:45:00,
2013-05-08 10:46:00,56.5,52.0,29.99,West,259,0.0,0.0,85,0.00,,---,0.00,VWS V14.01,2013-05-08 14:46:00,
2013-05-08 10:47:00,56.5,52.0,29.99,West,259,0.0,0.0,85,0.00,,---,0.00,VWS V14.01,2013-05-08 14:47:00,
2013-05-08 10:48:00,56.5,52.0,29.99,West,259,0.0,0.0,85,0.00,,---,0.00,VWS V14.01,2013-05-08 14:48:00,
2013-05-08 10:49:00,56.5,52.0,29.99,West,259,0.0,0.0,85,0.00,,---,0.00,VWS V14.01,2013-05-08 14:49:00,
2013-05-08 10:50:00,56.3,51.9,29.99,West,259,0.0,0.0,85,0.00,,---,0.00,VWS V14.01,2013-05-08 14:50:00,
2013-05-08 10:51:00,56.3,51.9,29.99,West,259,0.0,0.0,85,0.00,,---,0.00,VWS V14.01,2013-05-08 14:51:00,
2013-05-08 10:52:00,56.3,51.9,29.99,West,259,0.0,0.0,85,0.00,,---,0.00,VWS V14.01,2013-05-08 14:52:00,
2013-05-08 10:53:00,56.3,51.9,29.99,West,259,0.0,0.0,85,0.00,,---,0.00,VWS V14.01,2013-05-08 14:53:00,
2013-05-08 10:54:00,56.3,51.9,29.99,West,259,0.0,0.0,85,0.00,,---,0.00,VWS V14.01,2013-05-08 14:54:00,
2013-05-08 10:55:00,56.3,51.9,29.99,West,259,0.0,0.0,85,0.00,,---,0.00,VWS V14.01,2013-05-08 14:55:00,
2013-05-08 10:56:00,56.2,51.8,29.99,West,259,0.0,0.0,85,0.00,,---,0.00,VWS V14.01,2013-05-08 14:56:00,
2013-05-08 10:57:00,56.2,51.8,29.99,West,259,0.0,0.0,85,0.00,,---,0.00,VWS V14.01,2013-05-08 14:57:00,
2013-05-08 10:58:00,56.2,51.8,29.99,West,259,0.0,0.0,85,0.00,,---,0.00,VWS V14.01,2013-05-08 14:58:00,
2013-05-08 10:59:00,56.2,51.8,29.99,West,259,0.0,0.0,85,0.00,,---,0.00,VWS V14.01,2013-05-08 14:59:00,
2013-05-08 11:00:00,56.0,51.6,29.99,West,259,0.0,0.0,85,0.00,,---,0.00,VWS V14.01,2013-05-08 15:00:00,
2013-05-08 11:01:00,56.0,51.6,29.99,West,259,0.0,0.0,85,0.00,,---,0.00,VWS V14.01,2013-05-08 15:01:00,
2013-05-08 11:02:00,56.0,51.6,29.99,West,259,0.0,0.0,85,0.00,,---,0.00,VWS V14.01,2013-05-08 15:02:00,
2013-05-08 11:03:00,56.0,51.6,29.99,West,259,0.0,0.0,85,0.00,,---,0.00,VWS V14.01,2013-05-08 15:03:00,
2013-05-08 11:04:00,55.9,51.8,29.99,West,259,0.0,0.0,86,0.00,,---,0.00,VWS V14.01,2013-05-08 15:04:00,
2013-05-08 11:05:00,55.9,51.8,29.99,West,259,0.0,0.0,86,0.00,,---,0.00,VWS V14.01,2013-05-08 15:05:00,
2013-05-08 11:06:00,55.9,51.8,29.99,West,259,0.0,0.0,86,0.00,,---,0.00,VWS V14.01,2013-05-08 15:06:00,
2013-05-08 11:07:00,55.7,51.6,29.99,West,259,0.0,0.0,86,0.00,,---,0.00,VWS V14.01,2013-05-08 15:07:00,
2013-05-08 11:08:00,55.7,51.6,29.99,West,259,0.0,0.0,86,0.00,,---,0.00,VWS V14.01,2013-05-08 15:08:00,
2013-05-08 11:09:00,55.7,51.6,29.99,West,259,0.0,0.0,86,0.00,,---,0.00,VWS V14.01,2013-05-08 15:09:00,
2013-05-08 11:10:00,55.6,51.5,29.99,West,259,0.0,0.0,86,0.00,,---,0.00,VWS V14.01,2013-05-08 15:10:00,
2013-05-08 11:11:00,55.6,51.5,29.99,West,259,0.0,0.0,86,0.00,,---,0.00,VWS V14.01,2013-05-08 15:11:00,
2013-05-08 11:12:00,55.6,51.5,29.99,West,259,0.0,0.0,86,0.00,,---,0.00,VWS V14.01,2013-05-08 15:12:00,
2013-05-08 11:13:00,55.4,51.3,29.99,West,259,0.0,0.0,86,0.00,,---,0.00,VWS V14.01,2013-05-08 15:13:00,
2013-05-08 11:14:00,55.4,51.3,29.99,West,259,0.0,0.0,86,0.00,,---,0.00,VWS V14.01,2013-05-08 15:14:00,
2013-05-08 11:15:00,55.4,51.3,29.99,West,259,0.0,0.0,86,0.00,,---,0.00,VWS V14.01,2013-05-08 15:15:00,
2013-05-08 11:16:00,55.4,51.3,29.99,West,259,0.0,0.0,86,0.00,,---,0.00,VWS V14.01,2013-05-08 15:16:00,
2013-05-08 11:17:00,55.3,51.2,29.99,West,259,0.0,0.0,86,0.00,,---,0.00,VWS V14.01,2013-05-08 15:17:00,
2013-05-08 11:18:00,55.3,51.2,29.99,West,259,0.0,0.0,86,0.00,,---,0.00,VWS V14.01,2013-05-08 15:18:00,
2013-05-08 11:19:00,55.1,51.0,29.99,West,259,0.0,0.0,86,0.00,,---,0.00,VWS V14.01,2013-05-08 15:19:00,
2013-05-08 11:20:00,55.1,51.0,29.99,West,259,0.0,0.0,86,0.00,,---,0.00,VWS V14.01,2013-05-08 15:20:00,
2013-05-08 11:21:00,55.0,50.9,29.99,West,259,0.0,0.0,86,0.00,,---,0.00,VWS V14.01,2013-05-08 15:21:00,
2013-05-08 11:22:00,55.0,50.9,29.99,West,259,0.0,0.0,86,0.00,,---,0.00,VWS V14.01,2013-05-08 15:22:00,
2013-05-08 11:23:00,55.0,50.9,29.99,West,259,0.0,0.0,86,0.00,,---,0.00,VWS V14.01,2013-05-08 15:23:00,
2013-05-08 11:24:00,54.8,50.7,29.99,West,259,0.0,0.0,86,0.00,,---,0.00,VWS V14.01,2013-05-08 15:24:00,
2013-05-08 11:25:00,54.8,51.0,29.99,West,259,0.0,0.0,87,0.00,,---,0.00,VWS V14.01,2013-05-08 15:25:00,
2013-05-08 11:26:00,54.8,51.0,29.99,West,259,0.0,0.0,87,0.00,,---,0.00,VWS V14.01,2013-05-08 15:26:00,
2013-05-08 11:27:00,54.7,50.9,29.99,West,259,0.0,0.0,87,0.00,,---,0.00,VWS V14.01,2013-05-08 15:27:00,
2013-05-08 11:28:00,54.7,50.9,29.99,West,259,0.0,0.0,87,0.00,,---,0.00,VWS V14.01,2013-05-08 15:28:00,
2013-05-08 11:29:00,54.5,50.7,29.99,West,259,0.0,0.0,87,0.00,,---,0.00,VWS V14.01,2013-05-08 15:29:00,
2013-05-08 11:30:00,54.5,50.7,29.99,West,259,0.0,0.0,87,0.00,,---,0.00,VWS V14.01,2013-05-08 15:30:00,
2013-05-08 11:31:00,54.5,50.7,29.99,West,259,0.0,0.0,87,0.00,,---,0.00,VWS V14.01,2013-05-08 15:31:00,
2013-05-08 11:32:00,54.4,50.6,29.99,West,259,0.0,0.0,87,0.00,,---,0.00,VWS V14.01,2013-05-08 15:32:00,
2013-05-08 11:33:00,54.4,50.6,29.99,West,259,0.0,0.0,87,0.00,,---,0.00,VWS V14.01,2013-05-08 15:33:00,
2013-05-08 11:34:00,54.4,50.6,29.99,West,259,0.0,0.0,87,0.00,,---,0.00,VWS V14.01,2013-05-08 15:34:00,
2013-05-08 11:35:00,54.2,50.4,29.99,West,259,0.0,0.0,87,0.00,,---,0.00,VWS V14.01,2013-05-08 15:35:00,
2013-05-08 11:36:00,54.2,50.4,29.99,West,259,0.0,0.0,87,0.00,,---,0.00,VWS V14.01,2013-05-08 15:36:00,
2013-05-08 11:37:00,54.2,50.4,29.99,West,259,0.0,0.0,87,0.00,,---,0.00,VWS V14.01,2013-05-08 15:37:00,
2013-05-08 11:38:00,54.1,50.3,29.99,West,259,0.0,0.0,87,0.00,,---,0.00,VWS V14.01,2013-05-08 15:38:00,
2013-05-08 11:39:00,54.1,50.3,29.99,West,259,0.0,0.0,87,0.00,,---,0.00,VWS V14.01,2013-05-08 15:39:00,
2013-05-08 11:40:00,54.1,50.3,29.99,West,259,0.0,0.0,87,0.00,,---,0.00,VWS V14.01,2013-05-08 15:40:00,
2013-05-08 11:41:00,53.9,50.4,29.99,West,259,0.0,0.0,88,0.00,,---,0.00,VWS V14.01,2013-05-08 15:41:00,
2013-05-08 11:42:00,53.9,50.4,29.99,West,259,0.0,0.0,88,0.00,,---,0.00,VWS V14.01,2013-05-08 15:42:00,
2013-05-08 11:43:00,53.9,50.4,29.99,West,259,0.0,0.0,88,0.00,,---,0.00,VWS V14.01,2013-05-08 15:43:00,
2013-05-08 11:44:00,53.9,50.4,29.99,West,259,0.0,0.0,88,0.00,,---,0.00,VWS V14.01,2013-05-08 15:44:00,
2013-05-08 11:45:00,53.8,50.3,29.99,West,259,0.0,0.0,88,0.00,,---,0.00,VWS V14.01,2013-05-08 15:45:00,
2013-05-08 11:46:00,53.8,50.3,29.99,West,259,0.0,0.0,88,0.00,,---,0.00,VWS V14.01,2013-05-08 15:46:00,
2013-05-08 11:47:00,53.8,50.3,29.99,West,259,0.0,0.0,88,0.00,,---,0.00,VWS V14.01,2013-05-08 15:47:00,
2013-05-08 11:48:00,53.6,50.1,29.99,West,259,0.0,0.0,88,0.00,,---,0.00,VWS V14.01,2013-05-08 15:48:00,
2013-05-08 11:49:00,53.6,50.1,29.99,West,259,0.0,0.0,88,0.00,,---,0.00,VWS V14.01,2013-05-08 15:49:00,
2013-05-08 11:50:00,53.6,50.1,29.99,West,259,0.0,0.0,88,0.00,,---,0.00,VWS V14.01,2013-05-08 15:50:00,
2013-05-08 11:51:00,53.6,50.1,29.99,West,259,0.0,0.0,88,0.00,,---,0.00,VWS V14.01,2013-05-08 15:51:00,
2013-05-08 11:52:00,53.5,50.0,29.99,West,259,0.0,0.0,88,0.00,,---,0.00,VWS V14.01,2013-05-08 15:52:00,
2013-05-08 11:53:00,53.5,50.0,29.99,West,259,0.0,0.0,88,0.00,,---,0.00,VWS V14.01,2013-05-08 15:53:00,
2013-05-08 11:54:00,53.5,50.0,29.99,West,259,0.0,0.0,88,0.00,,---,0.00,VWS V14.01,2013-05-08 15:54:00,
2013-05-08 11:55:00,53.3,49.8,29.99,West,259,0.0,0.0,88,0.00,,---,0.00,VWS V14.01,2013-05-08 15:55:00,
2013-05-08 11:56:00,53.3,49.8,29.99,West,259,0.0,0.0,88,0.00,,---,0.00,VWS V14.01,2013-05-08 15:56:00,
2013-05-08 11:57:00,53.3,49.8,29.99,West,259,0.0,0.0,88,0.00,,---,0.00,VWS V14.01,2013-05-08 15:57:00,
2013-05-08 11:58:00,53.2,49.7,29.99,West,259,0.0,0.0,88,0.00,,---,0.00,VWS V14.01,2013-05-08 15:58:00,
2013-05-08 11:59:00,53.2,49.7,29.99,West,259,0.0,0.0,88,0.00,,---,0.00,VWS V14.01,2013-05-08 15:59:00,
2013-05-08 12:00:00,53.2,49.7,29.99,West,259,0.0,0.0,88,0.00,,---,0.00,VWS V14.01,2013-05-08 16:00:00,
2013-05-08 12:01:00,53.1,49.7,29.99,West,259,0.0,0.0,88,0.00,,---,0.00,VWS V14.01,2013-05-08 16:01:00,
2013-05-08 12:02:00,53.1,50.0,29.99,West,259,0.0,0.0,89,0.00,,---,0.00,VWS V14.01,2013-05-08 16:02:00,
2013-05-08 12:03:00,53.1,50.0,29.99,West,259,0.0,0.0,89,0.00,,---,0.00,VWS V14.01,2013-05-08 16:03:00,
2013-05-08 12:04:00,52.9,49.8,29.99,West,259,0.0,0.0,89,0.00,,---,0.00,VWS V14.01,2013-05-08 16:04:00,
2013-05-08 12:05:00,52.9,49.8,29.99,West,259,0.0,0.0,89,0.00,,---,0.00,VWS V14.01,2013-05-08 16:05:00,
2013-05-08 12:06:00,52.9,49.8,29.99,West,259,0.0,0.0,89,0.00,,---,0.00,VWS V14.01,2013-05-08 16:06:00,
2013-05-08 12:07:00,52.9,49.8,29.99,West,259,0.0,0.0,89,0.00,,---,0.00,VWS V14.01,2013-05-08 16:07:00,
2013-05-08 12:08:00,52.9,49.8,29.99,West,259,0.0,0.0,89,0.00,,---,0.00,VWS V14.01,2013-05-08 16:08:00,
2013-05-08 12:09:00,52.9,49.8,29.99,West,259,0.0,0.0,89,0.00,,---,0.00,VWS V14.01,2013-05-08 16:09:00,
2013-05-08 12:10:00,52.8,49.7,29.99,West,259,0.0,0.0,89,0.00,,---,0.00,VWS V14.01,2013-05-08 16:10:00,
2013-05-08 12:11:00,52.8,49.7,29.99,West,259,0.0,0.0,89,0.00,,---,0.00,VWS V14.01,2013-05-08 16:11:00,
2013-05-08 12:12:00,52.8,49.7,29.99,West,259,0.0,0.0,89,0.00,,---,0.00,VWS V14.01,2013-05-08 16:12:00,
2013-05-08 12:13:00,52.8,49.7,29.99,West,259,0.0,0.0,89,0.00,,---,0.00,VWS V14.01,2013-05-08 16:13:00,
2013-05-08 12:14:00,52.6,49.5,29.99,West,259,0.0,0.0,89,0.00,,---,0.00,VWS V14.01,2013-05-08 16:14:00,
2013-05-08 12:15:00,52.6,49.5,29.99,West,259,0.0,0.0,89,0.00,,---,0.00,VWS V14.01,2013-05-08 16:15:00,
2013-05-08 12:16:00,52.6,49.5,29.99,West,259,0.0,0.0,89,0.00,,---,0.00,VWS V14.01,2013-05-08 16:16:00,
2013-05-08 12:17:00,52.5,49.4,29.99,West,259,0.0,0.0,89,0.00,,---,0.00,VWS V14.01,2013-05-08 16:17:00,
2013-05-08 12:18:00,52.5,49.4,29.99,West,259,0.0,0.0,89,0.00,,---,0.00,VWS V14.01,2013-05-08 16:18:00,
2013-05-08 12:19:00,52.5,49.4,29.99,West,259,0.0,0.0,89,0.00,,---,0.00,VWS V14.01,2013-05-08 16:19:00,
2013-05-08 12:20:00,52.5,49.4,29.99,West,259,0.0,0.0,89,0.00,,---,0.00,VWS V14.01,2013-05-08 16:20:00,
2013-05-08 12:21:00,52.5,49.4,29.99,West,259,0.0,0.0,89,0.00,,---,0.00,VWS V14.01,2013-05-08 16:21:00,
2013-05-08 12:22:00,52.3,49.2,29.99,West,259,0.0,0.0,89,0.00,,---,0.00,VWS V14.01,2013-05-08 16:22:00,
2013-05-08 12:23:00,52.3,49.2,29.99,West,259,0.0,0.0,89,0.00,,---,0.00,VWS V14.01,2013-05-08 16:23:00,
2013-05-08 12:24:00,52.3,49.2,29.99,West,259,0.0,0.0,89,0.00,,---,0.00,VWS V14.01,2013-05-08 16:24:00,
2013-05-08 12:25:00,52.3,49.2,29.99,West,259,0.0,0.0,89,0.00,,---,0.00,VWS V14.01,2013-05-08 16:25:00,
2013-05-08 12:26:00,52.2,49.1,29.99,West,259,0.0,0.0,89,0.00,,---,0.00,VWS V14.01,2013-05-08 16:26:00,
2013-05-08 12:27:00,52.2,49.1,29.99,West,259,0.0,0.0,89,0.00,,---,0.00,VWS V14.01,2013-05-08 16:27:00,
2013-05-08 12:28:00,52.2,49.1,29.99,West,259,0.0,0.0,89,0.00,,---,0.00,VWS V14.01,2013-05-08 16:28:00,
2013-05-08 12:29:00,52.2,49.1,29.99,West,259,0.0,0.0,89,0.00,,---,0.00,VWS V14.01,2013-05-08 16:29:00,
2013-05-08 12:30:00,52.0,48.9,30.00,West,259,0.0,0.0,89,0.00,,---,0.00,VWS V14.01,2013-05-08 16:30:00,
2013-05-08 12:31:00,52.0,48.9,30.00,West,259,0.0,0.0,89,0.00,,---,0.00,VWS V14.01,2013-05-08 16:31:00,
2013-05-08 12:32:00,52.0,48.9,30.00,West,259,0.0,0.0,89,0.00,,---,0.00,VWS V14.01,2013-05-08 16:32:00,
2013-05-08 12:33:00,52.0,48.9,30.00,West,259,0.0,0.0,89,0.00,,---,0.00,VWS V14.01,2013-05-08 16:33:00,
2013-05-08 12:34:00,51.9,48.8,30.00,West,259,0.0,0.0,89,0.00,,---,0.00,VWS V14.01,2013-05-08 16:34:00,
2013-05-08 12:35:00,51.9,48.8,30.00,West,259,0.0,0.0,89,0.00,,---,0.00,VWS V14.01,2013-05-08 16:35:00,
2013-05-08 12:36:00,51.9,48.8,30.00,West,259,0.0,0.0,89,0.00,,---,0.00,VWS V14.01,2013-05-08 16:36:00,
2013-05-08 12:37:00,51.7,48.6,30.00,West,259,0.0,0.0,89,0.00,,---,0.00,VWS V14.01,2013-05-08 16:37:00,
2013-05-08 12:38:00,51.7,48.6,30.00,West,259,0.0,0.0,89,0.00,,---,0.00,VWS V14.01,2013-05-08 16:38:00,
2013-05-08 12:39:00,51.7,48.6,30.00,West,259,0.0,0.0,89,0.00,,---,0.00,VWS V14.01,2013-05-08 16:39:00,
2013-05-08 12:40:00,51.7,48.6,30.00,West,259,0.0,0.0,89,0.00,,---,0.00,VWS V14.01,2013-05-08 16:40:00,
2013-05-08 12:41:00,51.7,48.6,30.00,West,259,0.0,0.0,89,0.00,,---,0.00,VWS V14.01,2013-05-08 16:41:00,
2013-05-08 12:42:00,51.6,48.5,30.00,West,259,0.0,0.0,89,0.00,,---,0.00,VWS V14.01,2013-05-08 16:42:00,
2013-05-08 12:43:00,51.6,48.5,30.00,West,259,0.0,0.0,89,0.00,,---,0.00,VWS V14.01,2013-05-08 16:43:00,
2013-05-08 12:44:00,51.6,48.5,30.00,West,259,0.0,0.0,89,0.00,,---,0.00,VWS V14.01,2013-05-08 16:44:00,
2013-05-08 12:45:00,51.6,48.8,30.00,West,259,0.0,0.0,90,0.00,,---,0.00,VWS V14.01,2013-05-08 16:45:00,
2013-05-08 12:46:00,51.6,48.8,30.00,West,259,0.0,0.0,90,0.00,,---,0.00,VWS V14.01,2013-05-08 16:46:00,
2013-05-08 12:47:00,51.6,48.8,30.00,West,259,0.0,0.0,90,0.00,,---,0.00,VWS V14.01,2013-05-08 16:47:00,
2013-05-08 12:48:00,51.6,48.8,30.00,West,259,0.0,0.0,90,0.00,,---,0.00,VWS V14.01,2013-05-08 16:48:00,
2013-05-08 12:49:00,51.6,48.8,30.00,West,259,0.0,0.0,90,0.00,,---,0.00,VWS V14.01,2013-05-08 16:49:00,
2013-05-08 12:50:00,51.4,48.6,30.00,West,259,0.0,0.0,90,0.00,,---,0.00,VWS V14.01,2013-05-08 16:50:00,
2013-05-08 12:51:00,51.4,48.6,30.00,West,259,0.0,0.0,90,0.00,,---,0.00,VWS V14.01,2013-05-08 16:51:00,
2013-05-08 12:52:00,51.4,48.6,30.00,West,259,0.0,0.0,90,0.00,,---,0.00,VWS V14.01,2013-05-08 16:52:00,
2013-05-08 12:53:00,51.4,48.6,30.00,West,259,0.0,0.0,90,0.00,,---,0.00,VWS V14.01,2013-05-08 16:53:00,
2013-05-08 12:54:00,51.4,48.6,30.00,West,259,0.0,0.0,90,0.00,,---,0.00,VWS V14.01,2013-05-08 16:54:00,
2013-05-08 12:55:00,51.4,48.6,30.00,West,259,0.0,0.0,90,0.00,,---,0.00,VWS V14.01,2013-05-08 16:55:00,
2013-05-08 12:56:00,51.4,48.6,30.00,West,259,0.0,0.0,90,0.00,,---,0.00,VWS V14.01,2013-05-08 16:56:00,
2013-05-08 12:57:00,51.4,48.6,30.00,West,259,0.0,0.0,90,0.00,,---,0.00,VWS V14.01,2013-05-08 16:57:00,
2013-05-08 12:58:00,51.4,48.6,30.00,West,259,0.0,0.0,90,0.00,,---,0.00,VWS V14.01,2013-05-08 16:58:00,
2013-05-08 12:59:00,51.4,48.6,30.00,West,259,0.0,0.0,90,0.00,,---,0.00,VWS V14.01,2013-05-08 16:59:00,
2013-05-08 13:00:00,51.3,48.5,30.00,West,259,0.0,0.0,90,0.00,,---,0.00,VWS V14.01,2013-05-08 17:00:00,
2013-05-08 13:01:00,51.3,48.5,30.00,West,259,0.0,0.0,90,0.00,,---,0.00,VWS V14.01,2013-05-08 17:01:00,
2013-05-08 13:02:00,51.3,48.5,30.00,West,259,0.0,0.0,90,0.00,,---,0.00,VWS V14.01,2013-05-08 17:02:00,
2013-05-08 13:03:00,51.3,48.5,30.00,West,259,0.0,0.0,90,0.00,,---,0.00,VWS V14.01,2013-05-08 17:03:00,
2013-05-08 13:04:00,51.3,48.5,30.00,West,259,0.0,0.0,90,0.00,,---,0.00,VWS V14.01,2013-05-08 17:04:00,
2013-05-08 13:05:00,51.3,48.5,30.00,West,259,0.0,0.0,90,0.00,,---,0.00,VWS V14.01,2013-05-08 17:05:00,
2013-05-08 13:06:00,51.3,48.5,30.00,West,259,0.0,0.0,90,0.00,,---,0.00,VWS V14.01,2013-05-08 17:06:00,
2013-05-08 13:07:00,51.3,48.5,30.00,West,259,0.0,0.0,90,0.00,,---,0.00,VWS V14.01,2013-05-08 17:07:00,
2013-05-08 13:08:00,51.3,48.5,30.00,West,259,0.0,0.0,90,0.00,,---,0.00,VWS V14.01,2013-05-08 17:08:00,
2013-05-08 13:09:00,51.3,48.8,30.00,West,259,0.0,0.0,91,0.00,,---,0.00,VWS V14.01,2013-05-08 17:09:00,
2013-05-08 13:10:00,51.3,48.8,30.00,West,259,0.0,0.0,91,0.00,,---,0.00,VWS V14.01,2013-05-08 17:10:00,
2013-05-08 13:11:00,51.3,48.8,30.00,West,259,0.0,0.0,91,0.00,,---,0.00,VWS V14.01,2013-05-08 17:11:00,
2013-05-08 13:12:00,51.3,48.8,30.00,West,259,0.0,0.0,91,0.00,,---,0.00,VWS V14.01,2013-05-08 17:12:00,
2013-05-08 13:13:00,51.3,48.8,30.00,West,259,0.0,0.0,91,0.00,,---,0.00,VWS V14.01,2013-05-08 17:13:00,
2013-05-08 13:14:00,51.1,48.6,30.00,West,259,0.0,0.0,91,0.00,,---,0.00,VWS V14.01,2013-05-08 17:14:00,
2013-05-08 13:15:00,51.1,48.6,29.99,West,259,0.0,0.0,91,0.00,,---,0.00,VWS V14.01,2013-05-08 17:15:00,
2013-05-08 13:16:00,51.1,48.6,29.99,West,259,0.0,0.0,91,0.00,,---,0.00,VWS V14.01,2013-05-08 17:16:00,
2013-05-08 13:17:00,51.1,48.6,29.99,West,259,0.0,0.0,91,0.00,,---,0.00,VWS V14.01,2013-05-08 17:17:00,
2013-05-08 13:18:00,51.1,48.6,29.99,West,259,0.0,0.0,91,0.00,,---,0.00,VWS V14.01,2013-05-08 17:18:00,
2013-05-08 13:19:00,51.1,48.6,29.99,West,259,0.0,0.0,91,0.00,,---,0.00,VWS V14.01,2013-05-08 17:19:00,
2013-05-08 13:20:00,51.1,48.6,29.99,West,259,0.0,0.0,91,0.00,,---,0.00,VWS V14.01,2013-05-08 17:20:00,
2013-05-08 13:21:00,51.1,48.6,29.99,West,259,0.0,0.0,91,0.00,,---,0.00,VWS V14.01,2013-05-08 17:21:00,
2013-05-08 13:22:00,51.1,48.6,29.99,West,259,0.0,0.0,91,0.00,,---,0.00,VWS V14.01,2013-05-08 17:22:00,
2013-05-08 13:23:00,51.1,48.6,29.99,West,259,0.0,0.0,91,0.00,,---,0.00,VWS V14.01,2013-05-08 17:23:00,
2013-05-08 13:24:00,51.1,48.6,29.99,West,259,0.0,0.0,91,0.00,,---,0.00,VWS V14.01,2013-05-08 17:24:00,
2013-05-08 13:25:00,51.1,48.6,29.99,West,259,0.0,0.0,91,0.00,,---,0.00,VWS V14.01,2013-05-08 17:25:00,
2013-05-08 13:26:00,51.0,48.5,29.99,West,259,0.0,0.0,91,0.00,,---,0.00,VWS V14.01,2013-05-08 17:26:00,
2013-05-08 13:27:00,51.0,48.5,29.99,West,259,0.0,0.0,91,0.00,,---,0.00,VWS V14.01,2013-05-08 17:27:00,
2013-05-08 13:28:00,51.0,48.5,29.99,West,259,0.0,0.0,91,0.00,,---,0.00,VWS V14.01,2013-05-08 17:28:00,
2013-05-08 13:29:00,51.0,48.5,29.99,West,259,0.0,0.0,91,0.00,,---,0.00,VWS V14.01,2013-05-08 17:29:00,
2013-05-08 13:30:00,51.0,48.5,29.98,West,259,0.0,0.0,91,0.00,,---,0.00,VWS V14.01,2013-05-08 17:30:00,
2013-05-08 13:31:00,51.0,48.5,29.98,West,259,0.0,0.0,91,0.00,,---,0.00,VWS V14.01,2013-05-08 17:31:00,
2013-05-08 13:32:00,51.0,48.5,29.98,West,259,0.0,0.0,91,0.00,,---,0.00,VWS V14.01,2013-05-08 17:32:00,
2013-05-08 13:33:00,51.0,48.8,29.98,West,259,0.0,0.0,92,0.00,,---,0.00,VWS V14.01,2013-05-08 17:33:00,
2013-05-08 13:34:00,51.0,48.8,29.98,West,259,0.0,0.0,92,0.00,,---,0.00,VWS V14.01,2013-05-08 17:34:00,
2013-05-08 13:35:00,51.0,48.8,29.98,West,259,0.0,0.0,92,0.00,,---,0.00,VWS V14.01,2013-05-08 17:35:00,
2013-05-08 13:36:00,51.0,48.8,29.98,West,259,0.0,0.0,92,0.00,,---,0.00,VWS V14.01,2013-05-08 17:36:00,
2013-05-08 13:37:00,51.0,48.8,29.98,West,259,0.0,0.0,92,0.00,,---,0.00,VWS V14.01,2013-05-08 17:37:00,
2013-05-08 13:38:00,51.0,48.8,29.98,West,259,0.0,0.0,92,0.00,,---,0.00,VWS V14.01,2013-05-08 17:38:00,
2013-05-08 13:39:00,51.0,48.8,29.98,West,259,0.0,0.0,92,0.00,,---,0.00,VWS V14.01,2013-05-08 17:39:00,
2013-05-08 13:40:00,51.0,48.8,29.98,West,259,0.0,0.0,92,0.00,,---,0.00,VWS V14.01,2013-05-08 17:40:00,
2013-05-08 13:41:00,51.0,48.8,29.98,West,259,0.0,0.0,92,0.00,,---,0.00,VWS V14.01,2013-05-08 17:41:00,
2013-05-08 13:42:00,51.0,48.8,29.98,West,259,0.0,0.0,92,0.00,,---,0.00,VWS V14.01,2013-05-08 17:42:00,
2013-05-08 13:43:00,51.0,48.8,29.98,West,259,0.0,0.0,92,0.00,,---,0.00,VWS V14.01,2013-05-08 17:43:00,
2013-05-08 13:44:00,51.0,48.8,29.98,West,259,0.0,0.0,92,0.00,,---,0.00,VWS V14.01,2013-05-08 17:44:00,
2013-05-08 13:45:00,51.0,48.8,29.99,West,259,0.0,0.0,92,0.00,,---,0.00,VWS V14.01,2013-05-08 17:45:00,
2013-05-08 13:46:00,51.0,48.8,29.99,West,259,0.0,0.0,92,0.00,,---,0.00,VWS V14.01,2013-05-08 17:46:00,
2013-05-08 13:47:00,51.0,48.8,29.99,West,259,0.0,0.0,92,0.00,,---,0.00,VWS V14.01,2013-05-08 17:47:00,
2013-05-08 13:48:00,50.8,48.6,29.99,West,259,0.0,0.0,92,0.00,,---,0.00,VWS V14.01,2013-05-08 17:48:00,
2013-05-08 13:49:00,50.8,48.6,29.99,West,259,0.0,0.0,92,0.00,,---,0.00,VWS V14.01,2013-05-08 17:49:00,
2013-05-08 13:50:00,50.8,48.6,29.99,West,259,0.0,0.0,92,0.00,,---,0.00,VWS V14.01,2013-05-08 17:50:00,
2013-05-08 13:51:00,50.8,48.6,29.99,West,259,0.0,0.0,92,0.00,,---,0.00,VWS V14.01,2013-05-08 17:51:00,
2013-05-08 13:52:00,50.8,48.6,29.99,West,259,0.0,0.0,92,0.00,,---,0.00,VWS V14.01,2013-05-08 17:52:00,
2013-05-08 13:53:00,50.8,48.6,29.99,West,259,0.0,0.0,92,0.00,,---,0.00,VWS V14.01,2013-05-08 17:53:00,
2013-05-08 13:54:00,50.8,48.6,29.99,West,259,0.0,0.0,92,0.00,,---,0.00,VWS V14.01,2013-05-08 17:54:00,
2013-05-08 13:55:00,50.8,48.6,29.99,West,259,0.0,0.0,92,0.00,,---,0.00,VWS V14.01,2013-05-08 17:55:00,
2013-05-08 13:56:00,50.8,48.6,29.99,West,259,0.0,0.0,92,0.00,,---,0.00,VWS V14.01,2013-05-08 17:56:00,
2013-05-08 13:57:00,50.8,48.6,29.99,West,259,0.0,0.0,92,0.00,,---,0.00,VWS V14.01,2013-05-08 17:57:00,
2013-05-08 13:58:00,50.8,48.6,29.99,West,259,0.0,0.0,92,0.00,,---,0.00,VWS V14.01,2013-05-08 17:58:00,
2013-05-08 13:59:00,50.8,48.6,29.99,West,259,0.0,0.0,92,0.00,,---,0.00,VWS V14.01,2013-05-08 17:59:00,
2013-05-08 14:00:00,50.8,48.6,29.98,West,259,0.0,0.0,92,0.00,,---,0.00,VWS V14.01,2013-05-08 18:00:00,
2013-05-08 14:01:00,50.8,48.6,29.98,West,259,0.0,0.0,92,0.00,,---,0.00,VWS V14.01,2013-05-08 18:01:00,
2013-05-08 14:02:00,50.7,48.5,29.98,West,259,0.0,0.0,92,0.00,,---,0.00,VWS V14.01,2013-05-08 18:02:00,
2013-05-08 14:03:00,50.7,48.5,29.98,West,259,0.0,0.0,92,0.00,,---,0.00,VWS V14.01,2013-05-08 18:03:00,
2013-05-08 14:04:00,50.7,48.5,29.98,West,259,0.0,0.0,92,0.00,,---,0.00,VWS V14.01,2013-05-08 18:04:00,
2013-05-08 14:05:00,50.7,48.5,29.98,West,259,0.0,0.0,92,0.00,,---,0.00,VWS V14.01,2013-05-08 18:05:00,
2013-05-08 14:06:00,50.7,48.5,29.98,West,259,0.0,0.0,92,0.00,,---,0.00,VWS V14.01,2013-05-08 18:06:00,
2013-05-08 14:07:00,50.7,48.5,29.98,West,259,0.0,0.0,92,0.00,,---,0.00,VWS V14.01,2013-05-08 18:07:00,
2013-05-08 14:08:00,50.7,48.5,29.98,West,259,0.0,0.0,92,0.00,,---,0.00,VWS V14.01,2013-05-08 18:08:00,
2013-05-08 14:09:00,50.7,48.5,29.98,West,259,0.0,0.0,92,0.00,,---,0.00,VWS V14.01,2013-05-08 18:09:00,
2013-05-08 14:10:00,50.7,48.5,29.98,West,259,0.0,0.0,92,0.00,,---,0.00,VWS V14.01,2013-05-08 18:10:00,
2013-05-08 14:11:00,50.7,48.5,29.98,West,259,0.0,0.0,92,0.00,,---,0.00,VWS V14.01,2013-05-08 18:11:00,
2013-05-08 14:12:00,50.7,48.5,29.98,West,259,0.0,0.0,92,0.00,,---,0.00,VWS V14.01,2013-05-08 18:12:00,
2013-05-08 14:13:00,50.7,48.5,29.98,West,259,0.0,0.0,92,0.00,,---,0.00,VWS V14.01,2013-05-08 18:13:00,
2013-05-08 14:14:00,50.7,48.5,29.98,West,259,0.0,0.0,92,0.00,,---,0.00,VWS V14.01,2013-05-08 18:14:00,
2013-05-08 14:15:00,50.5,48.3,29.98,West,259,0.0,0.0,92,0.00,,---,0.00,VWS V14.01,2013-05-08 18:15:00,
2013-05-08 14:16:00,50.5,48.3,29.98,West,259,0.0,0.0,92,0.00,,---,0.00,VWS V14.01,2013-05-08 18:16:00,
2013-05-08 14:17:00,50.5,48.3,29.98,West,259,0.0,0.0,92,0.00,,---,0.00,VWS V14.01,2013-05-08 18:17:00,
2013-05-08 14:18:00,50.5,48.3,29.98,West,259,0.0,0.0,92,0.00,,---,0.00,VWS V14.01,2013-05-08 18:18:00,
2013-05-08 14:19:00,50.5,48.3,29.98,West,259,0.0,0.0,92,0.00,,---,0.00,VWS V14.01,2013-05-08 18:19:00,
2013-05-08 14:20:00,50.4,48.2,29.98,West,259,0.0,0.0,92,0.00,,---,0.00,VWS V14.01,2013-05-08 18:20:00,
2013-05-08 14:21:00,50.4,48.2,29.98,West,259,0.0,0.0,92,0.00,,---,0.00,VWS V14.01,2013-05-08 18:21:00,
2013-05-08 14:22:00,50.4,48.2,29.98,West,259,0.0,0.0,92,0.00,,---,0.00,VWS V14.01,2013-05-08 18:22:00,
2013-05-08 14:23:00,50.4,48.2,29.98,West,259,0.0,0.0,92,0.00,,---,0.00,VWS V14.01,2013-05-08 18:23:00,
2013-05-08 14:24:00,50.4,48.2,29.98,West,259,0.0,0.0,92,0.00,,---,0.00,VWS V14.01,2013-05-08 18:24:00,
2013-05-08 14:25:00,50.4,48.2,29.98,West,259,0.0,0.0,92,0.00,,---,0.00,VWS V14.01,2013-05-08 18:25:00,
2013-05-08 14:26:00,50.4,48.2,29.98,West,259,0.0,0.0,92,0.00,,---,0.00,VWS V14.01,2013-05-08 18:26:00,
2013-05-08 14:27:00,50.4,48.2,29.98,West,259,0.0,0.0,92,0.00,,---,0.00,VWS V14.01,2013-05-08 18:27:00,
2013-05-08 14:28:00,50.4,48.2,29.98,West,259,0.0,0.0,92,0.00,,---,0.00,VWS V14.01,2013-05-08 18:28:00,
2013-05-08 14:29:00,50.2,48.0,29.98,West,259,0.0,0.0,92,0.00,,---,0.00,VWS V14.01,2013-05-08 18:29:00,
2013-05-08 14:30:00,50.2,48.0,29.98,West,259,0.0,0.0,92,0.00,,---,0.00,VWS V14.01,2013-05-08 18:30:00,
2013-05-08 14:31:00,50.2,48.0,29.98,West,259,0.0,0.0,92,0.00,,---,0.00,VWS V14.01,2013-05-08 18:31:00,
2013-05-08 14:32:00,50.2,48.0,29.98,West,259,0.0,0.0,92,0.00,,---,0.00,VWS V14.01,2013-05-08 18:32:00,
2013-05-08 14:33:00,50.2,48.0,29.98,West,259,0.0,0.0,92,0.00,,---,0.00,VWS V14.01,2013-05-08 18:33:00,
2013-05-08 14:34:00,50.2,48.0,29.98,West,259,0.0,0.0,92,0.00,,---,0.00,VWS V14.01,2013-05-08 18:34:00,
2013-05-08 14:35:00,50.2,48.0,29.98,West,259,0.0,0.0,92,0.00,,---,0.00,VWS V14.01,2013-05-08 18:35:00,
2013-05-08 14:36:00,50.2,48.0,29.98,West,259,0.0,0.0,92,0.00,,---,0.00,VWS V14.01,2013-05-08 18:36:00,
2013-05-08 14:37:00,50.2,48.0,29.98,West,259,0.0,0.0,92,0.00,,---,0.00,VWS V14.01,2013-05-08 18:37:00,
2013-05-08 14:38:00,50.2,48.0,29.98,West,259,0.0,0.0,92,0.00,,---,0.00,VWS V14.01,2013-05-08 18:38:00,
2013-05-08 14:39:00,50.1,47.9,29.98,West,259,0.0,0.0,92,0.00,,---,0.00,VWS V14.01,2013-05-08 18:39:00,
2013-05-08 14:40:00,50.1,47.9,29.98,West,259,0.0,0.0,92,0.00,,---,0.00,VWS V14.01,2013-05-08 18:40:00,
2013-05-08 14:41:00,50.1,47.9,29.98,West,259,0.0,0.0,92,0.00,,---,0.00,VWS V14.01,2013-05-08 18:41:00,
2013-05-08 14:42:00,50.1,47.9,29.98,West,259,0.0,0.0,92,0.00,,---,0.00,VWS V14.01,2013-05-08 18:42:00,
2013-05-08 14:43:00,50.1,47.9,29.98,West,259,0.0,0.0,92,0.00,,---,0.00,VWS V14.01,2013-05-08 18:43:00,
2013-05-08 14:44:00,50.1,47.9,29.98,West,259,0.0,0.0,92,0.00,,---,0.00,VWS V14.01,2013-05-08 18:44:00,
2013-05-08 14:45:00,50.1,47.9,29.98,WSW,250,0.0,0.0,92,0.00,,---,0.00,VWS V14.01,2013-05-08 18:45:00,
2013-05-08 14:46:00,50.1,47.9,29.98,West,259,0.0,0.0,92,0.00,,---,0.00,VWS V14.01,2013-05-08 18:46:00,
2013-05-08 14:47:00,49.9,47.7,29.98,West,259,0.0,0.0,92,0.00,,---,0.00,VWS V14.01,2013-05-08 18:47:00,
2013-05-08 14:48:00,49.9,47.7,29.98,West,259,0.0,0.0,92,0.00,,---,0.00,VWS V14.01,2013-05-08 18:48:00,
2013-05-08 14:49:00,49.9,47.7,29.98,West,259,0.0,0.0,92,0.00,,---,0.00,VWS V14.01,2013-05-08 18:49:00,
2013-05-08 14:50:00,49.9,48.0,29.98,West,259,0.0,0.0,93,0.00,,---,0.00,VWS V14.01,2013-05-08 18:50:00,
2013-05-08 14:51:00,49.9,48.0,29.98,West,259,0.0,0.0,93,0.00,,---,0.00,VWS V14.01,2013-05-08 18:51:00,
2013-05-08 14:52:00,49.9,48.0,29.98,West,259,0.0,0.0,93,0.00,,---,0.00,VWS V14.01,2013-05-08 18:52:00,
2013-05-08 14:53:00,49.9,48.0,29.98,West,259,0.0,0.0,93,0.00,,---,0.00,VWS V14.01,2013-05-08 18:53:00,
2013-05-08 14:54:00,49.8,47.9,29.98,West,259,0.0,0.0,93,0.00,,---,0.00,VWS V14.01,2013-05-08 18:54:00,
2013-05-08 14:55:00,49.8,47.9,29.98,West,259,0.0,0.0,93,0.00,,---,0.00,VWS V14.01,2013-05-08 18:55:00,
2013-05-08 14:56:00,49.8,47.9,29.98,West,259,0.0,0.0,93,0.00,,---,0.00,VWS V14.01,2013-05-08 18:56:00,
2013-05-08 14:57:00,49.8,47.9,29.98,West,259,0.0,0.0,93,0.00,,---,0.00,VWS V14.01,2013-05-08 18:57:00,
2013-05-08 14:58:00,49.8,47.9,29.98,West,259,0.0,0.0,93,0.00,,---,0.00,VWS V14.01,2013-05-08 18:58:00,
2013-05-08 14:59:00,49.8,47.9,29.98,West,259,0.0,0.0,93,0.00,,---,0.00,VWS V14.01,2013-05-08 18:59:00,
2013-05-08 15:00:00,49.6,47.7,29.97,West,259,0.0,0.0,93,0.00,,---,0.00,VWS V14.01,2013-05-08 19:00:00,
2013-05-08 15:01:00,49.6,47.7,29.97,West,259,0.0,0.0,93,0.00,,---,0.00,VWS V14.01,2013-05-08 19:01:00,
2013-05-08 15:02:00,49.6,47.7,29.97,West,259,0.0,0.0,93,0.00,,---,0.00,VWS V14.01,2013-05-08 19:02:00,
2013-05-08 15:03:00,49.6,47.7,29.97,West,259,0.0,0.0,93,0.00,,---,0.00,VWS V14.01,2013-05-08 19:03:00,
2013-05-08 15:04:00,49.6,47.7,29.97,West,259,0.0,0.0,93,0.00,,---,0.00,VWS V14.01,2013-05-08 19:04:00,
2013-05-08 15:05:00,49.6,47.7,29.97,West,259,0.0,0.0,93,0.00,,---,0.00,VWS V14.01,2013-05-08 19:05:00,
2013-05-08 15:06:00,49.5,47.6,29.97,West,259,0.0,0.0,93,0.00,,---,0.00,VWS V14.01,2013-05-08 19:06:00,
2013-05-08 15:07:00,49.5,47.6,29.97,West,259,0.0,0.0,93,0.00,,---,0.00,VWS V14.01,2013-05-08 19:07:00,
2013-05-08 15:08:00,49.5,47.6,29.97,West,259,0.0,0.0,93,0.00,,---,0.00,VWS V14.01,2013-05-08 19:08:00,
2013-05-08 15:09:00,49.5,47.6,29.97,West,259,0.0,0.0,93,0.00,,---,0.00,VWS V14.01,2013-05-08 19:09:00,
2013-05-08 15:10:00,49.5,47.6,29.97,West,259,0.0,0.0,93,0.00,,---,0.00,VWS V14.01,2013-05-08 19:10:00,
2013-05-08 15:11:00,49.5,47.6,29.97,West,259,0.0,0.0,93,0.00,,---,0.00,VWS V14.01,2013-05-08 19:11:00,
2013-05-08 15:12:00,49.5,47.6,29.97,West,259,0.0,0.0,93,0.00,,---,0.00,VWS V14.01,2013-05-08 19:12:00,
2013-05-08 15:13:00,49.5,47.6,29.97,West,259,0.0,0.0,93,0.00,,---,0.00,VWS V14.01,2013-05-08 19:13:00,
2013-05-08 15:14:00,49.5,47.6,29.97,West,259,0.0,0.0,93,0.00,,---,0.00,VWS V14.01,2013-05-08 19:14:00,
2013-05-08 15:15:00,49.5,47.6,29.97,West,259,0.0,0.0,93,0.00,,---,0.00,VWS V14.01,2013-05-08 19:15:00,
2013-05-08 15:16:00,49.5,47.6,29.97,West,259,0.0,0.0,93,0.00,,---,0.00,VWS V14.01,2013-05-08 19:16:00,
2013-05-08 15:17:00,49.5,47.6,29.97,West,259,0.0,0.0,93,0.00,,---,0.00,VWS V14.01,2013-05-08 19:17:00,
2013-05-08 15:18:00,49.5,47.6,29.97,West,259,0.0,0.0,93,0.00,,---,0.00,VWS V14.01,2013-05-08 19:18:00,
2013-05-08 15:19:00,49.5,47.6,29.97,West,259,0.0,0.0,93,0.00,,---,0.00,VWS V14.01,2013-05-08 19:19:00,
2013-05-08 15:20:00,49.5,47.6,29.97,West,259,0.0,0.0,93,0.00,,---,0.00,VWS V14.01,2013-05-08 19:20:00,
2013-05-08 15:21:00,49.5,47.6,29.97,West,259,0.0,0.0,93,0.00,,---,0.00,VWS V14.01,2013-05-08 19:21:00,
2013-05-08 15:22:00,49.5,47.6,29.97,West,259,0.0,0.0,93,0.00,,---,0.00,VWS V14.01,2013-05-08 19:22:00,
2013-05-08 15:23:00,49.4,47.5,29.97,West,259,0.0,0.0,93,0.00,,---,0.00,VWS V14.01,2013-05-08 19:23:00,
2013-05-08 15:24:00,49.4,47.5,29.97,West,259,0.0,0.0,93,0.00,,---,0.00,VWS V14.01,2013-05-08 19:24:00,
2013-05-08 15:25:00,49.4,47.5,29.97,West,259,0.0,0.0,93,0.00,,---,0.00,VWS V14.01,2013-05-08 19:25:00,
2013-05-08 15:26:00,49.4,47.5,29.97,West,259,0.0,0.0,93,0.00,,---,0.00,VWS V14.01,2013-05-08 19:26:00,
2013-05-08 15:27:00,49.4,47.5,29.97,West,259,0.0,0.0,93,0.00,,---,0.00,VWS V14.01,2013-05-08 19:27:00,
2013-05-08 15:28:00,49.4,47.5,29.97,West,259,0.0,0.0,93,0.00,,---,0.00,VWS V14.01,2013-05-08 19:28:00,
2013-05-08 15:29:00,49.4,47.5,29.97,West,259,0.0,0.0,93,0.00,,---,0.00,VWS V14.01,2013-05-08 19:29:00,
2013-05-08 15:30:00,49.4,47.5,29.97,West,259,0.0,0.0,93,0.00,,---,0.00,VWS V14.01,2013-05-08 19:30:00,
2013-05-08 15:31:00,49.4,47.5,29.97,West,259,0.0,0.0,93,0.00,,---,0.00,VWS V14.01,2013-05-08 19:31:00,
2013-05-08 15:32:00,49.4,47.5,29.97,West,259,0.0,0.0,93,0.00,,---,0.00,VWS V14.01,2013-05-08 19:32:00,
2013-05-08 15:33:00,49.4,47.5,29.97,West,259,0.0,0.0,93,0.00,,---,0.00,VWS V14.01,2013-05-08 19:33:00,
2013-05-08 15:34:00,49.2,47.3,29.97,West,259,0.0,0.0,93,0.00,,---,0.00,VWS V14.01,2013-05-08 19:34:00,
2013-05-08 15:35:00,49.2,47.3,29.97,West,259,0.0,0.0,93,0.00,,---,0.00,VWS V14.01,2013-05-08 19:35:00,
2013-05-08 15:36:00,49.2,47.3,29.97,West,259,0.0,0.0,93,0.00,,---,0.00,VWS V14.01,2013-05-08 19:36:00,
2013-05-08 15:37:00,49.2,47.3,29.97,West,259,0.0,0.0,93,0.00,,---,0.00,VWS V14.01,2013-05-08 19:37:00,
2013-05-08 15:38:00,49.2,47.3,29.97,West,259,0.0,0.0,93,0.00,,---,0.00,VWS V14.01,2013-05-08 19:38:00,
2013-05-08 15:39:00,49.2,47.3,29.97,West,259,0.0,0.0,93,0.00,,---,0.00,VWS V14.01,2013-05-08 19:39:00,
2013-05-08 15:40:00,49.1,47.2,29.97,West,259,0.0,0.0,93,0.00,,---,0.00,VWS V14.01,2013-05-08 19:40:00,
2013-05-08 15:41:00,49.1,47.2,29.97,West,259,0.0,0.0,93,0.00,,---,0.00,VWS V14.01,2013-05-08 19:41:00,
2013-05-08 15:42:00,49.1,47.2,29.97,West,259,0.0,0.0,93,0.00,,---,0.00,VWS V14.01,2013-05-08 19:42:00,
2013-05-08 15:43:00,49.1,47.2,29.97,West,259,0.0,0.0,93,0.00,,---,0.00,VWS V14.01,2013-05-08 19:43:00,
2013-05-08 15:44:00,49.1,47.2,29.97,West,259,0.0,0.0,93,0.00,,---,0.00,VWS V14.01,2013-05-08 19:44:00,
2013-05-08 15:45:00,48.9,47.0,29.98,West,259,0.0,0.0,93,0.00,,---,0.00,VWS V14.01,2013-05-08 19:45:00,
2013-05-08 15:46:00,48.9,47.0,29.98,West,259,0.0,0.0,93,0.00,,---,0.00,VWS V14.01,2013-05-08 19:46:00,
2013-05-08 15:47:00,48.9,47.0,29.98,West,259,0.0,0.0,93,0.00,,---,0.00,VWS V14.01,2013-05-08 19:47:00,
2013-05-08 15:48:00,48.9,47.0,29.98,West,259,0.0,0.0,93,0.00,,---,0.00,VWS V14.01,2013-05-08 19:48:00,
2013-05-08 15:49:00,48.9,47.0,29.98,West,259,0.0,0.0,93,0.00,,---,0.00,VWS V14.01,2013-05-08 19:49:00,
2013-05-08 15:50:00,48.9,47.0,29.98,West,259,0.0,0.0,93,0.00,,---,0.00,VWS V14.01,2013-05-08 19:50:00,
2013-05-08 15:51:00,48.9,47.0,29.98,West,259,0.0,0.0,93,0.00,,---,0.00,VWS V14.01,2013-05-08 19:51:00,
2013-05-08 15:52:00,48.8,46.9,29.98,West,259,0.0,0.0,93,0.00,,---,0.00,VWS V14.01,2013-05-08 19:52:00,
2013-05-08 15:53:00,48.8,46.9,29.98,West,259,0.0,0.0,93,0.00,,---,0.00,VWS V14.01,2013-05-08 19:53:00,
2013-05-08 15:54:00,48.8,46.9,29.98,West,259,0.0,0.0,93,0.00,,---,0.00,VWS V14.01,2013-05-08 19:54:00,
2013-05-08 15:55:00,48.8,47.2,29.98,West,259,0.0,0.0,94,0.00,,---,0.00,VWS V14.01,2013-05-08 19:55:00,
2013-05-08 15:56:00,48.8,46.9,29.98,West,259,0.0,0.0,93,0.00,,---,0.00,VWS V14.01,2013-05-08 19:56:00,
2013-05-08 15:57:00,48.8,46.9,29.98,West,259,0.0,0.0,93,0.00,,---,0.00,VWS V14.01,2013-05-08 19:57:00,
2013-05-08 15:58:00,48.8,46.9,29.98,West,259,0.0,0.0,93,0.00,,---,0.00,VWS V14.01,2013-05-08 19:58:00,
2013-05-08 15:59:00,48.8,46.9,29.98,West,259,0.0,0.0,93,0.00,,---,0.00,VWS V14.01,2013-05-08 19:59:00,
2013-05-08 16:00:00,48.8,46.9,29.98,WSW,250,0.0,0.0,93,0.00,,---,0.00,VWS V14.01,2013-05-08 20:00:00,
2013-05-08 16:01:00,48.8,46.9,29.98,West,259,0.0,0.0,93,0.00,,---,0.00,VWS V14.01,2013-05-08 20:01:00,
2013-05-08 16:02:00,48.8,46.9,29.98,West,259,0.0,0.0,93,0.00,,---,0.00,VWS V14.01,2013-05-08 20:02:00,
2013-05-08 16:03:00,48.6,46.7,29.98,West,259,0.0,0.0,93,0.00,,---,0.00,VWS V14.01,2013-05-08 20:03:00,
2013-05-08 16:04:00,48.6,46.7,29.98,West,259,0.0,0.0,93,0.00,,---,0.00,VWS V14.01,2013-05-08 20:04:00,
2013-05-08 16:05:00,48.6,46.7,29.98,West,259,0.0,0.0,93,0.00,,---,0.00,VWS V14.01,2013-05-08 20:05:00,
2013-05-08 16:06:00,48.6,46.7,29.98,West,259,0.0,0.0,93,0.00,,---,0.00,VWS V14.01,2013-05-08 20:06:00,
2013-05-08 16:07:00,48.6,46.7,29.98,West,259,0.0,0.0,93,0.00,,---,0.00,VWS V14.01,2013-05-08 20:07:00,
2013-05-08 16:08:00,48.6,46.7,29.98,West,259,0.0,0.0,93,0.00,,---,0.00,VWS V14.01,2013-05-08 20:08:00,
2013-05-08 16:09:00,48.6,46.7,29.98,West,259,0.0,0.0,93,0.00,,---,0.00,VWS V14.01,2013-05-08 20:09:00,
2013-05-08 16:10:00,48.6,46.7,29.98,West,259,0.0,0.0,93,0.00,,---,0.00,VWS V14.01,2013-05-08 20:10:00,
2013-05-08 16:11:00,48.5,46.9,29.98,West,259,0.0,0.0,94,0.00,,---,0.00,VWS V14.01,2013-05-08 20:11:00,
2013-05-08 16:12:00,48.5,46.9,29.98,West,259,0.0,0.0,94,0.00,,---,0.00,VWS V14.01,2013-05-08 20:12:00,
2013-05-08 16:13:00,48.5,46.9,29.98,West,259,0.0,0.0,94,0.00,,---,0.00,VWS V14.01,2013-05-08 20:13:00,
2013-05-08 16:14:00,48.5,46.9,29.98,West,259,0.0,0.0,94,0.00,,---,0.00,VWS V14.01,2013-05-08 20:14:00,
2013-05-08 16:15:00,48.5,46.9,29.97,West,259,0.0,0.0,94,0.00,,---,0.00,VWS V14.01,2013-05-08 20:15:00,
2013-05-08 16:16:00,48.3,46.7,29.97,West,259,0.0,0.0,94,0.00,,---,0.00,VWS V14.01,2013-05-08 20:16:00,
2013-05-08 16:17:00,48.3,46.7,29.97,West,259,0.0,0.0,94,0.00,,---,0.00,VWS V14.01,2013-05-08 20:17:00,
2013-05-08 16:18:00,48.3,46.7,29.97,West,259,0.0,0.0,94,0.00,,---,0.00,VWS V14.01,2013-05-08 20:18:00,
2013-05-08 16:19:00,48.3,46.7,29.97,West,259,0.0,0.0,94,0.00,,---,0.00,VWS V14.01,2013-05-08 20:19:00,
2013-05-08 16:20:00,48.3,46.7,29.97,West,259,0.0,0.0,94,0.00,,---,0.00,VWS V14.01,2013-05-08 20:20:00,
2013-05-08 16:21:00,48.3,46.7,29.97,West,259,0.0,0.0,94,0.00,,---,0.00,VWS V14.01,2013-05-08 20:21:00,
2013-05-08 16:22:00,48.3,46.7,29.97,West,259,0.0,0.0,94,0.00,,---,0.00,VWS V14.01,2013-05-08 20:22:00,
2013-05-08 16:23:00,48.2,46.6,29.97,West,259,0.0,0.0,94,0.00,,---,0.00,VWS V14.01,2013-05-08 20:23:00,
2013-05-08 16:24:00,48.2,46.6,29.97,West,259,0.0,0.0,94,0.00,,---,0.00,VWS V14.01,2013-05-08 20:24:00,
2013-05-08 16:25:00,48.2,46.6,29.97,West,259,0.0,0.0,94,0.00,,---,0.00,VWS V14.01,2013-05-08 20:25:00,
2013-05-08 16:26:00,48.2,46.6,29.97,West,259,0.0,0.0,94,0.00,,---,0.00,VWS V14.01,2013-05-08 20:26:00,
2013-05-08 16:27:00,48.2,46.6,29.97,West,259,0.0,0.0,94,0.00,,---,0.00,VWS V14.01,2013-05-08 20:27:00,
2013-05-08 16:28:00,48.2,46.6,29.97,West,259,0.0,0.0,94,0.00,,---,0.00,VWS V14.01,2013-05-08 20:28:00,
2013-05-08 16:29:00,48.2,46.6,29.97,West,259,0.0,0.0,94,0.00,,---,0.00,VWS V14.01,2013-05-08 20:29:00,
2013-05-08 16:30:00,48.2,46.6,29.98,West,259,0.0,0.0,94,0.00,,---,0.00,VWS V14.01,2013-05-08 20:30:00,
2013-05-08 16:31:00,48.2,46.6,29.98,West,259,0.0,0.0,94,0.00,,---,0.00,VWS V14.01,2013-05-08 20:31:00,
2013-05-08 16:32:00,48.2,46.6,29.98,West,259,0.0,0.0,94,0.00,,---,0.00,VWS V14.01,2013-05-08 20:32:00,
2013-05-08 16:33:00,48.2,46.6,29.98,West,259,0.0,0.0,94,0.00,,---,0.00,VWS V14.01,2013-05-08 20:33:00,
2013-05-08 16:34:00,48.2,46.6,29.98,West,259,0.0,0.0,94,0.00,,---,0.00,VWS V14.01,2013-05-08 20:34:00,
2013-05-08 16:35:00,48.2,46.6,29.98,West,259,0.0,0.0,94,0.00,,---,0.00,VWS V14.01,2013-05-08 20:35:00,
2013-05-08 16:36:00,48.2,46.6,29.98,West,259,0.0,0.0,94,0.00,,---,0.00,VWS V14.01,2013-05-08 20:36:00,
2013-05-08 16:37:00,48.0,46.4,29.98,West,259,0.0,0.0,94,0.00,,---,0.00,VWS V14.01,2013-05-08 20:37:00,
2013-05-08 16:38:00,48.0,46.4,29.98,West,259,0.0,0.0,94,0.00,,---,0.00,VWS V14.01,2013-05-08 20:38:00,
2013-05-08 16:39:00,48.0,46.4,29.98,West,259,0.0,0.0,94,0.00,,---,0.00,VWS V14.01,2013-05-08 20:39:00,
2013-05-08 16:40:00,48.0,46.4,29.98,West,259,0.0,0.0,94,0.00,,---,0.00,VWS V14.01,2013-05-08 20:40:00,
2013-05-08 16:41:00,48.0,46.4,29.98,West,259,0.0,0.0,94,0.00,,---,0.00,VWS V14.01,2013-05-08 20:41:00,
2013-05-08 16:42:00,48.0,46.4,29.98,West,259,0.0,0.0,94,0.00,,---,0.00,VWS V14.01,2013-05-08 20:42:00,
2013-05-08 16:43:00,48.0,46.4,29.98,West,259,0.0,0.0,94,0.00,,---,0.00,VWS V14.01,2013-05-08 20:43:00,
2013-05-08 16:44:00,48.0,46.4,29.98,West,259,0.0,0.0,94,0.00,,---,0.00,VWS V14.01,2013-05-08 20:44:00,
2013-05-08 16:45:00,48.0,46.4,29.98,West,259,0.0,0.0,94,0.00,,---,0.00,VWS V14.01,2013-05-08 20:45:00,
2013-05-08 16:46:00,48.0,46.4,29.98,West,259,0.0,0.0,94,0.00,,---,0.00,VWS V14.01,2013-05-08 20:46:00,
2013-05-08 16:47:00,48.0,46.4,29.98,West,259,0.0,0.0,94,0.00,,---,0.00,VWS V14.01,2013-05-08 20:47:00,
2013-05-08 16:48:00,48.0,46.4,29.98,West,259,0.0,0.0,94,0.00,,---,0.00,VWS V14.01,2013-05-08 20:48:00,
2013-05-08 16:49:00,48.0,46.4,29.98,West,259,0.0,0.0,94,0.00,,---,0.00,VWS V14.01,2013-05-08 20:49:00,
2013-05-08 16:50:00,47.9,46.3,29.98,West,259,0.0,0.0,94,0.00,,---,0.00,VWS V14.01,2013-05-08 20:50:00,
2013-05-08 16:51:00,47.9,46.3,29.98,West,259,0.0,0.0,94,0.00,,---,0.00,VWS V14.01,2013-05-08 20:51:00,
2013-05-08 16:52:00,47.9,46.3,29.98,West,259,0.0,0.0,94,0.00,,---,0.00,VWS V14.01,2013-05-08 20:52:00,
2013-05-08 16:53:00,47.9,46.3,29.98,West,259,0.0,0.0,94,0.00,,---,0.00,VWS V14.01,2013-05-08 20:53:00,
2013-05-08 16:54:00,47.9,46.3,29.98,West,259,0.0,0.0,94,0.00,,---,0.00,VWS V14.01,2013-05-08 20:54:00,
2013-05-08 16:55:00,47.9,46.3,29.98,West,259,0.0,0.0,94,0.00,,---,0.00,VWS V14.01,2013-05-08 20:55:00,
2013-05-08 16:56:00,47.9,46.3,29.98,West,259,0.0,0.0,94,0.00,,---,0.00,VWS V14.01,2013-05-08 20:56:00,
2013-05-08 16:57:00,47.9,46.3,29.98,West,259,0.0,0.0,94,0.00,,---,0.00,VWS V14.01,2013-05-08 20:57:00,
2013-05-08 16:58:00,47.7,46.1,29.98,West,259,0.0,0.0,94,0.00,,---,0.00,VWS V14.01,2013-05-08 20:58:00,
2013-05-08 16:59:00,47.7,46.1,29.98,West,259,0.0,0.0,94,0.00,,---,0.00,VWS V14.01,2013-05-08 20:59:00,
2013-05-08 17:00:00,47.7,46.1,29.98,West,259,0.0,0.0,94,0.00,,---,0.00,VWS V14.01,2013-05-08 21:00:00,
2013-05-08 17:01:00,47.7,46.1,29.98,West,259,0.0,0.0,94,0.00,,---,0.00,VWS V14.01,2013-05-08 21:01:00,
2013-05-08 17:02:00,47.7,46.1,29.98,West,259,0.0,0.0,94,0.00,,---,0.00,VWS V14.01,2013-05-08 21:02:00,
2013-05-08 17:03:00,47.7,46.1,29.98,West,259,0.0,0.0,94,0.00,,---,0.00,VWS V14.01,2013-05-08 21:03:00,
2013-05-08 17:04:00,47.7,46.1,29.98,West,259,0.0,0.0,94,0.00,,---,0.00,VWS V14.01,2013-05-08 21:04:00,
2013-05-08 17:05:00,47.7,46.1,29.98,West,259,0.0,0.0,94,0.00,,---,0.00,VWS V14.01,2013-05-08 21:05:00,
2013-05-08 17:06:00,47.6,46.0,29.98,West,259,0.0,0.0,94,0.00,,---,0.00,VWS V14.01,2013-05-08 21:06:00,
2013-05-08 17:07:00,47.6,46.0,29.98,West,259,0.0,0.0,94,0.00,,---,0.00,VWS V14.01,2013-05-08 21:07:00,
2013-05-08 17:08:00,47.6,46.0,29.98,West,259,0.0,0.0,94,0.00,,---,0.00,VWS V14.01,2013-05-08 21:08:00,
2013-05-08 17:09:00,47.6,46.0,29.98,West,259,0.0,0.0,94,0.00,,---,0.00,VWS V14.01,2013-05-08 21:09:00,
2013-05-08 17:10:00,47.6,46.0,29.98,West,259,0.0,0.0,94,0.00,,---,0.00,VWS V14.01,2013-05-08 21:10:00,
2013-05-08 17:11:00,47.6,46.0,29.98,West,259,0.0,0.0,94,0.00,,---,0.00,VWS V14.01,2013-05-08 21:11:00,
2013-05-08 17:12:00,47.6,46.0,29.98,West,259,0.0,0.0,94,0.00,,---,0.00,VWS V14.01,2013-05-08 21:12:00,
2013-05-08 17:13:00,47.6,46.0,29.98,West,259,0.0,0.0,94,0.00,,---,0.00,VWS V14.01,2013-05-08 21:13:00,
2013-05-08 17:14:00,47.4,45.8,29.98,West,259,0.0,0.0,94,0.00,,---,0.00,VWS V14.01,2013-05-08 21:14:00,
2013-05-08 17:15:00,47.4,45.8,29.98,West,259,0.0,0.0,94,0.00,,---,0.00,VWS V14.01,2013-05-08 21:15:00,
2013-05-08 17:16:00,47.4,45.8,29.98,West,259,0.0,0.0,94,0.00,,---,0.00,VWS V14.01,2013-05-08 21:16:00,
2013-05-08 17:17:00,47.4,45.8,29.98,West,259,0.0,0.0,94,0.00,,---,0.00,VWS V14.01,2013-05-08 21:17:00,
2013-05-08 17:18:00,47.4,45.8,29.98,West,259,0.0,0.0,94,0.00,,---,0.00,VWS V14.01,2013-05-08 21:18:00,
2013-05-08 17:19:00,47.4,45.8,29.98,West,259,0.0,0.0,94,0.00,,---,0.00,VWS V14.01,2013-05-08 21:19:00,
2013-05-08 17:20:00,47.4,45.8,29.98,West,259,0.0,0.0,94,0.00,,---,0.00,VWS V14.01,2013-05-08 21:20:00,
2013-05-08 17:21:00,47.4,45.8,29.98,West,259,0.0,0.0,94,0.00,,---,0.00,VWS V14.01,2013-05-08 21:21:00,
2013-05-08 17:22:00,47.4,45.8,29.98,West,259,0.0,0.0,94,0.00,,---,0.00,VWS V14.01,2013-05-08 21:22:00,
2013-05-08 17:23:00,47.4,45.8,29.98,West,259,0.0,0.0,94,0.00,,---,0.00,VWS V14.01,2013-05-08 21:23:00,
2013-05-08 17:24:00,47.3,45.7,29.98,West,259,0.0,0.0,94,0.00,,---,0.00,VWS V14.01,2013-05-08 21:24:00,
2013-05-08 17:25:00,47.3,45.7,29.98,West,259,0.0,0.0,94,0.00,,---,0.00,VWS V14.01,2013-05-08 21:25:00,
2013-05-08 17:26:00,47.3,45.7,29.98,West,259,0.0,0.0,94,0.00,,---,0.00,VWS V14.01,2013-05-08 21:26:00,
2013-05-08 17:27:00,47.3,45.7,29.98,West,259,0.0,0.0,94,0.00,,---,0.00,VWS V14.01,2013-05-08 21:27:00,
2013-05-08 17:28:00,47.3,45.7,29.98,West,259,0.0,0.0,94,0.00,,---,0.00,VWS V14.01,2013-05-08 21:28:00,
2013-05-08 17:29:00,47.3,45.7,29.98,West,259,0.0,0.0,94,0.00,,---,0.00,VWS V14.01,2013-05-08 21:29:00,
2013-05-08 17:30:00,47.3,45.7,30.00,West,259,0.0,0.0,94,0.00,,---,0.00,VWS V14.01,2013-05-08 21:30:00,
2013-05-08 17:31:00,47.3,45.7,30.00,West,259,0.0,0.0,94,0.00,,---,0.00,VWS V14.01,2013-05-08 21:31:00,
2013-05-08 17:32:00,47.3,45.7,30.00,West,259,0.0,0.0,94,0.00,,---,0.00,VWS V14.01,2013-05-08 21:32:00,
2013-05-08 17:33:00,47.3,45.7,30.00,West,259,0.0,0.0,94,0.00,,---,0.00,VWS V14.01,2013-05-08 21:33:00,
2013-05-08 17:34:00,47.3,45.7,30.00,West,259,0.0,0.0,94,0.00,,---,0.00,VWS V14.01,2013-05-08 21:34:00,
2013-05-08 17:35:00,47.3,45.7,30.00,West,259,0.0,0.0,94,0.00,,---,0.00,VWS V14.01,2013-05-08 21:35:00,
2013-05-08 17:36:00,47.1,45.5,30.00,West,259,0.0,0.0,94,0.00,,---,0.00,VWS V14.01,2013-05-08 21:36:00,
2013-05-08 17:37:00,47.1,45.5,30.00,West,259,0.0,0.0,94,0.00,,---,0.00,VWS V14.01,2013-05-08 21:37:00,
2013-05-08 17:38:00,47.1,45.5,30.00,West,259,0.0,0.0,94,0.00,,---,0.00,VWS V14.01,2013-05-08 21:38:00,
2013-05-08 17:39:00,47.1,45.5,30.00,West,259,0.0,0.0,94,0.00,,---,0.00,VWS V14.01,2013-05-08 21:39:00,
2013-05-08 17:40:00,47.1,45.5,30.00,West,259,0.0,0.0,94,0.00,,---,0.00,VWS V14.01,2013-05-08 21:40:00,
2013-05-08 17:41:00,47.1,45.5,30.00,West,259,0.0,0.0,94,0.00,,---,0.00,VWS V14.01,2013-05-08 21:41:00,
2013-05-08 17:42:00,47.1,45.5,30.00,West,259,0.0,0.0,94,0.00,,---,0.00,VWS V14.01,2013-05-08 21:42:00,
2013-05-08 17:43:00,47.0,45.4,30.00,West,259,0.0,0.0,94,0.00,,---,0.00,VWS V14.01,2013-05-08 21:43:00,
2013-05-08 17:44:00,47.0,45.4,30.00,West,259,0.0,0.0,94,0.00,,---,0.00,VWS V14.01,2013-05-08 21:44:00,
2013-05-08 17:45:00,47.0,45.4,30.00,West,259,0.0,0.0,94,0.00,,---,0.00,VWS V14.01,2013-05-08 21:45:00,
2013-05-08 17:46:00,47.0,45.4,30.00,West,259,0.0,0.0,94,0.00,,---,0.00,VWS V14.01,2013-05-08 21:46:00,
2013-05-08 17:47:00,47.0,45.4,30.00,West,259,0.0,0.0,94,0.00,,---,0.00,VWS V14.01,2013-05-08 21:47:00,
2013-05-08 17:48:00,46.8,45.2,30.00,West,259,0.0,0.0,94,0.00,,---,0.00,VWS V14.01,2013-05-08 21:48:00,
2013-05-08 17:49:00,46.8,45.2,30.00,West,259,0.0,0.0,94,0.00,,---,0.00,VWS V14.01,2013-05-08 21:49:00,
2013-05-08 17:50:00,46.8,45.2,30.00,West,259,0.0,0.0,94,0.00,,---,0.00,VWS V14.01,2013-05-08 21:50:00,
2013-05-08 17:51:00,46.8,45.2,30.00,West,259,0.0,0.0,94,0.00,,---,0.00,VWS V14.01,2013-05-08 21:51:00,
2013-05-08 17:52:00,46.7,45.1,30.00,West,259,0.0,0.0,94,0.00,,---,0.00,VWS V14.01,2013-05-08 21:52:00,
2013-05-08 17:53:00,46.7,45.1,30.00,West,259,0.0,0.0,94,0.00,,---,0.00,VWS V14.01,2013-05-08 21:53:00,
2013-05-08 17:54:00,46.7,45.1,30.00,West,259,0.0,0.0,94,0.00,,---,0.00,VWS V14.01,2013-05-08 21:54:00,
2013-05-08 17:55:00,46.7,45.1,30.00,West,259,0.0,0.0,94,0.00,,---,0.00,VWS V14.01,2013-05-08 21:55:00,
2013-05-08 17:56:00,46.5,44.9,30.00,West,259,0.0,0.0,94,0.00,,---,0.00,VWS V14.01,2013-05-08 21:56:00,
2013-05-08 17:57:00,46.5,44.9,30.00,West,259,0.0,0.0,94,0.00,,---,0.00,VWS V14.01,2013-05-08 21:57:00,
2013-05-08 17:58:00,46.5,44.9,30.00,West,259,0.0,0.0,94,0.00,,---,0.00,VWS V14.01,2013-05-08 21:58:00,
2013-05-08 17:59:00,46.5,44.9,30.00,West,259,0.0,0.0,94,0.00,,---,0.00,VWS V14.01,2013-05-08 21:59:00,
2013-05-08 18:00:00,46.5,44.9,30.00,West,259,0.0,0.0,94,0.00,,---,0.00,VWS V14.01,2013-05-08 22:00:00,
2013-05-08 18:01:00,46.4,44.8,30.00,West,259,0.0,0.0,94,0.00,,---,0.00,VWS V14.01,2013-05-08 22:01:00,
2013-05-08 18:02:00,46.4,44.8,30.00,West,259,0.0,0.0,94,0.00,,---,0.00,VWS V14.01,2013-05-08 22:02:00,
2013-05-08 18:03:00,46.4,44.8,30.00,West,259,0.0,0.0,94,0.00,,---,0.00,VWS V14.01,2013-05-08 22:03:00,
2013-05-08 18:04:00,46.4,44.8,30.00,West,259,0.0,0.0,94,0.00,,---,0.00,VWS V14.01,2013-05-08 22:04:00,
2013-05-08 18:05:00,46.4,44.8,30.00,West,259,0.0,0.0,94,0.00,,---,0.00,VWS V14.01,2013-05-08 22:05:00,
2013-05-08 18:06:00,46.4,44.8,30.00,West,259,0.0,0.0,94,0.00,,---,0.00,VWS V14.01,2013-05-08 22:06:00,
2013-05-08 18:07:00,46.4,44.8,30.00,West,259,0.0,0.0,94,0.00,,---,0.00,VWS V14.01,2013-05-08 22:07:00,
2013-05-08 18:08:00,46.4,44.8,30.00,West,259,0.0,0.0,94,0.00,,---,0.00,VWS V14.01,2013-05-08 22:08:00,
2013-05-08 18:09:00,46.4,44.8,30.00,West,259,0.0,0.0,94,0.00,,---,0.00,VWS V14.01,2013-05-08 22:09:00,
2013-05-08 18:10:00,46.4,44.8,30.00,West,259,0.0,0.0,94,0.00,,---,0.00,VWS V14.01,2013-05-08 22:10:00,
2013-05-08 18:11:00,46.4,44.8,30.00,West,259,0.0,0.0,94,0.00,,---,0.00,VWS V14.01,2013-05-08 22:11:00,
2013-05-08 18:12:00,46.4,44.8,30.00,West,259,0.0,0.0,94,0.00,,---,0.00,VWS V14.01,2013-05-08 22:12:00,
2013-05-08 18:13:00,46.4,44.8,30.00,West,259,0.0,0.0,94,0.00,,---,0.00,VWS V14.01,2013-05-08 22:13:00,
2013-05-08 18:14:00,46.4,44.8,30.00,West,259,0.0,0.0,94,0.00,,---,0.00,VWS V14.01,2013-05-08 22:14:00,
2013-05-08 18:15:00,46.4,44.8,30.02,West,259,0.0,0.0,94,0.00,,---,0.00,VWS V14.01,2013-05-08 22:15:00,
2013-05-08 18:16:00,46.4,44.8,30.02,West,259,0.0,0.0,94,0.00,,---,0.00,VWS V14.01,2013-05-08 22:16:00,
2013-05-08 18:17:00,46.4,44.8,30.02,West,259,0.0,0.0,94,0.00,,---,0.00,VWS V14.01,2013-05-08 22:17:00,
2013-05-08 18:18:00,46.4,44.8,30.02,West,259,0.0,0.0,94,0.00,,---,0.00,VWS V14.01,2013-05-08 22:18:00,
2013-05-08 18:19:00,46.4,44.8,30.02,West,259,0.0,0.0,94,0.00,,---,0.00,VWS V14.01,2013-05-08 22:19:00,
2013-05-08 18:20:00,46.4,45.0,30.02,West,259,0.0,0.0,95,0.00,,---,0.00,VWS V14.01,2013-05-08 22:20:00,
2013-05-08 18:21:00,46.4,45.0,30.02,West,259,0.0,0.0,95,0.00,,---,0.00,VWS V14.01,2013-05-08 22:21:00,
2013-05-08 18:22:00,46.4,45.0,30.02,West,259,0.0,0.0,95,0.00,,---,0.00,VWS V14.01,2013-05-08 22:22:00,
2013-05-08 18:23:00,46.4,45.0,30.02,West,259,0.0,0.0,95,0.00,,---,0.00,VWS V14.01,2013-05-08 22:23:00,
2013-05-08 18:24:00,46.4,45.0,30.02,West,259,0.0,0.0,95,0.00,,---,0.00,VWS V14.01,2013-05-08 22:24:00,
2013-05-08 18:25:00,46.4,45.0,30.02,West,259,0.0,0.0,95,0.00,,---,0.00,VWS V14.01,2013-05-08 22:25:00,
2013-05-08 18:26:00,46.4,45.0,30.02,West,259,0.0,0.0,95,0.00,,---,0.00,VWS V14.01,2013-05-08 22:26:00,
2013-05-08 18:27:00,46.4,45.0,30.02,West,259,0.0,0.0,95,0.00,,---,0.00,VWS V14.01,2013-05-08 22:27:00,
2013-05-08 18:28:00,46.4,45.0,30.02,West,259,0.0,0.0,95,0.00,,---,0.00,VWS V14.01,2013-05-08 22:28:00,
2013-05-08 18:29:00,46.4,45.0,30.02,West,259,0.0,0.0,95,0.00,,---,0.00,VWS V14.01,2013-05-08 22:29:00,
2013-05-08 18:30:00,46.5,45.2,30.03,West,259,0.0,0.0,95,0.00,,---,0.00,VWS V14.01,2013-05-08 22:30:00,
2013-05-08 18:31:00,46.5,45.2,30.03,West,259,0.0,0.0,95,0.00,,---,0.00,VWS V14.01,2013-05-08 22:31:00,
2013-05-08 18:32:00,46.5,45.2,30.03,West,259,0.0,0.0,95,0.00,,---,0.00,VWS V14.01,2013-05-08 22:32:00,
2013-05-08 18:33:00,46.5,45.2,30.03,West,259,0.0,0.0,95,0.00,,---,0.00,VWS V14.01,2013-05-08 22:33:00,
2013-05-08 18:34:00,46.5,45.2,30.03,West,259,0.0,0.0,95,0.00,,---,0.00,VWS V14.01,2013-05-08 22:34:00,
2013-05-08 18:35:00,46.5,45.2,30.03,West,259,0.0,0.0,95,0.00,,---,0.00,VWS V14.01,2013-05-08 22:35:00,
2013-05-08 18:36:00,46.5,45.2,30.03,West,259,0.0,0.0,95,0.00,,---,0.00,VWS V14.01,2013-05-08 22:36:00,
2013-05-08 18:37:00,46.5,45.2,30.03,West,259,0.0,0.0,95,0.00,,---,0.00,VWS V14.01,2013-05-08 22:37:00,
2013-05-08 18:38:00,46.5,45.2,30.03,West,259,0.0,0.0,95,0.00,,---,0.00,VWS V14.01,2013-05-08 22:38:00,
2013-05-08 18:39:00,46.5,45.2,30.03,West,259,0.0,0.0,95,0.00,,---,0.00,VWS V14.01,2013-05-08 22:39:00,
2013-05-08 18:40:00,46.5,45.2,30.03,West,259,0.0,0.0,95,0.00,,---,0.00,VWS V14.01,2013-05-08 22:40:00,
2013-05-08 18:41:00,46.5,45.2,30.03,West,259,0.0,0.0,95,0.00,,---,0.00,VWS V14.01,2013-05-08 22:41:00,
2013-05-08 18:42:00,46.5,45.2,30.03,West,259,0.0,0.0,95,0.00,,---,0.00,VWS V14.01,2013-05-08 22:42:00,
2013-05-08 18:43:00,46.5,45.2,30.03,West,259,0.0,0.0,95,0.00,,---,0.00,VWS V14.01,2013-05-08 22:43:00,
2013-05-08 18:44:00,46.5,45.2,30.03,West,259,0.0,0.0,95,0.00,,---,0.00,VWS V14.01,2013-05-08 22:44:00,
2013-05-08 18:45:00,46.5,45.2,30.03,West,259,0.0,0.0,95,0.00,,---,0.00,VWS V14.01,2013-05-08 22:45:00,
2013-05-08 18:46:00,46.5,44.9,30.03,West,259,0.0,0.0,94,0.00,,---,0.00,VWS V14.01,2013-05-08 22:46:00,
2013-05-08 18:47:00,46.5,44.9,30.03,West,259,0.0,0.0,94,0.00,,---,0.00,VWS V14.01,2013-05-08 22:47:00,
2013-05-08 18:48:00,46.4,44.8,30.03,West,259,0.0,0.0,94,0.00,,---,0.00,VWS V14.01,2013-05-08 22:48:00,
2013-05-08 18:49:00,46.4,44.8,30.03,West,259,0.0,0.0,94,0.00,,---,0.00,VWS V14.01,2013-05-08 22:49:00,
2013-05-08 18:50:00,46.4,45.0,30.03,West,259,0.0,0.0,95,0.00,,---,0.00,VWS V14.01,2013-05-08 22:50:00,
2013-05-08 18:51:00,46.4,45.0,30.03,West,259,0.0,0.0,95,0.00,,---,0.00,VWS V14.01,2013-05-08 22:51:00,
2013-05-08 18:52:00,46.4,45.0,30.03,West,259,0.0,0.0,95,0.00,,---,0.00,VWS V14.01,2013-05-08 22:52:00,
2013-05-08 18:53:00,46.4,45.0,30.03,West,259,0.0,0.0,95,0.00,,---,0.00,VWS V14.01,2013-05-08 22:53:00,
2013-05-08 18:54:00,46.4,45.0,30.03,West,259,0.0,0.0,95,0.00,,---,0.00,VWS V14.01,2013-05-08 22:54:00,
2013-05-08 18:55:00,46.2,44.8,30.03,West,259,0.0,0.0,95,0.00,,---,0.00,VWS V14.01,2013-05-08 22:55:00,
2013-05-08 18:56:00,46.2,44.8,30.03,West,259,0.0,0.0,95,0.00,,---,0.00,VWS V14.01,2013-05-08 22:56:00,
2013-05-08 18:57:00,46.2,44.8,30.03,West,259,0.0,0.0,95,0.00,,---,0.00,VWS V14.01,2013-05-08 22:57:00,
2013-05-08 18:58:00,46.2,44.8,30.03,West,259,0.0,0.0,95,0.00,,---,0.00,VWS V14.01,2013-05-08 22:58:00,
2013-05-08 18:59:00,46.2,44.8,30.03,West,259,0.0,0.0,95,0.00,,---,0.00,VWS V14.01,2013-05-08 22:59:00,
2013-05-08 19:00:00,46.2,44.8,30.04,West,259,0.0,0.0,95,0.00,,---,0.00,VWS V14.01,2013-05-08 23:00:00,
2013-05-08 19:01:00,46.2,44.8,30.04,West,259,0.0,0.0,95,0.00,,---,0.00,VWS V14.01,2013-05-08 23:01:00,
2013-05-08 19:02:00,46.2,44.8,30.04,West,259,0.0,0.0,95,0.00,,---,0.00,VWS V14.01,2013-05-08 23:02:00,
2013-05-08 19:03:00,46.2,44.8,30.04,West,259,0.0,0.0,95,0.00,,---,0.00,VWS V14.01,2013-05-08 23:03:00,
2013-05-08 19:04:00,46.2,44.8,30.04,West,259,0.0,0.0,95,0.00,,---,0.00,VWS V14.01,2013-05-08 23:04:00,
2013-05-08 19:05:00,46.2,44.8,30.04,West,259,0.0,0.0,95,0.00,,---,0.00,VWS V14.01,2013-05-08 23:05:00,
2013-05-08 19:06:00,46.2,44.8,30.04,West,259,0.0,0.0,95,0.00,,---,0.00,VWS V14.01,2013-05-08 23:06:00,
2013-05-08 19:07:00,46.2,44.8,30.04,West,259,0.0,0.0,95,0.00,,---,0.00,VWS V14.01,2013-05-08 23:07:00,
2013-05-08 19:08:00,46.2,44.8,30.04,West,259,0.0,0.0,95,0.00,,---,0.00,VWS V14.01,2013-05-08 23:08:00,
2013-05-08 19:09:00,46.2,44.8,30.04,West,259,0.0,0.0,95,0.00,,---,0.00,VWS V14.01,2013-05-08 23:09:00,
2013-05-08 19:10:00,46.2,44.8,30.04,West,259,0.0,0.0,95,0.00,,---,0.00,VWS V14.01,2013-05-08 23:10:00,
2013-05-08 19:11:00,46.2,44.8,30.04,West,259,0.0,0.0,95,0.00,,---,0.00,VWS V14.01,2013-05-08 23:11:00,
2013-05-08 19:12:00,46.2,44.8,30.04,West,259,0.0,0.0,95,0.00,,---,0.00,VWS V14.01,2013-05-08 23:12:00,
2013-05-08 19:13:00,46.4,45.0,30.04,West,259,0.0,0.0,95,0.00,,---,0.00,VWS V14.01,2013-05-08 23:13:00,
2013-05-08 19:14:00,46.4,45.0,30.04,West,259,0.0,0.0,95,0.00,,---,0.00,VWS V14.01,2013-05-08 23:14:00,
2013-05-08 19:15:00,46.4,45.0,30.05,West,259,0.0,0.0,95,0.00,,---,0.00,VWS V14.01,2013-05-08 23:15:00,
2013-05-08 19:16:00,46.4,45.0,30.05,West,259,0.0,0.0,95,0.00,,---,0.00,VWS V14.01,2013-05-08 23:16:00,
2013-05-08 19:17:00,46.4,45.0,30.05,West,259,0.0,0.0,95,0.00,,---,0.00,VWS V14.01,2013-05-08 23:17:00,
2013-05-08 19:18:00,46.5,45.2,30.05,West,259,0.0,0.0,95,0.00,,---,0.00,VWS V14.01,2013-05-08 23:18:00,
2013-05-08 19:19:00,46.5,45.2,30.05,West,259,0.0,0.0,95,0.00,,---,0.00,VWS V14.01,2013-05-08 23:19:00,
2013-05-08 19:20:00,46.5,45.2,30.05,West,259,0.0,0.0,95,0.00,,---,0.00,VWS V14.01,2013-05-08 23:20:00,
2013-05-08 19:21:00,46.5,45.2,30.05,West,259,0.0,0.0,95,0.00,,---,0.00,VWS V14.01,2013-05-08 23:21:00,
2013-05-08 19:22:00,46.5,45.2,30.05,West,259,0.0,0.0,95,0.00,,---,0.00,VWS V14.01,2013-05-08 23:22:00,
2013-05-08 19:23:00,46.5,45.2,30.05,West,259,0.0,0.0,95,0.00,,---,0.00,VWS V14.01,2013-05-08 23:23:00,
2013-05-08 19:24:00,46.5,45.2,30.05,West,259,0.0,0.0,95,0.00,,---,0.00,VWS V14.01,2013-05-08 23:24:00,
2013-05-08 19:25:00,46.7,45.3,30.05,West,259,0.0,0.0,95,0.00,,---,0.00,VWS V14.01,2013-05-08 23:25:00,
2013-05-08 19:26:00,46.7,45.3,30.05,West,259,0.0,0.0,95,0.00,,---,0.00,VWS V14.01,2013-05-08 23:26:00,
2013-05-08 19:27:00,46.7,45.3,30.05,West,259,0.0,0.0,95,0.00,,---,0.00,VWS V14.01,2013-05-08 23:27:00,
2013-05-08 19:28:00,46.7,45.3,30.05,West,259,0.0,0.0,95,0.00,,---,0.00,VWS V14.01,2013-05-08 23:28:00,
2013-05-08 19:29:00,46.7,45.3,30.05,West,259,0.0,0.0,95,0.00,,---,0.00,VWS V14.01,2013-05-08 23:29:00,
2013-05-08 19:30:00,46.7,45.3,30.05,West,259,0.0,0.0,95,0.00,,---,0.00,VWS V14.01,2013-05-08 23:30:00,
2013-05-08 19:31:00,46.7,45.3,30.05,West,259,0.0,0.0,95,0.00,,---,0.00,VWS V14.01,2013-05-08 23:31:00,
2013-05-08 19:32:00,46.7,45.3,30.05,West,259,0.0,0.0,95,0.00,,---,0.00,VWS V14.01,2013-05-08 23:32:00,
2013-05-08 19:33:00,46.7,45.3,30.05,West,259,0.0,0.0,95,0.00,,---,0.00,VWS V14.01,2013-05-08 23:33:00,
2013-05-08 19:34:00,46.7,45.3,30.05,West,259,0.0,0.0,95,0.00,,---,0.00,VWS V14.01,2013-05-08 23:34:00,
2013-05-08 19:35:00,46.7,45.3,30.05,West,259,0.0,0.0,95,0.00,,---,0.00,VWS V14.01,2013-05-08 23:35:00,
2013-05-08 19:36:00,46.7,45.3,30.05,West,259,0.0,0.0,95,0.00,,---,0.00,VWS V14.01,2013-05-08 23:36:00,
2013-05-08 19:37:00,46.7,45.3,30.05,West,259,0.0,0.0,95,0.00,,---,0.00,VWS V14.01,2013-05-08 23:37:00,
2013-05-08 19:38:00,46.7,45.3,30.05,West,259,0.0,0.0,95,0.00,,---,0.00,VWS V14.01,2013-05-08 23:38:00,
2013-05-08 19:39:00,46.8,45.5,30.05,West,259,0.0,0.0,95,0.00,,---,0.00,VWS V14.01,2013-05-08 23:39:00,
2013-05-08 19:40:00,46.8,45.5,30.05,West,259,0.0,0.0,95,0.00,,---,0.00,VWS V14.01,2013-05-08 23:40:00,
2013-05-08 19:41:00,46.8,45.5,30.05,West,259,0.0,0.0,95,0.00,,---,0.00,VWS V14.01,2013-05-08 23:41:00,
2013-05-08 19:42:00,46.8,45.5,30.05,West,259,0.0,0.0,95,0.00,,---,0.00,VWS V14.01,2013-05-08 23:42:00,
2013-05-08 19:43:00,46.8,45.5,30.05,West,259,0.0,0.0,95,0.00,,---,0.00,VWS V14.01,2013-05-08 23:43:00,
2013-05-08 19:44:00,46.8,45.5,30.05,West,259,0.0,0.0,95,0.00,,---,0.00,VWS V14.01,2013-05-08 23:44:00,
2013-05-08 19:45:00,46.8,45.5,30.06,West,259,0.0,0.0,95,0.00,,---,0.00,VWS V14.01,2013-05-08 23:45:00,
2013-05-08 19:46:00,46.8,45.5,30.06,West,259,0.0,0.0,95,0.00,,---,0.00,VWS V14.01,2013-05-08 23:46:00,
2013-05-08 19:47:00,46.8,45.5,30.06,West,259,0.0,0.0,95,0.00,,---,0.00,VWS V14.01,2013-05-08 23:47:00,
2013-05-08 19:48:00,46.8,45.5,30.06,West,259,0.0,0.0,95,0.00,,---,0.00,VWS V14.01,2013-05-08 23:48:00,
2013-05-08 19:49:00,46.8,45.5,30.06,West,259,0.0,0.0,95,0.00,,---,0.00,VWS V14.01,2013-05-08 23:49:00,
2013-05-08 19:50:00,46.8,45.5,30.06,West,259,0.0,0.0,95,0.00,,---,0.00,VWS V14.01,2013-05-08 23:50:00,
2013-05-08 19:51:00,47.0,45.7,30.06,West,259,0.0,0.0,95,0.00,,---,0.00,VWS V14.01,2013-05-08 23:51:00,
2013-05-08 19:52:00,47.0,45.7,30.06,West,259,0.0,0.0,95,0.00,,---,0.00,VWS V14.01,2013-05-08 23:52:00,
2013-05-08 19:53:00,47.0,45.7,30.06,West,259,0.0,0.0,95,0.00,,---,0.00,VWS V14.01,2013-05-08 23:53:00,
2013-05-08 19:54:00,47.0,45.7,30.06,West,259,0.0,0.0,95,0.00,,---,0.00,VWS V14.01,2013-05-08 23:54:00,
2013-05-08 19:55:00,47.0,45.7,30.06,West,259,0.0,0.0,95,0.00,,---,0.00,VWS V14.01,2013-05-08 23:55:00,
2013-05-08 19:56:00,47.0,45.7,30.06,West,259,0.0,0.0,95,0.00,,---,0.00,VWS V14.01,2013-05-08 23:56:00,
2013-05-08 19:57:00,47.1,45.7,30.06,West,259,0.0,0.0,95,0.00,,---,0.00,VWS V14.01,2013-05-08 23:57:00,
2013-05-08 19:58:00,47.1,45.7,30.06,West,259,0.0,0.0,95,0.00,,---,0.00,VWS V14.01,2013-05-08 23:58:00,
2013-05-08 19:59:00,47.1,45.7,30.06,West,259,0.0,0.0,95,0.00,,---,0.00,VWS V14.01,2013-05-08 23:59:00,
2013-05-08 20:00:00,47.1,45.7,30.06,West,259,0.0,0.0,95,0.00,,---,0.00,VWS V14.01,2013-05-09 00:00:00,
2013-05-08 20:01:00,47.3,45.9,30.06,West,259,0.0,0.0,95,0.00,,---,0.00,VWS V14.01,2013-05-09 00:01:00,
2013-05-08 20:02:00,47.3,45.9,30.06,West,259,0.0,0.0,95,0.00,,---,0.00,VWS V14.01,2013-05-09 00:02:00,
2013-05-08 20:03:00,47.3,45.9,30.06,West,259,0.0,0.0,95,0.00,,---,0.00,VWS V14.01,2013-05-09 00:03:00,
2013-05-08 20:04:00,47.4,46.0,30.06,West,259,0.0,0.0,95,0.00,,---,0.00,VWS V14.01,2013-05-09 00:04:00,
2013-05-08 20:05:00,47.4,46.0,30.06,West,259,0.0,0.0,95,0.00,,---,0.00,VWS V14.01,2013-05-09 00:05:00,
2013-05-08 20:06:00,47.4,46.3,30.06,West,259,0.0,0.0,96,0.00,,---,0.00,VWS V14.01,2013-05-09 00:06:00,
2013-05-08 20:07:00,47.6,46.5,30.06,West,259,0.0,0.0,96,0.00,,---,0.00,VWS V14.01,2013-05-09 00:07:00,
2013-05-08 20:08:00,47.7,46.6,30.06,West,259,0.0,0.0,96,0.00,,---,0.00,VWS V14.01,2013-05-09 00:08:00,
2013-05-08 20:09:00,47.7,46.6,30.06,West,259,0.0,0.0,96,0.00,,---,0.00,VWS V14.01,2013-05-09 00:09:00,
2013-05-08 20:10:00,47.9,46.8,30.06,West,259,0.0,0.0,96,0.00,,---,0.00,VWS V14.01,2013-05-09 00:10:00,
2013-05-08 20:11:00,48.0,46.9,30.06,West,259,0.0,0.0,96,0.00,,---,0.00,VWS V14.01,2013-05-09 00:11:00,
2013-05-08 20:12:00,48.0,46.9,30.06,West,259,0.0,0.0,96,0.00,,---,0.00,VWS V14.01,2013-05-09 00:12:00,
2013-05-08 20:13:00,48.2,47.1,30.06,West,259,0.0,0.0,96,0.00,,---,0.00,VWS V14.01,2013-05-09 00:13:00,
2013-05-08 20:14:00,48.2,47.1,30.06,West,259,0.0,0.0,96,0.00,,---,0.00,VWS V14.01,2013-05-09 00:14:00,
2013-05-08 20:15:00,48.3,47.2,30.07,West,259,0.0,0.0,96,0.00,,---,0.00,VWS V14.01,2013-05-09 00:15:00,
2013-05-08 20:16:00,48.3,47.2,30.07,West,259,0.0,0.0,96,0.00,,---,0.00,VWS V14.01,2013-05-09 00:16:00,
2013-05-08 20:17:00,48.5,47.4,30.07,West,259,0.0,0.0,96,0.00,,---,0.00,VWS V14.01,2013-05-09 00:17:00,
2013-05-08 20:18:00,48.5,47.4,30.07,West,259,0.0,0.0,96,0.00,,---,0.00,VWS V14.01,2013-05-09 00:18:00,
2013-05-08 20:19:00,48.6,47.5,30.07,West,259,0.0,0.0,96,0.00,,---,0.00,VWS V14.01,2013-05-09 00:19:00,
2013-05-08 20:20:00,48.8,47.7,30.07,West,259,0.0,0.0,96,0.00,,---,0.00,VWS V14.01,2013-05-09 00:20:00,
2013-05-08 20:21:00,48.8,47.7,30.07,West,259,0.0,0.0,96,0.00,,---,0.00,VWS V14.01,2013-05-09 00:21:00,
2013-05-08 20:22:00,48.9,47.8,30.07,West,259,0.0,0.0,96,0.00,,---,0.00,VWS V14.01,2013-05-09 00:22:00,
2013-05-08 20:23:00,49.1,48.0,30.07,West,259,0.0,0.0,96,0.00,,---,0.00,VWS V14.01,2013-05-09 00:23:00,
2013-05-08 20:24:00,49.2,48.1,30.07,West,259,0.0,0.0,96,0.00,,---,0.00,VWS V14.01,2013-05-09 00:24:00,
2013-05-08 20:25:00,49.4,48.3,30.07,West,259,0.0,0.0,96,0.00,,---,0.00,VWS V14.01,2013-05-09 00:25:00,
2013-05-08 20:26:00,49.5,48.4,30.07,West,259,0.0,0.0,96,0.00,,---,0.00,VWS V14.01,2013-05-09 00:26:00,
2013-05-08 20:27:00,49.5,48.4,30.07,West,259,0.0,0.0,96,0.00,,---,0.00,VWS V14.01,2013-05-09 00:27:00,
2013-05-08 20:28:00,49.8,48.7,30.07,West,259,0.0,0.0,96,0.00,,---,0.00,VWS V14.01,2013-05-09 00:28:00,
2013-05-08 20:29:00,49.8,48.7,30.07,West,259,0.0,0.0,96,0.00,,---,0.00,VWS V14.01,2013-05-09 00:29:00,
2013-05-08 20:30:00,49.9,48.8,30.06,West,259,0.0,0.0,96,0.00,,---,0.00,VWS V14.01,2013-05-09 00:30:00,
2013-05-08 20:31:00,50.2,49.1,30.06,West,259,0.0,0.0,96,0.00,,---,0.00,VWS V14.01,2013-05-09 00:31:00,
2013-05-08 20:32:00,50.4,49.3,30.06,West,259,0.0,0.0,96,0.00,,---,0.00,VWS V14.01,2013-05-09 00:32:00,
2013-05-08 20:33:00,50.5,49.4,30.06,West,259,0.0,0.0,96,0.00,,---,0.00,VWS V14.01,2013-05-09 00:33:00,
2013-05-08 20:34:00,50.7,49.6,30.06,West,259,0.0,0.0,96,0.00,,---,0.00,VWS V14.01,2013-05-09 00:34:00,
2013-05-08 20:35:00,50.7,49.6,30.06,West,259,0.0,0.0,96,0.00,,---,0.00,VWS V14.01,2013-05-09 00:35:00,
2013-05-08 20:36:00,50.8,49.7,30.06,West,259,0.0,0.0,96,0.00,,---,0.00,VWS V14.01,2013-05-09 00:36:00,
2013-05-08 20:37:00,51.0,49.9,30.06,West,259,0.0,0.0,96,0.00,,---,0.00,VWS V14.01,2013-05-09 00:37:00,
2013-05-08 20:38:00,51.0,49.9,30.06,West,259,0.0,0.0,96,0.00,,---,0.00,VWS V14.01,2013-05-09 00:38:00,
2013-05-08 20:39:00,51.1,50.0,30.06,West,259,0.0,0.0,96,0.00,,---,0.00,VWS V14.01,2013-05-09 00:39:00,
2013-05-08 20:40:00,51.3,50.2,30.06,West,259,0.0,0.0,96,0.00,,---,0.00,VWS V14.01,2013-05-09 00:40:00,
2013-05-08 20:41:00,51.4,50.3,30.06,West,259,0.0,0.0,96,0.00,,---,0.00,VWS V14.01,2013-05-09 00:41:00,
2013-05-08 20:42:00,51.6,50.5,30.06,West,259,0.0,0.0,96,0.00,,---,0.00,VWS V14.01,2013-05-09 00:42:00,
2013-05-08 20:43:00,51.6,50.5,30.06,West,259,0.0,0.0,96,0.00,,---,0.00,VWS V14.01,2013-05-09 00:43:00,
2013-05-08 20:44:00,51.7,50.6,30.06,West,259,0.0,0.0,96,0.00,,---,0.00,VWS V14.01,2013-05-09 00:44:00,
2013-05-08 20:45:00,51.9,50.8,30.06,West,259,0.0,0.0,96,0.00,,---,0.00,VWS V14.01,2013-05-09 00:45:00,
2013-05-08 20:46:00,52.0,50.9,30.06,West,259,0.0,0.0,96,0.00,,---,0.00,VWS V14.01,2013-05-09 00:46:00,
2013-05-08 20:47:00,52.2,51.1,30.06,West,259,0.0,0.0,96,0.00,,---,0.00,VWS V14.01,2013-05-09 00:47:00,
2013-05-08 20:48:00,52.3,51.2,30.06,West,259,0.0,0.0,96,0.00,,---,0.00,VWS V14.01,2013-05-09 00:48:00,
2013-05-08 20:49:00,52.5,51.4,30.06,West,259,0.0,0.0,96,0.00,,---,0.00,VWS V14.01,2013-05-09 00:49:00,
2013-05-08 20:50:00,52.6,51.5,30.06,West,259,0.0,0.0,96,0.00,,---,0.00,VWS V14.01,2013-05-09 00:50:00,
2013-05-08 20:51:00,52.9,51.8,30.06,West,259,0.0,0.0,96,0.00,,---,0.00,VWS V14.01,2013-05-09 00:51:00,
2013-05-08 20:52:00,52.9,51.8,30.06,West,259,0.0,0.0,96,0.00,,---,0.00,VWS V14.01,2013-05-09 00:52:00,
2013-05-08 20:53:00,53.1,52.0,30.06,West,259,0.0,0.0,96,0.00,,---,0.00,VWS V14.01,2013-05-09 00:53:00,
2013-05-08 20:54:00,53.2,52.1,30.06,West,259,0.0,0.0,96,0.00,,---,0.00,VWS V14.01,2013-05-09 00:54:00,
2013-05-08 20:55:00,53.3,52.2,30.06,West,259,0.0,0.0,96,0.00,,---,0.00,VWS V14.01,2013-05-09 00:55:00,
2013-05-08 20:56:00,53.5,52.4,30.06,West,259,0.0,0.0,96,0.00,,---,0.00,VWS V14.01,2013-05-09 00:56:00,
2013-05-08 20:57:00,53.6,52.5,30.06,West,259,0.0,0.0,96,0.00,,---,0.00,VWS V14.01,2013-05-09 00:57:00,
2013-05-08 20:58:00,53.8,52.7,30.06,West,259,0.0,0.0,96,0.00,,---,0.00,VWS V14.01,2013-05-09 00:58:00,
2013-05-08 20:59:00,53.9,52.8,30.06,West,259,0.0,0.0,96,0.00,,---,0.00,VWS V14.01,2013-05-09 00:59:00,
2013-05-08 21:00:00,53.9,52.8,30.05,West,259,0.0,0.0,96,0.00,,---,0.00,VWS V14.01,2013-05-09 01:00:00,
2013-05-08 21:01:00,54.1,53.0,30.05,West,259,0.0,0.0,96,0.00,,---,0.00,VWS V14.01,2013-05-09 01:01:00,
2013-05-08 21:02:00,54.1,53.0,30.05,West,259,0.0,0.0,96,0.00,,---,0.00,VWS V14.01,2013-05-09 01:02:00,
2013-05-08 21:03:00,54.4,53.3,30.05,West,259,0.0,0.0,96,0.00,,---,0.00,VWS V14.01,2013-05-09 01:03:00,
2013-05-08 21:04:00,54.5,53.4,30.05,West,259,0.0,0.0,96,0.00,,---,0.00,VWS V14.01,2013-05-09 01:04:00,
2013-05-08 21:05:00,54.8,53.7,30.05,West,259,0.0,0.0,96,0.00,,---,0.00,VWS V14.01,2013-05-09 01:05:00,
2013-05-08 21:06:00,54.8,53.7,30.05,West,259,0.0,0.0,96,0.00,,---,0.00,VWS V14.01,2013-05-09 01:06:00,
2013-05-08 21:07:00,54.8,53.7,30.05,West,259,0.0,0.0,96,0.00,,---,0.00,VWS V14.01,2013-05-09 01:07:00,
2013-05-08 21:08:00,55.0,53.9,30.05,West,259,0.0,0.0,96,0.00,,---,0.00,VWS V14.01,2013-05-09 01:08:00,
2013-05-08 21:09:00,55.1,54.0,30.05,West,259,0.0,0.0,96,0.00,,---,0.00,VWS V14.01,2013-05-09 01:09:00,
2013-05-08 21:10:00,55.3,54.2,30.05,West,259,0.0,0.0,96,0.00,,---,0.00,VWS V14.01,2013-05-09 01:10:00,
2013-05-08 21:11:00,55.4,54.3,30.05,West,259,0.0,0.0,96,0.00,,---,0.00,VWS V14.01,2013-05-09 01:11:00,
2013-05-08 21:12:00,55.6,54.5,30.05,West,259,0.0,0.0,96,0.00,,---,0.00,VWS V14.01,2013-05-09 01:12:00,
2013-05-08 21:13:00,55.7,54.6,30.05,West,259,0.0,0.0,96,0.00,,---,0.00,VWS V14.01,2013-05-09 01:13:00,
2013-05-08 21:14:00,55.9,54.8,30.05,West,259,0.0,0.0,96,0.00,,---,0.00,VWS V14.01,2013-05-09 01:14:00,
2013-05-08 21:15:00,56.0,54.9,30.06,West,259,0.0,0.0,96,0.00,,---,0.00,VWS V14.01,2013-05-09 01:15:00,
2013-05-08 21:16:00,56.2,55.1,30.06,West,259,0.0,0.0,96,0.00,,---,0.00,VWS V14.01,2013-05-09 01:16:00,
2013-05-08 21:17:00,56.3,55.2,30.06,West,259,0.0,0.0,96,0.00,,---,0.00,VWS V14.01,2013-05-09 01:17:00,
2013-05-08 21:18:00,56.3,55.2,30.06,West,259,0.0,0.0,96,0.00,,---,0.00,VWS V14.01,2013-05-09 01:18:00,
2013-05-08 21:19:00,56.3,55.2,30.06,West,259,0.0,0.0,96,0.00,,---,0.00,VWS V14.01,2013-05-09 01:19:00,
2013-05-08 21:20:00,56.5,55.4,30.06,West,259,0.0,0.0,96,0.00,,---,0.00,VWS V14.01,2013-05-09 01:20:00,
2013-05-08 21:21:00,56.5,55.4,30.06,West,259,0.0,0.0,96,0.00,,---,0.00,VWS V14.01,2013-05-09 01:21:00,
2013-05-08 21:22:00,56.5,55.4,30.06,West,259,0.0,0.0,96,0.00,,---,0.00,VWS V14.01,2013-05-09 01:22:00,
2013-05-08 21:23:00,56.5,55.4,30.06,West,259,0.0,0.0,96,0.00,,---,0.00,VWS V14.01,2013-05-09 01:23:00,
2013-05-08 21:24:00,56.5,55.1,30.06,West,259,0.0,0.0,95,0.00,,---,0.00,VWS V14.01,2013-05-09 01:24:00,
2013-05-08 21:25:00,56.6,55.5,30.06,West,259,0.0,0.0,96,0.00,,---,0.00,VWS V14.01,2013-05-09 01:25:00,
2013-05-08 21:26:00,56.6,55.2,30.06,West,259,0.0,0.0,95,0.00,,---,0.00,VWS V14.01,2013-05-09 01:26:00,
2013-05-08 21:27:00,56.7,55.3,30.06,West,259,0.0,0.0,95,0.00,,---,0.00,VWS V14.01,2013-05-09 01:27:00,
2013-05-08 21:28:00,56.9,55.5,30.06,West,259,0.0,0.0,95,0.00,,---,0.00,VWS V14.01,2013-05-09 01:28:00,
2013-05-08 21:29:00,57.0,55.9,30.06,West,259,0.0,0.0,96,0.00,,---,0.00,VWS V14.01,2013-05-09 01:29:00,
2013-05-08 21:30:00,57.0,55.9,30.05,West,259,0.0,0.0,96,0.00,,---,0.00,VWS V14.01,2013-05-09 01:30:00,
2013-05-08 21:31:00,57.3,56.2,30.05,West,259,0.0,0.0,96,0.00,,---,0.00,VWS V14.01,2013-05-09 01:31:00,
2013-05-08 21:32:00,57.3,55.9,30.05,West,259,0.0,0.0,95,0.00,,---,0.00,VWS V14.01,2013-05-09 01:32:00,
2013-05-08 21:33:00,57.5,56.1,30.05,West,259,0.0,0.0,95,0.00,,---,0.00,VWS V14.01,2013-05-09 01:33:00,
2013-05-08 21:34:00,57.5,56.1,30.05,West,259,0.0,0.0,95,0.00,,---,0.00,VWS V14.01,2013-05-09 01:34:00,
2013-05-08 21:35:00,57.6,56.2,30.05,West,259,0.0,0.0,95,0.00,,---,0.00,VWS V14.01,2013-05-09 01:35:00,
2013-05-08 21:36:00,57.6,56.2,30.05,West,259,0.0,0.0,95,0.00,,---,0.00,VWS V14.01,2013-05-09 01:36:00,
2013-05-08 21:37:00,57.8,56.4,30.05,West,259,0.0,0.0,95,0.00,,---,0.00,VWS V14.01,2013-05-09 01:37:00,
2013-05-08 21:38:00,58.0,56.6,30.05,West,259,0.0,0.0,95,0.00,,---,0.00,VWS V14.01,2013-05-09 01:38:00,
2013-05-08 21:39:00,58.1,56.7,30.05,West,259,0.0,0.0,95,0.00,,---,0.00,VWS V14.01,2013-05-09 01:39:00,
2013-05-08 21:40:00,58.1,56.7,30.05,West,259,0.0,0.0,95,0.00,,---,0.00,VWS V14.01,2013-05-09 01:40:00,
2013-05-08 21:41:00,58.3,56.9,30.05,West,259,0.0,0.0,95,0.00,,---,0.00,VWS V14.01,2013-05-09 01:41:00,
2013-05-08 21:42:00,58.3,56.6,30.05,West,259,0.0,0.0,94,0.00,,---,0.00,VWS V14.01,2013-05-09 01:42:00,
2013-05-08 21:43:00,58.3,56.6,30.05,West,259,0.0,0.0,94,0.00,,---,0.00,VWS V14.01,2013-05-09 01:43:00,
2013-05-08 21:44:00,58.3,56.3,30.05,West,259,0.0,0.0,93,0.00,,---,0.00,VWS V14.01,2013-05-09 01:44:00,
2013-05-08 21:45:00,58.3,56.3,30.05,West,259,0.0,0.0,93,0.00,,---,0.00,VWS V14.01,2013-05-09 01:45:00,
2013-05-08 21:46:00,58.4,56.4,30.05,West,259,0.0,0.0,93,0.00,,---,0.00,VWS V14.01,2013-05-09 01:46:00,
2013-05-08 21:47:00,58.6,56.6,30.05,West,259,0.0,0.0,93,0.00,,---,0.00,VWS V14.01,2013-05-09 01:47:00,
2013-05-08 21:48:00,58.6,56.3,30.05,West,259,0.0,0.0,92,0.00,,---,0.00,VWS V14.01,2013-05-09 01:48:00,
2013-05-08 21:49:00,58.6,56.0,30.05,West,259,0.0,0.0,91,0.00,,---,0.00,VWS V14.01,2013-05-09 01:49:00,
2013-05-08 21:50:00,58.7,56.1,30.05,West,259,0.0,0.0,91,0.00,,---,0.00,VWS V14.01,2013-05-09 01:50:00,
2013-05-08 21:51:00,58.9,56.0,30.05,West,259,0.0,0.0,90,0.00,,---,0.00,VWS V14.01,2013-05-09 01:51:00,
2013-05-08 21:52:00,59.0,55.8,30.05,West,259,0.0,0.0,89,0.00,,---,0.00,VWS V14.01,2013-05-09 01:52:00,
2013-05-08 21:53:00,59.2,56.0,30.05,West,259,0.0,0.0,89,0.00,,---,0.00,VWS V14.01,2013-05-09 01:53:00,
2013-05-08 21:54:00,59.3,56.1,30.05,West,259,0.0,0.0,89,0.00,,---,0.00,VWS V14.01,2013-05-09 01:54:00,
2013-05-08 21:55:00,59.3,56.1,30.05,West,259,0.0,0.0,89,0.00,,---,0.00,VWS V14.01,2013-05-09 01:55:00,
2013-05-08 21:56:00,59.5,55.3,30.05,West,259,0.0,0.0,86,0.00,,---,0.00,VWS V14.01,2013-05-09 01:56:00,
2013-05-08 21:57:00,59.6,55.4,30.05,West,259,0.0,0.0,86,0.00,,---,0.00,VWS V14.01,2013-05-09 01:57:00,
2013-05-08 21:58:00,59.9,55.4,30.05,West,259,0.0,0.0,85,0.00,,---,0.00,VWS V14.01,2013-05-09 01:58:00,
2013-05-08 21:59:00,60.1,55.3,30.05,West,259,0.0,0.0,84,0.00,,---,0.00,VWS V14.01,2013-05-09 01:59:00,
2013-05-08 22:00:00,60.4,55.2,30.04,West,259,0.0,0.0,83,0.00,,---,0.00,VWS V14.01,2013-05-09 02:00:00,
2013-05-08 22:01:00,60.4,55.2,30.04,West,259,0.0,0.0,83,0.00,,---,0.00,VWS V14.01,2013-05-09 02:01:00,
2013-05-08 22:02:00,60.5,54.7,30.04,West,259,0.0,0.0,81,0.00,,---,0.00,VWS V14.01,2013-05-09 02:02:00,
2013-05-08 22:03:00,60.7,54.5,30.04,West,259,0.0,0.0,80,0.00,,---,0.00,VWS V14.01,2013-05-09 02:03:00,
2013-05-08 22:04:00,60.9,54.7,30.04,West,259,0.0,0.0,80,0.00,,---,0.00,VWS V14.01,2013-05-09 02:04:00,
2013-05-08 22:05:00,61.0,53.4,30.04,West,259,0.0,0.0,76,0.00,,---,0.00,VWS V14.01,2013-05-09 02:05:00,
2013-05-08 22:06:00,61.2,53.2,30.04,West,259,0.0,0.0,75,0.00,,---,0.00,VWS V14.01,2013-05-09 02:06:00,
2013-05-08 22:07:00,61.3,53.3,30.04,WSW,258,0.0,0.0,75,0.00,,---,0.00,VWS V14.01,2013-05-09 02:07:00,
2013-05-08 22:08:00,61.5,52.8,30.04,WSW,258,0.0,0.0,73,0.00,,---,0.00,VWS V14.01,2013-05-09 02:08:00,
2013-05-08 22:09:00,61.6,52.9,30.04,WSW,258,0.0,0.0,73,0.00,,---,0.00,VWS V14.01,2013-05-09 02:09:00,
2013-05-08 22:10:00,61.8,52.7,30.04,WSW,258,0.0,0.0,72,0.00,,---,0.00,VWS V14.01,2013-05-09 02:10:00,
2013-05-08 22:11:00,62.0,52.9,30.04,SW,233,0.0,0.0,72,0.00,,---,0.00,VWS V14.01,2013-05-09 02:11:00,
2013-05-08 22:12:00,62.1,53.0,30.04,SW,233,0.0,0.0,72,0.00,,---,0.00,VWS V14.01,2013-05-09 02:12:00,
2013-05-08 22:13:00,62.3,52.4,30.04,SW,233,0.0,0.0,70,0.00,,---,0.00,VWS V14.01,2013-05-09 02:13:00,
2013-05-08 22:14:00,62.4,52.5,30.04,SW,233,0.0,0.0,70,0.00,,---,0.00,VWS V14.01,2013-05-09 02:14:00,
2013-05-08 22:15:00,62.6,52.3,30.03,SW,233,0.0,0.0,69,0.00,,---,0.00,VWS V14.01,2013-05-09 02:15:00,
2013-05-08 22:16:00,62.7,52.8,30.03,SW,233,0.0,0.0,70,0.00,,---,0.00,VWS V14.01,2013-05-09 02:16:00,
2013-05-08 22:17:00,63.1,53.2,30.03,SW,233,0.0,0.0,70,0.00,,---,0.00,VWS V14.01,2013-05-09 02:17:00,
2013-05-08 22:18:00,63.2,52.9,30.03,SW,233,0.0,0.0,69,0.00,,---,0.00,VWS V14.01,2013-05-09 02:18:00,
2013-05-08 22:19:00,63.4,53.1,30.03,SW,233,0.0,0.0,69,0.00,,---,0.00,VWS V14.01,2013-05-09 02:19:00,
2013-05-08 22:20:00,63.5,53.2,30.03,SW,233,0.0,0.0,69,0.00,,---,0.00,VWS V14.01,2013-05-09 02:20:00,
2013-05-08 22:21:00,63.7,53.0,30.03,SW,233,0.0,0.0,68,0.00,,---,0.00,VWS V14.01,2013-05-09 02:21:00,
2013-05-08 22:22:00,63.9,53.1,30.03,SW,233,0.0,0.0,68,0.00,,---,0.00,VWS V14.01,2013-05-09 02:22:00,
2013-05-08 22:23:00,63.9,52.7,30.03,SW,233,0.0,0.0,67,0.00,,---,0.00,VWS V14.01,2013-05-09 02:23:00,
2013-05-08 22:24:00,64.0,52.8,30.03,SW,233,0.0,0.0,67,0.00,,---,0.00,VWS V14.01,2013-05-09 02:24:00,
2013-05-08 22:25:00,64.0,52.8,30.03,SW,233,0.0,0.0,67,0.00,,---,0.00,VWS V14.01,2013-05-09 02:25:00,
2013-05-08 22:26:00,64.3,53.1,30.03,SW,233,0.0,0.0,67,0.00,,---,0.00,VWS V14.01,2013-05-09 02:26:00,
2013-05-08 22:27:00,64.3,53.1,30.03,SW,233,0.0,0.0,67,0.00,,---,0.00,VWS V14.01,2013-05-09 02:27:00,
2013-05-08 22:28:00,64.7,53.1,30.03,WSW,237,0.0,0.0,66,0.00,,---,0.00,VWS V14.01,2013-05-09 02:28:00,
2013-05-08 22:29:00,64.7,53.1,30.03,WSW,237,0.0,0.0,66,0.00,,---,0.00,VWS V14.01,2013-05-09 02:29:00,
2013-05-08 22:30:00,64.8,52.3,30.03,WSW,237,0.0,0.0,64,0.00,,---,0.00,VWS V14.01,2013-05-09 02:30:00,
2013-05-08 22:31:00,65.0,52.5,30.03,WSW,237,0.0,0.0,64,0.00,,---,0.00,VWS V14.01,2013-05-09 02:31:00,
2013-05-08 22:32:00,65.3,52.8,30.03,WSW,237,0.0,0.0,64,0.00,,---,0.00,VWS V14.01,2013-05-09 02:32:00,
2013-05-08 22:33:00,65.5,53.0,30.03,WSW,237,0.0,0.0,64,0.00,,---,0.00,VWS V14.01,2013-05-09 02:33:00,
2013-05-08 22:34:00,65.6,53.5,30.03,WSW,237,0.0,0.0,65,0.00,,---,0.00,VWS V14.01,2013-05-09 02:34:00,
2013-05-08 22:35:00,65.8,53.7,30.03,WSW,237,0.0,0.0,65,0.00,,---,0.00,VWS V14.01,2013-05-09 02:35:00,
2013-05-08 22:36:00,66.0,53.5,30.03,WSW,237,0.0,0.0,64,0.00,,---,0.00,VWS V14.01,2013-05-09 02:36:00,
2013-05-08 22:37:00,66.0,53.5,30.03,WSW,237,0.0,0.0,64,0.00,,---,0.00,VWS V14.01,2013-05-09 02:37:00,
2013-05-08 22:38:00,66.1,53.6,30.03,WSW,237,0.0,0.0,64,0.00,,---,0.00,VWS V14.01,2013-05-09 02:38:00,
2013-05-08 22:39:00,66.1,53.6,30.03,WSW,237,0.0,0.0,64,0.00,,---,0.00,VWS V14.01,2013-05-09 02:39:00,
2013-05-08 22:40:00,66.3,53.8,30.03,West,274,0.0,0.0,64,0.00,,---,0.00,VWS V14.01,2013-05-09 02:40:00,
2013-05-08 22:41:00,66.4,52.6,30.03,West,274,0.0,0.0,61,0.00,,---,0.00,VWS V14.01,2013-05-09 02:41:00,
2013-05-08 22:42:00,66.4,53.0,30.03,West,274,0.0,0.0,62,0.00,,---,0.00,VWS V14.01,2013-05-09 02:42:00,
2013-05-08 22:43:00,66.4,53.4,30.03,West,274,0.0,0.0,63,0.00,,---,0.00,VWS V14.01,2013-05-09 02:43:00,
2013-05-08 22:44:00,66.4,52.6,30.03,West,274,0.0,0.0,61,0.00,,---,0.00,VWS V14.01,2013-05-09 02:44:00,
2013-05-08 22:45:00,66.6,52.8,30.03,West,274,0.0,0.0,61,0.00,,---,0.00,VWS V14.01,2013-05-09 02:45:00,
2013-05-08 22:46:00,66.8,53.4,30.03,WSW,245,2.0,4.0,62,0.00,,---,0.00,VWS V14.01,2013-05-09 02:46:00,
2013-05-08 22:47:00,66.8,52.5,30.03,NW,305,1.0,4.0,60,0.00,,---,0.00,VWS V14.01,2013-05-09 02:47:00,
2013-05-08 22:48:00,66.8,52.0,30.03,West,274,0.0,4.0,59,0.00,,---,0.00,VWS V14.01,2013-05-09 02:48:00,
2013-05-08 22:49:00,66.9,52.1,30.03,West,279,0.0,4.0,59,0.00,,---,0.00,VWS V14.01,2013-05-09 02:49:00,
2013-05-08 22:50:00,66.9,53.0,30.03,West,279,0.0,4.0,61,0.00,,---,0.00,VWS V14.01,2013-05-09 02:50:00,
2013-05-08 22:51:00,66.9,53.0,30.03,West,279,0.0,0.0,61,0.00,,---,0.00,VWS V14.01,2013-05-09 02:51:00,
2013-05-08 22:52:00,66.9,53.0,30.03,West,279,0.0,0.0,61,0.00,,---,0.00,VWS V14.01,2013-05-09 02:52:00,
2013-05-08 22:53:00,67.1,52.8,30.03,NW,306,2.0,2.0,60,0.00,,---,0.00,VWS V14.01,2013-05-09 02:53:00,
2013-05-08 22:54:00,67.1,52.3,30.03,WNW,286,0.0,3.0,59,0.00,,---,0.00,VWS V14.01,2013-05-09 02:54:00,
2013-05-08 22:55:00,67.1,52.3,30.03,WSW,252,0.0,3.0,59,0.00,,---,0.00,VWS V14.01,2013-05-09 02:55:00,
2013-05-08 22:56:00,67.1,52.3,30.03,NW,305,0.0,3.0,59,0.00,,---,0.00,VWS V14.01,2013-05-09 02:56:00,
2013-05-08 22:57:00,67.1,52.8,30.03,West,272,5.0,5.0,60,0.00,,---,0.00,VWS V14.01,2013-05-09 02:57:00,
2013-05-08 22:58:00,67.1,52.3,30.03,WNW,283,6.0,6.0,59,0.00,,---,0.00,VWS V14.01,2013-05-09 02:58:00,
2013-05-08 22:59:00,67.1,53.2,30.03,West,279,0.0,6.0,61,0.00,,---,0.00,VWS V14.01,2013-05-09 02:59:00,
2013-05-08 23:00:00,67.1,53.2,30.03,WSW,257,0.0,6.0,61,0.00,,---,0.00,VWS V14.01,2013-05-09 03:00:00,
2013-05-08 23:01:00,67.1,52.8,30.03,West,276,0.0,0.0,60,0.00,,---,0.00,VWS V14.01,2013-05-09 03:01:00,
2013-05-08 23:02:00,67.3,53.0,30.03,West,276,0.0,0.0,60,0.00,,---,0.00,VWS V14.01,2013-05-09 03:02:00,
2013-05-08 23:03:00,67.4,53.9,30.03,West,276,0.0,0.0,62,0.00,,---,0.00,VWS V14.01,2013-05-09 03:03:00,
2013-05-08 23:04:00,67.6,54.1,30.03,West,276,0.0,0.0,62,0.00,,---,0.00,VWS V14.01,2013-05-09 03:04:00,
2013-05-08 23:05:00,67.6,53.7,30.03,West,272,0.0,0.0,61,0.00,,---,0.00,VWS V14.01,2013-05-09 03:05:00,
2013-05-08 23:06:00,67.8,53.4,30.03,West,274,0.0,6.0,60,0.00,,---,0.00,VWS V14.01,2013-05-09 03:06:00,
2013-05-08 23:07:00,67.8,54.3,30.03,West,274,0.0,6.0,62,0.00,,---,0.00,VWS V14.01,2013-05-09 03:07:00,
2013-05-08 23:08:00,67.9,54.4,30.03,West,281,0.0,6.0,62,0.00,,---,0.00,VWS V14.01,2013-05-09 03:08:00,
2013-05-08 23:09:00,67.9,54.4,30.03,West,281,0.0,6.0,62,0.00,,---,0.00,VWS V14.01,2013-05-09 03:09:00,
2013-05-08 23:10:00,67.9,53.1,30.03,West,276,0.0,6.0,59,0.00,,---,0.00,VWS V14.01,2013-05-09 03:10:00,
2013-05-08 23:11:00,68.1,53.2,30.03,West,276,0.0,0.0,59,0.00,,---,0.00,VWS V14.01,2013-05-09 03:11:00,
2013-05-08 23:12:00,68.3,53.9,30.03,West,276,0.0,0.0,60,0.00,,---,0.00,VWS V14.01,2013-05-09 03:12:00,
2013-05-08 23:13:00,68.3,53.9,30.03,WNW,300,0.0,0.0,60,0.00,,---,0.00,VWS V14.01,2013-05-09 03:13:00,
2013-05-08 23:14:00,68.3,53.9,30.03,WNW,300,0.0,0.0,60,0.00,,---,0.00,VWS V14.01,2013-05-09 03:14:00,
2013-05-08 23:15:00,68.3,53.9,30.03,WNW,300,0.0,0.0,60,0.00,,---,0.00,VWS V14.01,2013-05-09 03:15:00,
2013-05-08 23:16:00,68.3,53.4,30.03,WNW,300,0.0,0.0,59,0.00,,---,0.00,VWS V14.01,2013-05-09 03:16:00,
2013-05-08 23:17:00,68.4,53.5,30.03,WNW,300,0.0,0.0,59,0.00,,---,0.00,VWS V14.01,2013-05-09 03:17:00,
2013-05-08 23:18:00,68.6,53.7,30.03,WNW,300,0.0,0.0,59,0.00,,---,0.00,VWS V14.01,2013-05-09 03:18:00,
2013-05-08 23:19:00,68.8,54.4,30.03,WNW,300,0.0,0.0,60,0.00,,---,0.00,VWS V14.01,2013-05-09 03:19:00,
2013-05-08 23:20:00,68.9,54.5,30.03,WNW,300,0.0,0.0,60,0.00,,---,0.00,VWS V14.01,2013-05-09 03:20:00,
2013-05-08 23:21:00,68.9,54.5,30.03,WNW,300,0.0,0.0,60,0.00,,---,0.00,VWS V14.01,2013-05-09 03:21:00,
2013-05-08 23:22:00,68.9,54.5,30.03,WNW,300,0.0,0.0,60,0.00,,---,0.00,VWS V14.01,2013-05-09 03:22:00,
2013-05-08 23:23:00,68.9,54.5,30.03,WNW,300,0.0,0.0,60,0.00,,---,0.00,VWS V14.01,2013-05-09 03:23:00,
2013-05-08 23:24:00,68.9,54.5,30.03,WNW,300,0.0,0.0,60,0.00,,---,0.00,VWS V14.01,2013-05-09 03:24:00,
2013-05-08 23:25:00,69.1,53.7,30.03,WNW,300,0.0,0.0,58,0.00,,---,0.00,VWS V14.01,2013-05-09 03:25:00,
2013-05-08 23:26:00,69.1,53.7,30.03,WNW,300,0.0,0.0,58,0.00,,---,0.00,VWS V14.01,2013-05-09 03:26:00,
2013-05-08 23:27:00,69.1,53.7,30.03,WNW,300,0.0,0.0,58,0.00,,---,0.00,VWS V14.01,2013-05-09 03:27:00,
2013-05-08 23:28:00,69.1,53.7,30.03,WNW,300,0.0,0.0,58,0.00,,---,0.00,VWS V14.01,2013-05-09 03:28:00,
2013-05-08 23:29:00,69.3,53.9,30.03,WNW,300,0.0,0.0,58,0.00,,---,0.00,VWS V14.01,2013-05-09 03:29:00,
2013-05-08 23:30:00,69.3,54.4,30.03,WNW,300,0.0,0.0,59,0.00,,---,0.00,VWS V14.01,2013-05-09 03:30:00,
2013-05-08 23:31:00,69.4,54.5,30.03,WNW,300,0.0,0.0,59,0.00,,---,0.00,VWS V14.01,2013-05-09 03:31:00,
2013-05-08 23:32:00,69.4,54.5,30.03,WNW,300,0.0,0.0,59,0.00,,---,0.00,VWS V14.01,2013-05-09 03:32:00,
2013-05-08 23:33:00,69.4,53.5,30.03,WNW,300,0.0,0.0,57,0.00,,---,0.00,VWS V14.01,2013-05-09 03:33:00,
2013-05-08 23:34:00,69.4,53.5,30.03,West,271,6.0,6.0,57,0.00,,---,0.00,VWS V14.01,2013-05-09 03:34:00,
2013-05-08 23:35:00,69.4,54.0,30.03,West,272,0.0,6.0,58,0.00,,---,0.00,VWS V14.01,2013-05-09 03:35:00,
2013-05-08 23:36:00,69.6,53.7,30.03,West,272,0.0,6.0,57,0.00,,---,0.00,VWS V14.01,2013-05-09 03:36:00,
2013-05-08 23:37:00,69.6,54.2,30.03,West,272,0.0,6.0,58,0.00,,---,0.00,VWS V14.01,2013-05-09 03:37:00,
2013-05-08 23:38:00,69.8,54.4,30.03,West,272,0.0,6.0,58,0.00,,---,0.00,VWS V14.01,2013-05-09 03:38:00,
2013-05-08 23:39:00,69.8,54.4,30.03,West,272,0.0,6.0,58,0.00,,---,0.00,VWS V14.01,2013-05-09 03:39:00,
2013-05-08 23:40:00,70.1,55.1,30.03,NW,312,0.0,6.0,59,0.00,,---,0.00,VWS V14.01,2013-05-09 03:40:00,
2013-05-08 23:41:00,70.1,55.1,30.03,NW,312,0.0,0.0,59,0.00,,---,0.00,VWS V14.01,2013-05-09 03:41:00,
2013-05-08 23:42:00,70.1,55.1,30.03,NW,312,0.0,0.0,59,0.00,,---,0.00,VWS V14.01,2013-05-09 03:42:00,
2013-05-08 23:43:00,70.3,55.3,30.03,NW,312,0.0,0.0,59,0.00,,---,0.00,VWS V14.01,2013-05-09 03:43:00,
2013-05-08 23:44:00,70.3,54.8,30.03,NW,305,3.0,3.0,58,0.00,,---,0.00,VWS V14.01,2013-05-09 03:44:00,
2013-05-08 23:45:00,70.3,54.8,30.03,NNE,26,0.0,7.0,58,0.00,,---,0.00,VWS V14.01,2013-05-09 03:45:00,
2013-05-08 23:46:00,70.3,54.8,30.03,NNE,26,0.0,7.0,58,0.00,,---,0.00,VWS V14.01,2013-05-09 03:46:00,
2013-05-08 23:47:00,70.4,54.9,30.03,NNE,26,0.0,7.0,58,0.00,,---,0.00,VWS V14.01,2013-05-09 03:47:00,
2013-05-08 23:48:00,70.4,54.9,30.03,NNE,26,0.0,7.0,58,0.00,,---,0.00,VWS V14.01,2013-05-09 03:48:00,
2013-05-08 23:49:00,70.6,53.7,30.03,ENE,63,0.0,7.0,55,0.00,,---,0.00,VWS V14.01,2013-05-09 03:49:00,
2013-05-08 23:50:00,70.6,52.7,30.03,ENE,63,0.0,7.0,53,0.00,,---,0.00,VWS V14.01,2013-05-09 03:50:00,
2013-05-08 23:51:00,70.8,54.8,30.03,ENE,63,0.0,0.0,57,0.00,,---,0.00,VWS V14.01,2013-05-09 03:51:00,
2013-05-08 23:52:00,70.8,54.8,30.03,ENE,63,0.0,0.0,57,0.00,,---,0.00,VWS V14.01,2013-05-09 03:52:00,
2013-05-08 23:53:00,70.9,54.9,30.03,ENE,63,0.0,0.0,57,0.00,,---,0.00,VWS V14.01,2013-05-09 03:53:00,
2013-05-08 23:54:00,70.9,54.9,30.03,West,276,1.0,1.0,57,0.00,,---,0.00,VWS V14.01,2013-05-09 03:54:00,
2013-05-08 23:55:00,71.1,53.6,30.03,WNW,299,0.0,1.0,54,0.00,,---,0.00,VWS V14.01,2013-05-09 03:55:00,
2013-05-08 23:56:00,71.1,53.6,30.03,WSW,250,6.0,6.0,54,0.00,,---,0.00,VWS V14.01,2013-05-09 03:56:00,
2013-05-08 23:57:00,71.1,53.1,30.03,West,266,0.0,6.0,53,0.00,,---,0.00,VWS V14.01,2013-05-09 03:57:00,
2013-05-08 23:58:00,71.1,53.1,30.03,West,266,0.0,6.0,53,0.00,,---,0.00,VWS V14.01,2013-05-09 03:58:00,
2013-05-08 23:59:00,71.1,52.6,30.03,West,268,3.0,6.0,52,0.00,,---,0.00,VWS V14.01,2013-05-09 03:59:00,